[[{"header":{"parameterUnit":"m.s-1","parameterCategory":1,"la1":31.0,"la2":29.5877,"lo1":-88.7671,"lo2":-86.6584,"dy":0.0162,"dx":0.0185,"nx":115,"ny":88,"refTime":"2023-04-17T12:00:00:Z","depth":0,"parameterNumber":2,"parameterNumberName":"U-component_of_WINDS"},"data":[0.0,0.0,0.0,0.0,0.0,0.0,0.0,0.0,0.0,0.0,0.0,0.0,0.0,0.0,0.0,0.0,0.0,0.0,0.0,0.0,0.0,0.0,0.0,0.0,0.0,0.0,0.0,0.0,0.0,0.0,0.0,0.0,0.0,0.0,0.0,0.0,0.0,0.0,0.0,0.0,0.0,0.0,0.0,0.0,0.0,0.0,0.0,0.0,0.0,0.0,0.0,0.0,0.0,0.0,0.0,0.0,0.0,0.0,0.0,0.0,0.0,0.0,0.0,0.0,0.0,0.0,0.0,0.0,0.0,0.0,0.0,0.0,0.0,0.0,0.0,0.0,0.0,0.0,0.0,0.0,0.0,0.0,0.0,0.0,0.0,0.0,0.0,0.0,0.0,0.0,0.0,0.0,0.0,0.0,0.0,0.0,0.0,0.0,0.0,0.0,0.0,0.0,0.0,0.0,0.0,0.0,0.0,0.0,0.0,0.0,0.0,0.0,0.0,0.0,0.0,0.0,0.0,0.0,0.0,0.0,0.0,0.0,0.0,0.0,0.0,0.0,0.0,0.0,0.0,0.0,0.0,0.0,0.0,0.0,0.0,0.0,0.0,0.0,0.0,0.0,0.0,0.0,0.0,0.0,0.0,0.0,0.0,0.0,0.0,0.0,0.0,0.0,0.0,0.0,0.0,0.0,0.0,0.0,0.0,0.0,0.0,0.0,0.0,0.0,0.0,0.0,0.0,0.0,0.0,0.0,0.0,0.0,0.0,0.0,0.0,0.0,0.0,0.0,0.0,0.0,0.0,0.0,0.0,0.0,0.0,0.0,0.0,0.0,0.0,0.0,0.0,0.0,0.0,0.0,0.0,0.0,0.0,0.0,0.0,0.0,0.0,0.0,0.0,0.0,0.0,0.0,0.0,0.0,0.0,0.0,0.0,0.0,0.0,0.0,0.0,0.0,0.0,0.0,0.0,0.0,0.0,0.0,0.0,0.0,0.0,0.0,0.0,0.0,0.0,0.0,0.0,0.0,0.0,0.0,0.0,0.0,0.0,0.0,0.0,0.0,0.0,0.0,0.0,0.0,0.0,0.0,0.0,0.0,0.0,0.0,0.0,0.0,0.0,0.0,0.0,0.0,0.0,0.0,0.0,0.0,0.0,0.0,0.0,0.0,0.0,0.0,0.0,0.0,0.0,0.0,0.0,0.0,0.0,0.0,0.0,0.0,0.0,0.0,0.0,0.0,0.0,0.0,0.0,0.0,0.0,0.0,0.0,0.0,0.0,0.0,0.0,0.0,0.0,0.0,0.0,0.0,0.0,0.0,0.0,0.0,0.0,0.0,0.0,0.0,0.0,0.0,0.0,0.0,0.0,0.0,0.0,0.0,0.0,0.0,0.0,0.0,0.0,0.0,0.0,0.0,0.0,0.0,0.0,0.0,0.0,0.0,0.0,0.0,0.0,0.0,0.0,0.0,0.0,0.0,0.0,0.0,0.0,0.0,0.0,0.0,0.0,0.0,0.0,0.0,0.0,0.0,0.0,0.0,0.0,0.0,0.0,0.0,0.0,0.0,0.0,0.0,0.0,0.0,0.0,0.0,0.0,0.0,0.0,0.0,0.0,0.0,0.0,0.0,0.0,0.0,0.0,0.0,0.0,0.0,0.0,0.0,0.0,0.0,0.0,0.0,0.0,0.0,0.0,0.0,0.0,0.0,0.0,0.0,0.0,0.0,0.0,0.0,0.0,0.0,0.0,0.0,0.0,0.0,0.0,0.0,0.0,0.0,0.0,0.0,0.0,0.0,0.0,0.0,0.0,0.0,0.0,0.0,0.0,0.0,0.0,0.0,0.0,0.0,0.0,0.0,0.0,0.0,0.0,0.0,0.0,0.0,0.0,0.0,0.0,0.0,0.0,0.0,0.0,0.0,0.0,0.0,0.0,0.0,0.0,0.0,0.0,0.0,0.0,0.0,0.0,0.0,0.0,0.0,0.0,0.0,0.0,0.0,0.0,0.0,0.0,0.0,0.0,0.0,0.0,0.0,0.0,0.0,0.0,0.0,0.0,0.0,0.0,0.0,0.0,0.0,0.0,0.0,0.0,0.0,0.0,0.0,0.0,0.0,0.0,0.0,0.0,0.0,0.0,0.0,0.0,0.0,0.0,0.0,0.0,0.0,0.0,0.0,0.0,0.0,0.0,0.0,0.0,0.0,0.0,0.0,0.0,0.0,0.0,0.0,0.0,0.0,0.0,0.0,0.0,0.0,0.0,0.0,0.0,0.0,0.0,0.0,0.0,0.0,0.0,0.0,0.0,0.0,0.0,0.0,0.0,0.0,0.0,0.0,0.0,0.0,0.0,0.0,0.0,0.0,0.0,0.0,0.0,0.0,0.0,0.0,0.0,0.0,0.0,0.0,0.0,0.0,0.0,0.0,0.0,0.0,0.0,0.0,0.0,0.0,0.0,0.0,0.0,0.0,0.0,0.0,0.0,0.0,0.0,0.0,0.0,0.0,0.0,0.0,0.0,0.0,0.0,0.0,0.0,0.0,0.0,0.0,0.0,0.0,0.0,0.0,0.0,0.0,0.0,0.0,0.0,0.0,0.0,0.0,0.0,0.0,0.0,0.0,0.0,0.0,0.0,0.0,0.0,0.0,0.0,0.0,0.0,0.0,0.0,0.0,0.0,0.0,0.0,0.0,0.0,0.0,0.0,0.0,0.0,0.0,0.0,0.0,0.0,0.0,0.0,0.0,0.0,0.0,0.0,0.0,0.0,0.0,0.0,0.0,0.0,0.0,0.0,0.0,0.0,0.0,0.0,0.0,0.0,0.0,0.0,0.0,0.0,0.0,0.0,0.0,0.0,0.0,0.0,0.0,0.0,0.0,0.0,0.0,0.0,0.0,0.0,0.0,0.0,0.0,0.0,0.0,0.0,0.0,0.0,0.0,0.0,0.0,0.0,0.0,0.0,0.0,0.0,0.0,0.0,0.0,0.0,0.0,0.0,0.0,0.0,0.0,0.0,0.0,0.0,0.0,0.0,0.0,0.0,0.0,0.0,0.0,0.0,0.0,0.0,0.0,0.0,0.0,0.0,0.0,0.0,0.0,0.0,0.0,0.0,0.0,0.0,0.0,0.0,0.0,0.0,0.0,0.0,0.0,0.0,0.0,0.0,0.0,0.0,0.0,0.0,0.0,0.0,0.0,0.0,0.0,0.0,0.0,0.0,0.0,0.0,0.0,0.0,0.0,0.0,0.0,0.0,0.0,0.0,0.0,0.0,0.0,0.0,0.0,0.0,0.0,0.0,0.0,0.0,0.0,0.0,0.0,0.0,0.0,0.0,0.0,0.0,0.0,0.0,0.0,0.0,0.0,0.0,0.0,0.0,0.0,0.0,0.0,0.0,0.0,0.0,0.0,0.0,0.0,0.0,0.0,0.0,0.0,0.0,0.0,0.0,0.0,0.0,0.0,0.0,0.0,0.0,0.0,0.0,0.0,0.0,0.0,0.0,0.0,0.0,0.0,0.0,0.0,0.0,0.0,0.0,0.0,0.0,0.0,0.0,0.0,0.0,0.0,0.0,0.0,0.0,0.0,0.0,0.0,0.0,0.0,0.0,0.0,0.0,0.0,0.0,0.0,0.0,0.0,0.0,0.0,0.0,0.0,0.0,0.0,0.0,0.0,0.0,0.0,0.0,0.0,0.0,0.0,0.0,0.0,0.0,0.0,0.0,0.0,0.0,0.0,0.0,0.0,0.0,0.0,0.0,0.0,0.0,0.0,0.0,0.0,0.0,0.0,0.0,0.0,0.0,0.0,0.0,0.0,0.0,0.0,0.0,0.0,0.0,0.0,0.0,0.0,0.0,0.0,0.0,0.0,0.0,0.0,0.0,0.0,0.0,0.0,0.0,0.0,0.0,0.0,0.0,0.0,0.0,0.0,0.0,0.0,0.0,0.0,0.0,0.0,0.0,0.0,0.0,0.0,0.0,0.0,0.0,0.0,0.0,0.0,0.0,0.0,0.0,0.0,0.0,0.0,0.0,0.0,0.0,0.0,0.0,0.0,0.0,0.0,0.0,0.0,0.0,0.0,0.0,0.0,0.0,0.0,0.0,0.0,0.0,0.0,0.0,0.0,0.0,0.0,0.0,0.0,0.0,0.0,0.0,0.0,0.0,0.0,0.0,0.0,0.0,0.0,0.0,0.0,0.0,0.0,0.0,0.0,0.0,0.0,0.0,0.0,0.0,0.0,0.0,0.0,0.0,0.0,0.0,0.0,0.0,0.0,-0.6128,0.0,0.0,0.0,0.0,0.0,0.0,0.0,0.0,0.0,0.0,0.0,0.0,0.0,0.0,0.0,0.0,0.0,0.0,0.0,0.0,0.0,0.0,0.0,0.0,0.0,0.0,0.0,0.0,0.0,0.0,0.0,0.0,0.0,0.0,0.0,0.0,0.0,0.0,0.0,0.0,0.0,0.0,0.0,0.0,0.0,0.0,0.0,0.0,0.0,0.0,0.0,0.0,0.0,0.0,0.0,0.0,0.0,0.0,0.0,0.0,0.0,0.0,0.0,0.0,0.0,0.0,0.0,0.0,0.0,0.0,0.0,0.0,0.0,0.0,0.0,0.0,0.0,0.0,0.0,0.0,0.0,0.0,0.0,0.0,0.0,0.0,0.0,0.0,0.0,0.0,0.0,0.0,0.0,0.0,0.0,0.0,0.0,0.0,0.0,0.0,0.0,0.0,0.0,0.0,0.0,0.0,0.0,0.0,0.0,0.0,-0.4472,-0.5053,-0.5187,-0.5513,-0.6064,0.0,0.0,0.0,0.0,0.0,0.0,0.0,0.0,0.0,0.0,0.0,0.0,0.0,0.0,0.0,0.0,0.0,0.0,0.0,0.0,0.0,0.0,0.0,0.0,0.0,0.0,0.0,0.0,0.0,0.0,0.0,0.0,0.0,0.0,0.0,0.0,0.0,0.0,0.0,0.0,0.0,0.0,0.0,0.0,0.0,0.0,0.0,0.0,0.0,0.0,0.0,0.0,0.0,0.0,0.0,0.0,0.0,0.0,0.0,0.0,0.0,0.0,0.0,0.0,0.0,0.0,0.0,0.0,0.0,0.0,0.0,0.0,0.0,0.0,0.0,0.0,0.0,0.0,0.0,0.0,0.0,0.0,0.0,0.0,0.0,0.0,0.0,0.0,0.0,0.0,0.0,0.0,0.0,0.0,0.0,0.0,0.0,0.0,0.0,0.0,0.0,0.0,0.0,0.0,0.0,0.0,0.0,0.0,0.0,0.0,0.0,0.0,-0.5323,-0.5623,-0.6142,0.0,0.0,0.0,0.0,0.0,0.0,0.0,0.0,0.0,0.0,0.0,0.0,0.0,0.0,0.0,0.0,0.0,0.0,0.0,0.0,0.0,0.0,0.0,0.0,0.0,0.0,0.0,0.0,0.0,0.0,0.0,0.0,0.0,0.0,0.0,0.0,0.0,0.0,0.0,0.0,0.0,0.0,0.0,0.0,0.0,0.0,0.0,0.0,0.0,0.0,0.0,0.0,0.0,0.0,0.0,0.0,0.0,0.0,0.0,0.0,0.0,0.0,0.0,0.0,0.0,0.0,0.0,0.0,0.0,0.0,0.0,0.0,0.0,0.0,0.0,0.0,0.0,0.0,0.0,0.0,0.0,0.0,0.0,0.0,0.0,0.0,0.0,0.0,0.0,0.0,0.0,0.0,0.0,0.0,0.0,0.0,0.0,0.0,0.0,0.0,0.0,0.0,0.0,0.0,0.0,0.0,0.0,0.0,0.0,0.0,-0.4623,-0.493,-0.5908,0.0,-0.6662,0.0,0.0,0.0,0.0,0.0,0.0,0.0,0.0,0.0,0.0,0.0,0.0,0.0,0.0,0.0,0.0,0.0,0.0,0.0,0.0,0.0,0.0,0.0,0.0,0.0,0.0,0.0,0.0,0.0,0.0,0.0,0.0,0.0,0.0,0.0,0.0,0.0,0.0,0.0,0.0,0.0,0.0,0.0,0.0,0.0,0.0,0.0,0.0,0.0,0.0,0.0,0.0,0.0,0.0,0.0,0.0,0.0,0.0,0.0,0.0,0.0,0.0,0.0,0.0,0.0,0.0,0.0,0.0,0.0,0.0,0.0,0.0,0.0,0.0,0.0,0.0,0.0,0.0,0.0,0.0,0.0,0.0,0.0,0.0,0.0,0.0,0.0,0.0,0.0,0.0,0.0,0.0,0.0,0.0,0.0,0.0,0.0,0.0,0.0,0.0,0.0,0.0,0.0,0.0,0.0,0.0,0.0,0.0,0.0,0.0,-0.475,-0.5015,-0.5473,-0.5701,0.0,0.0,0.0,0.0,0.0,0.0,0.0,0.0,0.0,0.0,0.0,0.0,0.0,0.0,0.0,0.0,0.0,0.0,0.0,0.0,0.0,0.0,0.0,0.0,0.0,0.0,0.0,0.0,0.0,0.0,0.0,0.0,0.0,0.0,0.0,0.0,0.0,0.0,0.0,0.0,0.0,0.0,0.0,0.0,0.0,0.0,0.0,0.0,0.0,0.0,0.0,0.0,0.0,0.0,0.0,0.0,0.0,0.0,0.0,0.0,0.0,0.0,0.0,0.0,0.0,0.0,0.0,0.0,0.0,0.0,0.0,0.0,0.0,0.0,0.0,0.0,0.0,0.0,0.0,0.0,0.0,0.0,0.0,0.0,0.0,0.0,0.0,0.0,0.0,0.0,0.0,0.0,0.0,0.0,0.0,0.0,0.0,0.0,0.0,0.0,0.0,0.0,0.0,0.0,0.0,0.0,0.0,0.0,0.0,0.0,-0.4618,-0.4888,-0.5228,-0.5037,-0.4954,-0.5013,0.0,0.0,0.0,0.0,0.0,0.0,0.0,0.0,0.0,0.0,0.0,0.0,0.0,0.0,0.0,0.0,0.0,0.0,0.0,0.0,0.0,0.0,0.0,0.0,0.0,0.0,0.0,0.0,0.0,0.0,0.0,0.0,0.0,0.0,0.0,0.0,0.0,0.0,0.0,0.0,0.0,0.0,0.0,0.0,0.0,0.0,0.0,0.0,0.0,0.0,0.0,0.0,0.0,0.0,0.0,0.0,0.0,0.0,0.0,0.0,0.0,0.0,0.0,0.0,0.0,0.0,0.0,0.0,0.0,0.0,0.0,0.0,0.0,0.0,0.0,0.0,0.0,0.0,0.0,0.0,0.0,0.0,0.0,0.0,0.0,0.0,0.0,0.0,0.0,0.0,0.0,0.0,0.0,0.0,0.0,0.0,0.0,0.0,0.0,0.0,0.0,0.0,0.0,0.0,0.0,0.0,0.0,0.0,-0.4214,-0.4531,-0.5021,-0.5616,-0.493,-0.4755,0.0,0.0,0.0,0.0,0.0,0.0,0.0,0.0,0.0,0.0,0.0,0.0,0.0,0.0,0.0,0.0,0.0,0.0,0.0,0.0,0.0,0.0,0.0,0.0,0.0,0.0,0.0,0.0,0.0,0.0,0.0,0.0,0.0,0.0,0.0,0.0,0.0,0.0,0.0,0.0,0.0,0.0,0.0,0.0,0.0,0.0,0.0,0.0,0.0,0.0,0.0,0.0,0.0,0.0,0.0,0.0,0.0,0.0,0.0,0.0,0.0,0.0,0.0,0.0,0.0,0.0,0.0,0.0,0.0,0.0,0.0,0.0,0.0,0.0,0.0,0.0,0.0,0.0,0.0,0.0,0.0,0.0,0.0,0.0,0.0,0.0,0.0,0.0,0.0,0.0,0.0,0.0,0.0,0.0,0.0,0.0,0.0,0.0,0.0,0.0,0.0,0.0,0.0,0.0,0.0,0.0,0.0,0.0,0.0,-0.4205,-0.4525,-0.4768,-0.4916,-0.4657,-0.4595,0.0,0.0,0.0,0.0,0.0,0.0,0.0,0.0,0.0,0.0,0.0,0.0,0.0,0.0,0.0,0.0,0.0,0.0,0.0,0.0,0.0,0.0,0.0,0.0,0.0,0.0,0.0,0.0,0.0,0.0,0.0,0.0,0.0,0.0,0.0,0.0,0.0,0.0,0.0,0.0,0.0,0.0,0.0,0.0,0.0,0.0,0.0,0.0,0.0,0.0,0.0,0.0,0.0,0.0,0.0,0.0,0.0,0.0,0.0,0.0,0.0,0.0,0.0,0.0,0.0,0.0,0.0,0.0,0.0,0.0,0.0,0.0,0.0,0.0,0.0,0.0,0.0,0.0,0.0,0.0,0.0,0.0,0.0,0.0,0.0,0.0,0.0,0.0,0.0,0.0,0.0,0.0,0.0,0.0,0.0,0.0,0.0,0.0,0.0,0.0,0.0,0.0,0.0,0.0,0.0,0.0,0.0,0.0,0.0,-0.4442,0.0,-0.4608,-0.4559,-0.4566,-0.4545,0.0,0.0,0.0,0.0,0.0,0.0,0.0,0.0,0.0,0.0,0.0,0.0,0.0,0.0,0.0,0.0,0.0,0.0,0.0,0.0,0.0,0.0,0.0,0.0,0.0,0.0,0.0,0.0,0.0,0.0,0.0,0.0,0.0,0.0,0.0,0.0,0.0,0.0,0.0,0.0,0.0,0.0,0.0,0.0,0.0,0.0,0.0,0.0,0.0,0.0,0.0,0.0,0.0,0.0,0.0,0.0,0.0,0.0,0.0,0.0,0.0,0.0,0.0,0.0,0.0,0.0,0.0,0.0,0.0,0.0,0.0,0.0,0.0,0.0,0.0,0.0,0.0,0.0,0.0,0.0,0.0,0.0,0.0,0.0,0.0,0.0,0.0,0.0,0.0,0.0,0.0,0.0,0.0,0.0,0.0,0.0,0.0,0.0,0.0,0.0,0.0,0.0,0.0,0.0,0.0,0.0,0.0,0.0,-0.4615,-0.4863,-0.4636,-0.4587,-0.4702,-0.4687,-0.4629,0.0,0.0,0.0,0.0,0.0,0.0,0.0,0.0,0.0,0.0,0.0,0.0,0.0,0.0,0.0,0.0,0.0,0.0,0.0,0.0,0.0,0.0,0.0,0.0,0.0,0.0,0.0,0.0,0.0,0.0,0.0,0.0,0.0,0.0,0.0,0.0,0.0,0.0,0.0,0.0,0.0,0.0,0.0,0.0,0.0,0.0,0.0,0.0,0.0,0.0,0.0,0.0,0.0,0.0,0.0,0.0,0.0,0.0,0.0,0.0,0.0,0.0,0.0,0.0,0.0,0.0,0.0,0.0,0.0,0.0,0.0,0.0,0.0,0.0,0.0,0.0,0.0,0.0,0.0,0.0,0.0,0.0,0.0,0.0,0.0,0.0,0.0,0.0,0.0,0.0,0.0,0.0,0.0,0.0,0.0,0.0,0.0,0.0,0.0,0.0,0.0,0.0,0.0,0.0,0.0,0.0,0.0,0.0,0.0,-0.4741,-0.4676,-0.4708,-0.4821,-0.4741,-0.4647,0.0,0.0,0.0,0.0,0.0,0.0,0.0,0.0,0.0,0.0,0.0,0.0,0.0,0.0,0.0,0.0,0.0,0.0,0.0,0.0,0.0,0.0,0.0,0.0,0.0,0.0,0.0,0.0,0.0,0.0,0.0,0.0,0.0,0.0,0.0,0.0,0.0,0.0,0.0,0.0,0.0,0.0,0.0,0.0,0.0,0.0,0.0,0.0,0.0,0.0,0.0,0.0,0.0,0.0,0.0,0.0,0.0,0.0,0.0,0.0,0.0,0.0,0.0,0.0,0.0,0.0,0.0,0.0,0.0,0.0,0.0,0.0,0.0,0.0,0.0,0.0,0.0,0.0,0.0,0.0,0.0,0.0,0.0,0.0,0.0,0.0,0.0,0.0,0.0,0.0,0.0,0.0,0.0,0.0,0.0,0.0,0.0,0.0,0.0,0.0,0.0,0.0,0.0,0.0,0.0,0.0,0.0,0.0,0.0,-0.473,-0.4704,-0.4732,-0.482,-0.4847,-0.4765,-0.4525,0.0,0.0,0.0,0.0,0.0,0.0,0.0,0.0,0.0,0.0,0.0,0.0,0.0,0.0,0.0,0.0,0.0,0.0,0.0,0.0,0.0,0.0,0.0,0.0,0.0,0.0,0.0,0.0,0.0,0.0,0.0,0.0,0.0,0.0,0.0,0.0,0.0,0.0,0.0,0.0,0.0,0.0,0.0,0.0,0.0,0.0,0.0,0.0,0.0,0.0,0.0,0.0,0.0,0.0,0.0,0.0,0.0,0.0,0.0,0.0,0.0,0.0,0.0,0.0,0.0,0.0,0.0,0.0,0.0,0.0,0.0,0.0,0.0,0.0,0.0,0.0,0.0,0.0,0.0,0.0,0.0,0.0,0.0,0.0,0.0,0.0,0.0,0.0,0.0,0.0,0.0,0.0,0.0,0.0,0.0,0.0,0.0,0.0,0.0,0.0,0.0,0.0,0.0,0.0,0.0,0.0,0.0,0.0,-0.483,-0.4763,-0.4727,-0.4728,-0.4948,-0.487,0.0,0.0,0.0,0.0,0.0,0.0,0.0,0.0,0.0,0.0,0.0,0.0,0.0,0.0,0.0,0.0,0.0,0.0,0.0,0.0,0.0,0.0,0.0,0.0,0.0,0.0,0.0,0.0,0.0,0.0,0.0,0.0,0.0,0.0,0.0,0.0,0.0,0.0,0.0,0.0,0.0,0.0,0.0,0.0,0.0,0.0,0.0,0.0,0.0,0.0,0.0,0.0,0.0,0.0,0.0,0.0,0.0,0.0,0.0,0.0,0.0,0.0,0.0,0.0,0.0,0.0,0.0,0.0,0.0,0.0,0.0,0.0,0.0,0.0,0.0,0.0,0.0,0.0,0.0,0.0,0.0,0.0,0.0,0.0,0.0,0.0,0.0,0.0,0.0,0.0,0.0,0.0,0.0,0.0,0.0,0.0,0.0,0.0,0.0,0.0,0.0,0.0,0.0,0.0,0.0,0.0,0.0,0.0,0.0,-0.5183,-0.515,-0.5066,-0.4937,-0.4892,-0.4777,0.0,0.0,0.0,0.0,0.0,0.0,0.0,0.0,0.0,0.0,0.0,0.0,0.0,0.0,0.0,0.0,0.0,0.0,0.0,0.0,0.0,0.0,0.0,0.0,0.0,0.0,0.0,0.0,0.0,0.0,0.0,0.0,0.0,0.0,0.0,0.0,0.0,0.0,0.0,0.0,0.0,0.0,0.0,0.0,0.0,0.0,0.0,0.0,0.0,0.0,0.0,0.0,0.0,0.0,0.0,0.0,0.0,0.0,0.0,0.0,0.0,0.0,0.0,0.0,0.0,0.0,0.0,0.0,0.0,0.0,0.0,0.0,0.0,0.0,0.0,0.0,0.0,0.0,0.0,0.0,0.0,0.0,0.0,0.0,0.0,0.0,0.0,0.0,0.0,0.0,0.0,0.0,0.0,0.0,0.0,0.0,0.0,0.0,0.0,0.0,0.0,0.0,0.0,0.0,0.0,0.0,0.0,0.0,-0.5581,-0.5393,-0.5406,-0.5291,-0.5039,-0.5002,-0.4824,0.0,0.0,0.0,0.0,0.0,0.0,0.0,0.0,0.0,0.0,0.0,0.0,0.0,0.0,0.0,0.0,0.0,0.0,0.0,0.0,0.0,0.0,0.0,0.0,0.0,0.0,0.0,0.0,0.0,0.0,0.0,0.0,0.0,0.0,0.0,0.0,0.0,0.0,0.0,0.0,0.0,0.0,0.0,0.0,0.0,0.0,0.0,0.0,0.0,0.0,0.0,0.0,0.0,0.0,0.0,0.0,0.0,0.0,0.0,0.0,0.0,0.0,0.0,0.0,0.0,0.0,0.0,0.0,0.0,0.0,0.0,0.0,0.0,0.0,0.0,0.0,0.0,0.0,0.0,0.0,0.0,0.0,0.0,0.0,0.0,0.0,0.0,0.0,0.0,0.0,0.0,0.0,0.0,0.0,0.0,0.0,0.0,0.0,0.0,0.0,0.0,0.0,0.0,0.0,0.0,0.0,0.0,0.0,-0.5922,-0.5547,-0.5563,-0.5445,-0.513,-0.5146,-0.488,0.0,0.0,0.0,0.0,0.0,0.0,0.0,0.0,0.0,0.0,0.0,0.0,0.0,0.0,0.0,0.0,0.0,0.0,0.0,0.0,0.0,0.0,0.0,0.0,0.0,0.0,0.0,0.0,0.0,0.0,0.0,0.0,0.0,0.0,0.0,0.0,0.0,0.0,0.0,0.0,0.0,0.0,0.0,0.0,0.0,0.0,0.0,0.0,0.0,0.0,0.0,0.0,0.0,0.0,0.0,0.0,0.0,0.0,0.0,0.0,0.0,0.0,0.0,0.0,0.0,0.0,0.0,0.0,0.0,0.0,0.0,0.0,0.0,0.0,0.0,0.0,0.0,0.0,0.0,0.0,0.0,0.0,0.0,0.0,0.0,0.0,0.0,0.0,0.0,0.0,0.0,0.0,0.0,0.0,0.0,0.0,0.0,0.0,0.0,0.0,0.0,0.0,0.0,0.0,0.0,0.0,0.0,0.0,-0.6054,-0.567,-0.5613,-0.5475,-0.5184,-0.4942,-0.469,0.0,0.0,0.0,0.0,0.0,0.0,0.0,0.0,0.0,0.0,0.0,0.0,0.0,0.0,0.0,0.0,0.0,0.0,0.0,0.0,0.0,0.0,0.0,0.0,0.0,0.0,0.0,0.0,0.0,0.0,0.0,0.0,0.0,0.0,0.0,0.0,0.0,0.0,0.0,0.0,0.0,0.0,0.0,0.0,0.0,0.0,0.0,0.0,0.3839,0.0,0.0,0.0,0.0,0.0,0.0,0.0,0.0,0.0,0.0,0.0,0.0,0.0,0.0,0.0,0.0,0.0,0.0,0.0,0.0,0.0,0.0,0.0,0.0,0.0,0.0,0.0,0.0,0.0,0.0,0.0,0.0,0.0,0.0,0.0,0.0,0.0,0.0,0.0,0.0,0.0,0.0,0.0,0.0,0.0,0.0,0.0,0.0,0.0,0.0,0.0,0.0,0.0,0.0,0.0,0.0,0.0,0.0,0.0,-0.6536,-0.6134,-0.5866,-0.5567,-0.5252,-0.4922,-0.4726,0.0,0.0,0.0,0.0,0.0,0.0,0.0,0.0,0.0,0.0,0.0,0.0,0.0,0.0,0.0,0.0,0.0,0.0,0.0,0.0,0.0,0.0,0.0,0.0,0.0,0.0,0.0,0.0,0.0,0.0,0.0,0.0,0.0,0.0,0.0,0.0,0.0,0.0,0.0,0.0,0.0,0.0,0.0,0.0,0.0,0.0,0.0,0.0,0.0,0.0,0.0,0.0,0.0,0.0,0.0,0.0,0.0,0.0,0.0,0.0,0.0,0.0,0.0,0.0,0.0,0.0,0.0,0.0,0.0,0.0,0.0,0.0,0.0,0.0,0.0,0.0,0.0,0.0,0.0,0.0,0.0,0.0,0.0,0.0,0.0,0.0,0.0,0.0,0.0,0.0,0.0,0.0,0.0,0.0,0.0,0.0,0.0,0.0,0.0,0.0,0.0,0.0,0.0,0.0,0.0,0.0,0.0,-0.7328,-0.7023,-0.6663,-0.6141,-0.5718,-0.5347,-0.498,-0.4795,-0.4777,0.0,0.0,0.0,0.0,0.0,0.0,0.0,0.0,0.0,0.0,0.0,0.0,0.0,0.0,0.0,0.0,0.0,0.0,0.0,0.0,0.0,0.0,0.0,0.0,0.0,0.0,0.0,0.0,0.0,0.0,0.0,0.0,0.0,0.0,0.0,0.0,0.0,0.0,0.2159,0.2494,0.0,0.0,0.0,0.0,0.0,0.0,0.0,0.0,0.3435,0.0,0.0,0.0,0.0,0.0,0.0,0.0,0.0,0.0,0.0,0.0,0.0,0.0,0.0,0.0,0.0,0.0,0.0,0.0,0.0,0.0,0.0,0.0,0.0,0.0,0.0,0.0,0.0,0.0,0.0,0.0,0.0,0.0,0.0,0.0,0.0,0.0,0.0,0.0,0.0,0.0,0.0,0.0,0.0,0.0,0.0,0.0,0.0,0.0,0.0,0.0,0.0,0.0,0.0,0.0,0.0,-0.7751,-0.7371,-0.7088,-0.6832,-0.6234,-0.5742,-0.5468,-0.5024,-0.4758,-0.4616,0.0,0.0,0.0,0.0,0.0,0.0,0.0,0.0,0.0,0.0,0.0,0.0,0.0,0.0,0.0,0.0,0.0,0.0,0.0,0.0,0.0,0.0,0.0,0.0,0.0,0.0,0.0,0.0,0.0,0.0,0.0,0.0,0.0,0.0,0.0,0.0,0.0,0.0,0.0,0.2906,0.3107,0.0,0.0,0.0,0.0,0.0,0.0,0.0,0.0,0.3237,0.0,0.0,0.0,0.0,0.0,0.0,0.0,0.0,0.0,0.0,0.0,0.0,0.0,0.0,0.0,0.0,0.0,0.0,0.0,0.0,0.0,0.0,0.0,0.0,0.0,0.0,0.0,0.0,0.0,0.0,0.0,0.0,0.0,0.0,0.0,0.0,0.0,0.0,0.0,0.0,0.0,0.0,0.0,0.0,0.0,0.0,0.0,0.0,0.0,0.0,0.0,0.0,0.0,0.0,0.0,-0.7907,-0.7639,-0.7361,-0.7163,-0.6542,-0.5987,-0.5508,-0.5101,-0.4822,0.0,0.0,0.0,0.0,0.0,0.0,0.0,0.0,0.0,0.0,0.0,0.0,0.0,0.0,0.0,0.0,0.0,0.0,0.0,0.0,0.0,0.0,0.0,0.0,0.0,0.0,0.0,0.0,0.0,0.0,0.0,0.0,0.0,0.0,0.0,0.0,0.0,0.0,0.0,0.0,0.333,0.349,0.3539,0.0,0.0,0.0,0.0,0.0,0.0,0.3735,0.3569,0.0,0.0,0.0,0.0,0.0,0.0,0.0,0.0,0.0,0.0,0.0,0.0,0.0,0.0,0.0,0.0,0.0,0.0,0.0,0.0,0.0,0.0,0.0,0.0,0.0,0.0,0.0,0.0,0.0,0.0,0.0,0.0,0.0,0.0,0.0,0.0,0.0,0.0,0.0,0.0,0.0,0.0,0.0,0.0,0.0,0.0,0.0,0.0,0.0,0.0,0.0,0.0,0.0,0.0,0.0,-0.807,-0.7843,-0.7603,-0.7384,-0.6815,-0.6178,-0.5533,-0.5157,-0.4835,0.0,0.0,0.0,0.0,0.0,0.0,0.0,0.0,0.0,0.0,0.0,0.0,0.0,0.0,0.0,0.0,0.0,0.0,0.0,0.0,0.0,0.0,0.0,0.0,0.0,0.0,0.0,0.0,0.0,0.0,0.0,0.0,0.0,0.0,0.0,0.0,0.0,0.0,0.0,0.0,0.0,0.3801,0.376,0.4139,0.0,0.0,0.0,0.0,0.4297,0.4122,0.0,0.0,0.0,0.0,0.0,0.0,0.0,0.0,0.0,0.0,0.0,0.0,0.0,0.0,0.0,0.0,0.0,0.0,0.0,0.0,0.0,0.0,0.0,0.0,0.0,0.0,0.0,0.0,0.0,0.0,0.0,0.0,0.0,0.0,0.0,0.0,0.0,0.0,0.0,0.0,0.0,0.0,0.0,0.0,0.0,0.0,0.0,0.0,0.0,0.0,0.0,0.0,0.0,0.0,0.0,0.0,-0.8097,-0.7835,-0.7605,-0.7385,-0.6798,-0.6218,-0.5606,-0.5092,-0.475,0.0,0.0,0.0,0.0,0.0,0.0,0.0,0.0,0.0,0.0,0.0,0.0,0.0,0.0,0.0,0.0,0.0,0.0,0.0,0.0,0.0,0.0,0.0,0.0,0.0,0.0,0.0,0.0,0.0,0.0,0.0,0.0,0.0,0.0,0.0,0.0,0.0,0.0,0.0,0.0,0.0,0.3869,0.3878,0.4092,0.4236,0.0,0.0,0.4267,0.4301,0.4279,0.0,0.0,0.0,0.0,0.0,0.0,0.0,0.0,0.0,0.0,0.0,0.0,0.0,0.0,0.0,0.0,0.0,0.0,0.0,0.0,0.0,0.0,0.0,0.0,0.0,0.0,0.0,0.0,0.0,0.0,0.0,0.0,0.0,0.0,0.0,0.0,0.0,0.0,0.0,0.0,0.0,0.0,0.0,0.0,0.0,0.0,0.0,0.0,0.0,0.0,0.0,0.0,0.0,0.0,0.0,-0.8037,-0.8195,-0.8096,-0.7921,-0.7689,-0.7104,-0.649,-0.5907,-0.5337,-0.4963,0.0,0.0,0.0,0.0,0.0,0.0,0.0,0.0,0.0,0.0,0.0,0.0,0.0,0.0,0.0,0.0,0.0,0.0,0.0,0.0,0.0,0.0,0.0,0.0,0.0,0.0,0.0,0.0,0.0,0.0,0.0,0.0,0.0,0.0,0.0,0.0,0.0,0.0,0.0,0.0,0.0,0.0,0.4026,0.4275,0.0,0.0,0.0,0.4487,0.4522,0.0,0.0,0.0,0.0,0.0,0.0,0.0,0.0,0.0,0.0,0.0,0.0,0.0,0.0,0.0,0.0,0.0,0.0,0.0,0.0,0.0,0.0,0.0,0.0,0.0,0.0,0.0,0.0,0.0,0.0,0.0,0.0,0.0,0.0,0.0,0.0,0.0,0.0,0.0,0.0,0.0,0.0,0.0,0.0,0.0,0.0,0.0,0.0,0.0,0.0,0.0,0.0,0.0,0.0,0.0,0.0,0.0,-0.8312,-0.8292,-0.8164,-0.7825,-0.7296,-0.6696,-0.61,-0.5586,0.0,0.0,0.0,0.0,0.0,0.0,0.0,0.0,0.0,0.0,0.0,0.0,0.0,0.0,0.0,0.0,0.0,0.0,0.0,0.0,0.0,0.0,0.0,0.0,0.0,0.0,0.0,0.2057,0.0,0.0,0.0,0.0,0.0,0.0,0.0,0.0,0.0,0.0,0.0,0.0,0.0,0.0,0.4423,0.4241,0.4523,0.4816,0.0,0.0,0.4801,0.4869,0.4928,0.4876,0.0,0.0,0.0,0.0,0.0,0.0,0.0,0.0,0.0,0.0,0.0,0.0,0.0,0.0,0.0,0.0,0.0,0.0,0.0,0.0,0.0,0.0,0.0,0.0,0.0,0.0,0.0,0.0,0.0,0.0,0.0,0.0,0.0,0.0,0.0,0.0,0.0,0.0,0.0,0.0,0.0,0.0,0.0,0.0,0.0,0.0,0.0,0.0,0.0,0.0,0.0,0.0,0.0,0.0,0.0,-0.831,-0.8301,-0.8079,-0.7617,-0.7197,-0.6675,-0.6037,-0.5782,-0.5506,0.0,0.0,0.0,0.0,0.0,0.0,0.0,0.0,0.0,0.0,0.0,0.0,0.0,0.0,0.0,0.0,0.0,0.0,0.0,0.0,0.0,0.0,0.0,0.0,0.0,0.0,0.0,0.0,0.0,0.0,0.0,0.0,0.0,0.0,0.0,0.0,0.0,0.0,0.0,0.0,0.0,0.4729,0.4574,0.4805,0.5068,0.0,0.0,0.5049,0.5314,0.5362,0.5234,0.4847,0.0,0.0,0.0,0.0,0.0,0.0,0.0,0.0,0.0,0.0,0.0,0.0,0.0,0.0,0.0,0.0,0.0,0.0,0.0,0.0,0.0,0.0,0.0,0.0,0.0,0.0,0.0,0.0,0.0,0.0,0.0,0.0,0.0,0.0,0.0,0.0,0.0,0.0,0.0,0.0,0.0,0.0,0.0,0.0,0.0,0.0,0.0,0.0,0.0,0.0,0.0,0.0,0.0,-0.875,-0.8495,-0.8764,-0.8541,-0.7824,-0.7607,-0.7073,-0.6208,-0.5947,-0.5617,0.0,0.0,0.0,0.0,0.0,0.0,0.0,0.0,0.0,0.0,0.0,0.0,0.0,0.0,0.0,0.0,0.0,0.0,0.0,0.0,0.0,0.0,0.0,0.0,0.0,0.0,0.0,0.0,0.2464,0.2666,0.307,0.0,0.0,0.0,0.0,0.0,0.0,0.0,0.0,0.0,0.0,0.4731,0.4673,0.4928,0.0,0.0,0.523,0.5188,0.5381,0.5328,0.5186,0.496,0.4966,0.0,0.0,0.0,0.0,0.0,0.0,0.0,0.0,0.0,0.0,0.0,0.0,0.0,0.0,0.0,0.0,0.0,0.0,0.0,0.0,0.0,0.0,0.0,0.0,0.0,0.0,0.0,0.0,0.0,0.0,0.0,0.0,0.0,0.0,0.0,0.0,0.0,0.0,0.0,0.0,0.0,0.0,0.0,0.0,0.0,0.0,0.0,0.0,0.0,0.0,0.0,0.0,-0.903,-0.8699,-0.9083,-0.8832,-0.7975,-0.7908,-0.7389,-0.6477,-0.6224,-0.5883,0.0,0.0,0.0,0.0,0.0,0.0,0.0,0.0,0.0,0.0,0.0,0.0,0.0,0.0,0.0,0.0,0.0,0.0,0.0,0.0,0.0,0.0,0.0,0.0,0.0,0.0,0.0,0.0,0.2629,0.2844,0.3194,0.0,0.0,0.0,0.0,0.0,0.0,0.0,0.0,0.0,0.0,0.4867,0.4777,0.5044,0.5268,0.5396,0.5316,0.5346,0.553,0.5379,0.5214,0.5137,0.0,0.0,0.0,0.0,0.0,0.0,0.0,0.0,0.0,0.0,0.0,0.0,0.0,0.0,0.0,0.0,0.0,0.0,0.0,0.0,0.0,0.0,0.0,0.0,0.0,0.0,0.0,-1.1324,0.0,0.0,-1.0826,0.0,0.0,0.0,0.0,0.0,0.0,0.0,0.0,0.0,0.0,0.0,0.0,0.0,0.0,0.0,0.0,0.0,0.0,0.0,0.0,0.0,0.0,-0.9356,-0.8891,-0.9111,-0.8834,-0.8125,-0.8019,-0.7595,-0.6744,-0.6692,-0.63,-0.5502,0.0,0.0,0.0,0.0,0.0,0.0,0.0,0.0,0.0,0.0,0.0,0.0,0.0,0.0,0.0,0.0,0.0,0.0,0.0,0.0,0.0,0.0,0.0,0.0,0.0,0.0,0.2301,0.2555,0.279,0.0,0.0,0.0,0.0,0.0,0.0,0.0,0.0,0.0,0.0,0.4965,0.5276,0.4945,0.5187,0.5413,0.5418,0.5392,0.5514,0.5802,0.5611,0.5387,0.0,0.0,0.0,0.0,0.0,0.0,0.0,0.0,0.0,0.0,0.0,0.0,0.0,0.0,0.0,0.0,0.0,0.0,0.0,0.0,0.0,0.0,0.0,0.0,0.0,0.0,0.0,-1.1632,-1.1813,0.0,0.0,0.0,0.0,0.0,0.0,0.0,0.0,0.0,0.0,0.0,-0.9441,-0.9569,0.0,0.0,0.0,0.0,0.0,0.0,0.0,0.0,0.0,0.0,0.0,0.0,-0.9438,-0.9113,-0.9487,-0.9286,-0.8529,-0.839,-0.7948,-0.7191,-0.6731,-0.6173,-0.5513,0.0,0.0,0.0,0.0,0.0,0.0,0.0,0.0,0.0,0.0,0.0,0.0,0.0,0.0,0.0,0.0,0.0,0.0,0.0,0.0,0.0,0.0,0.0,0.0,0.0,0.2312,0.0,0.0,0.0,0.0,0.0,0.0,0.0,0.0,0.0,0.0,0.0,0.4705,0.4912,0.5137,0.5242,0.5244,0.5352,0.5497,0.0,0.0,0.0,0.0,0.0,0.0,0.0,0.0,0.0,0.0,0.0,0.0,0.0,0.0,0.6116,0.6238,0.6441,0.6634,0.6673,0.0,0.0,0.0,0.0,0.0,0.0,0.0,0.0,0.0,0.0,0.0,0.0,0.0,0.0,-1.2624,0.0,-1.2208,0.0,0.0,0.0,0.0,0.0,0.0,0.0,0.0,-1.0847,-1.0655,-1.0318,-1.0453,-1.0388,0.0,-1.0007,-0.9693,0.0,0.0,0.0,0.0,0.0,0.0,0.0,0.0,-0.9671,-0.9345,-0.9826,-0.9621,-0.8722,-0.8707,-0.8303,-0.7356,-0.6661,-0.6061,-0.5594,-0.4744,-0.4282,0.0,0.0,0.0,0.0,0.0,0.0,0.0,0.0,0.0,0.0,0.0,0.0,0.0,0.0,0.0,0.0,0.0,0.0,0.0,0.0,0.0,0.0,0.0,0.2165,0.0,0.0,0.0,0.0,0.0,0.0,0.0,0.0,0.0,0.4526,0.4615,0.4697,0.493,0.5173,0.5331,0.5241,0.0,0.0,0.0,0.0,0.0,0.0,0.0,0.5318,0.5428,0.5436,0.5475,0.5615,0.5719,0.5824,0.5936,0.0,0.0,0.6432,0.6707,0.6964,0.7035,0.7133,0.726,0.7535,0.7578,0.7591,0.0,0.0,0.0,0.0,0.0,0.0,0.0,0.0,-1.4587,-1.4053,0.0,-1.2908,0.0,0.0,0.0,0.0,0.0,-1.2841,0.0,0.0,-1.1825,-1.1666,-1.0858,-1.1448,-1.1415,-1.0815,-1.0963,-1.093,-1.0689,-0.9623,0.0,0.0,0.0,0.0,0.0,0.0,-1.0034,-0.9587,-1.0149,-0.9892,-0.8698,-0.9013,-0.8539,-0.7231,-0.6513,-0.6002,-0.5686,-0.518,-0.4822,-0.4632,-0.3862,0.0,0.0,0.0,0.0,0.0,0.0,0.0,0.0,0.0,0.0,0.0,0.0,0.0,0.0,0.0,0.0,0.0,0.0,0.0,0.0,0.1631,0.0,0.0,0.0,0.0,0.0,0.0,0.0,0.0,0.0,0.0,0.3957,0.4287,0.4493,0.4493,0.0,0.0,0.0,0.0,0.5537,0.5215,0.5428,0.5635,0.564,0.5544,0.5542,0.5812,0.0,0.0,0.5869,0.592,0.5893,0.5779,0.5883,0.6071,0.6536,0.7053,0.7335,0.7203,0.7315,0.7495,0.7495,0.7495,0.7451,-1.9362,0.0,0.0,0.0,0.0,-1.7168,-1.7019,-1.6892,-1.6426,-1.6016,-1.5572,-1.4843,0.0,0.0,0.0,0.0,0.0,0.0,-1.3429,-1.2541,-1.3103,-1.3061,-1.2439,-1.26,-1.2589,-1.2404,-1.2127,-1.1864,-1.1606,-1.0974,-1.0442,-1.0004,0.0,0.0,0.0,0.0,-1.0264,-1.0238,-1.0412,-1.0121,-0.933,-0.9137,-0.833,-0.6888,-0.6647,-0.6268,-0.5713,-0.5325,-0.5102,-0.5012,-0.4393,0.0,0.0,0.0,0.0,0.0,0.0,0.0,0.0,0.0,0.0,0.0,0.0,0.0,0.0,0.0,0.0,0.0,0.0,0.0,0.2335,0.1971,0.1832,0.0,0.0,0.0,0.0,0.0,0.0,0.0,0.0,0.0,0.3515,0.395,0.4303,0.0,0.0,0.4404,0.4209,0.4436,0.4651,0.4692,0.4614,0.0,0.4799,0.4797,0.4885,0.5139,0.5507,0.5873,0.6141,0.6206,0.6298,0.6435,0.6506,0.6677,0.7062,0.6945,0.6854,0.6909,0.7112,0.7353,0.7514,0.7567,0.7538,-2.2309,-2.0824,-1.9435,-1.8768,-1.8676,-1.8512,-1.8332,-1.8137,-1.7816,-1.735,-1.6765,-1.6151,-1.5793,-1.5673,-1.5592,0.0,0.0,0.0,-1.4815,-1.41,-1.4433,-1.4323,-1.3947,-1.3696,-1.3571,-1.3534,-1.2965,-1.2602,-1.2418,-1.1825,-1.1332,-1.0919,0.0,0.0,-1.0441,-1.0579,-1.0646,-1.0624,-1.0861,-1.0533,-0.958,-0.8877,-0.8036,-0.7065,-0.6839,-0.6518,-0.6036,-0.5706,-0.5511,-0.5394,-0.4866,-0.4379,0.0,0.0,0.0,0.0,0.0,0.0,0.0,0.0,0.0,0.0,0.0,-0.0682,-0.0384,0.0,0.0,0.0,0.1043,0.1472,0.1877,0.1554,0.0,0.0,0.0,0.0,0.0,0.0,0.0,0.2548,0.2925,0.3195,0.3195,0.3539,0.387,0.4009,0.4124,0.4131,0.4034,0.0,0.4458,0.4522,0.4433,0.4385,0.4486,0.4486,0.4517,0.47,0.5175,0.5569,0.575,0.5925,0.6093,0.6251,0.6481,0.6729,0.7024,0.6935,0.6888,0.7013,0.7128,0.7286,0.7557,0.7677,0.7749,-2.479,-2.387,-2.0869,-1.9642,-1.9622,-1.9598,-1.9358,-1.8951,-1.8904,-1.8315,-1.7368,-1.7037,-1.6857,-1.6838,-1.698,0.0,-1.6758,-1.6666,-1.6266,-1.5652,-1.567,-1.5517,-1.5225,-1.4616,-1.4347,-1.4319,-1.3538,-1.3152,-1.3111,-1.2359,-1.1997,-1.1926,-1.1115,-1.0692,-1.0692,-1.1009,-1.1061,-1.0885,-1.1452,-1.1042,-0.9578,-0.8435,-0.7727,-0.7519,-0.7097,-0.6732,-0.6532,-0.6283,-0.6029,-0.5763,-0.5322,-0.4799,-0.4292,0.0,0.0,0.0,0.0,0.0,0.0,0.0,0.0,0.0,0.0,0.0,0.0,0.0,0.0,0.0,0.0498,0.0,0.0787,0.0799,0.0,0.0,0.0,0.1393,0.1748,0.1895,0.2108,0.247,0.0,0.0,0.2907,0.3078,0.3318,0.366,0.4062,0.4246,0.4129,0.4409,0.4657,0.4472,0.4531,0.4549,0.4412,0.4394,0.4423,0.453,0.4755,0.497,0.5049,0.5233,0.5431,0.547,0.5919,0.6374,0.652,0.6904,0.7305,0.7266,0.7328,0.7372,0.7584,0.7832,0.8013,-2.5966,-2.4394,-2.3366,-2.2449,-2.1677,-2.1484,-2.1312,-2.116,-2.0629,-2.0118,-1.9739,-1.8882,-1.8291,-1.7925,-1.7769,-1.7573,-1.7302,-1.7134,-1.6737,-1.6138,-1.6132,-1.5994,-1.5719,-1.4966,-1.469,-1.4783,-1.4009,-1.3599,-1.3544,-1.301,-1.2637,-1.2428,-1.1834,-1.1419,-1.1278,-1.103,-1.111,-1.1543,-1.136,-1.0877,-1.0035,-0.8816,-0.8012,-0.7669,-0.7459,-0.7061,-0.6514,-0.6553,-0.6436,-0.6152,-0.5718,-0.5281,-0.4893,-0.4404,0.0,0.0,0.0,0.0,0.0,0.0,0.0,0.0,0.0,-0.1021,-0.0617,0.0,-0.0212,0.0,0.0122,0.0535,0.1449,0.1099,0.0,0.0,0.1705,0.1701,0.1654,0.2012,0.2179,0.1933,0.2275,0.247,0.2333,0.2741,0.2979,0.2836,0.3259,0.3491,0.3312,0.3509,0.3664,0.3708,0.3747,0.3776,0.3946,0.4129,0.4295,0.4494,0.4557,0.4694,0.4876,0.4976,0.5028,0.5058,0.54,0.5773,0.6027,0.618,0.6349,0.6572,0.734,0.7921,0.7672,0.7906,0.813,-2.7433,-2.6182,-2.5746,-2.5044,-2.4083,-2.2771,-2.2119,-2.1979,-2.1544,-2.1175,-2.0716,-1.9781,-1.9149,-1.873,-1.8593,-1.8441,-1.8263,-1.7906,-1.7549,-1.7237,-1.6989,-1.6789,-1.663,-1.5676,-1.5291,-1.5378,-1.4425,-1.3997,-1.402,-1.3557,-1.3281,-1.3248,-1.26,-1.2224,-1.2108,-1.1616,-1.1536,-1.1787,-1.1196,-1.0716,-1.0318,-0.9168,-0.8398,-0.7977,-0.7666,-0.7279,-0.6828,-0.6667,-0.6517,-0.6344,-0.5877,-0.5458,-0.516,-0.4641,-0.3931,0.0,0.0,0.0,0.0,0.0,0.0,0.0,0.0,0.0,0.0,0.0,-0.0145,0.0,0.0,0.0273,0.0931,0.0766,0.0798,0.1179,0.1331,0.1442,0.1446,0.1733,0.1843,0.1732,0.208,0.231,0.2181,0.2669,0.2971,0.278,0.3134,0.3334,0.3124,0.328,0.3444,0.345,0.345,0.3466,0.3601,0.3781,0.3918,0.4047,0.4063,0.4163,0.432,0.4561,0.4721,0.4752,0.5217,0.5642,0.5764,0.5995,0.6221,0.6384,0.7022,0.7519,0.7449,0.7428,0.7375,-2.8842,-2.8219,-2.7736,-2.7108,-2.6266,-2.3877,-2.2635,-2.2311,-2.2198,-2.1728,-2.1032,-2.0241,-1.9729,-1.9467,-1.943,-1.943,-1.9377,-1.8838,-1.8601,-1.8534,-1.802,-1.7782,-1.7729,-1.661,-1.6048,-1.5967,-1.484,-1.4369,-1.4469,-1.4004,-1.3867,-1.4054,-1.334,-1.2986,-1.2949,-1.2486,-1.2071,-1.1739,-1.1019,-1.0587,-1.0479,-0.9429,-0.8713,-0.8336,-0.784,-0.7483,-0.7247,-0.674,-0.6458,-0.6408,-0.5942,-0.555,-0.5301,-0.4813,-0.4074,0.0,-0.2999,0.0,0.0,0.0,0.0,0.0,0.0,0.0,0.0,-0.0149,0.0,0.0,0.0,0.0,0.0025,0.0254,0.0438,0.0505,0.072,0.0988,0.1309,0.1363,0.1446,0.1688,0.1957,0.2167,0.214,0.264,0.297,0.2908,0.3212,0.3362,0.3143,0.3354,0.3584,0.3515,0.3507,0.3518,0.3474,0.3474,0.3531,0.3531,0.3636,0.3631,0.37,0.4148,0.4484,0.4568,0.5127,0.559,0.554,0.5968,0.6288,0.6183,0.6442,0.6775,0.6976,0.6801,0.6627,-2.9458,-2.8587,-2.8191,-2.7565,-2.671,-2.5631,-2.4727,-2.3978,-2.3167,-2.2312,-2.1475,-2.1048,-2.0695,-2.0399,-2.0128,-2.002,-2.002,-1.9695,-1.9545,-1.9518,-1.8933,-1.8632,-1.8605,-1.7478,-1.6815,-1.6485,-1.5402,-1.4729,-1.4508,-1.4178,-1.4051,-1.4065,-1.364,-1.3371,-1.3371,0.0,0.0,0.0,-1.1065,-1.0745,-1.0311,-0.9284,-0.8709,-0.8621,-0.8164,0.0,-0.7438,-0.7074,-0.6793,-0.6558,-0.6163,0.0,0.0,0.0,0.0,0.0,0.0,0.0,0.0,0.0,0.0,0.0,-0.2104,-0.1512,-0.0489,-0.0156,0.0,0.0,0.0,0.0105,0.029,0.037,0.0582,0.1064,0.1173,0.134,0.1655,0.1688,0.1723,0.1775,0.1839,0.187,0.1925,0.2183,0.2298,0.2214,0.2718,0.3052,0.282,0.3245,0.358,0.3597,0.3564,0.3545,0.3491,0.3529,0.3548,0.3542,0.3695,0.382,0.3853,0.4152,0.4399,0.4457,0.4775,0.5094,0.5047,0.5353,0.5646,0.5577,0.5646,0.5854,0.6339,0.6632,0.6722,-3.0065,-2.9268,-2.9124,-2.8602,0.0,-2.7192,-2.6429,-2.5571,-2.4095,-2.2831,-2.183,-2.1496,-2.1093,-2.0701,-2.051,-2.0347,-2.0183,-1.9922,-1.973,-1.9566,-1.9126,-1.8837,-1.8671,-1.7798,-1.7325,-1.7117,-1.6132,-1.563,-1.5547,-1.4846,-1.4537,-1.4615,-1.3887,-1.3498,-1.3498,-1.3346,-1.2823,-1.1935,-1.1519,-1.1076,-1.0631,-0.9724,-0.9137,-0.8925,-0.8287,0.0,0.0,0.0,0.0,0.0,0.0,0.0,0.0,-0.5435,0.0,-0.4365,-0.4316,-0.3983,-0.3315,-0.3129,-0.295,-0.2648,-0.2241,-0.1676,-0.0896,-0.0716,-0.0586,-0.0453,-0.0453,-0.0321,-0.0027,0.0,0.0217,0.0764,0.0847,0.1046,0.148,0.1586,0.1617,0.1781,0.1918,0.202,0.202,0.2272,0.2384,0.23,0.2718,0.3054,0.297,0.3306,0.3558,0.339,0.353,0.3519,0.3384,0.3509,0.3608,0.3575,0.3653,0.3791,0.3929,0.4233,0.4481,0.4623,0.4932,0.5098,0.4959,0.5158,0.5354,0.5214,0.5298,0.5468,0.5827,0.6123,0.6416,-3.0557,-2.9922,-2.9922,-2.9568,-2.8945,-2.8337,-2.7553,-2.6595,0.0,0.0,0.0,-2.192,-2.1495,-2.1045,-2.0936,-2.0716,-2.0441,-2.0178,-1.9902,-1.9625,-1.9292,-1.9,-1.8693,-1.8121,-1.78,-1.7715,-1.6919,-1.6592,-1.6667,-1.5641,-1.5156,-1.5106,-1.4183,-1.3634,-1.3538,-1.347,-1.3178,-1.2616,-1.1982,-1.1449,-1.0976,-1.0252,-0.9756,-0.9397,-0.8607,-0.8123,-0.7937,-0.7375,-0.6977,-0.6786,-0.6377,-0.6011,-0.5768,-0.5406,-0.5,-0.4563,-0.4519,-0.4307,-0.3828,-0.3529,-0.3216,-0.2895,-0.2421,-0.1921,-0.1461,-0.1405,-0.1325,-0.1113,-0.1032,-0.0902,-0.0637,-0.0525,-0.0278,0.0169,0.0226,0.0481,0.106,0.1222,0.133,0.1626,0.1894,0.2132,0.2104,0.2328,0.2552,0.2554,0.2701,0.2988,0.3078,0.3359,0.3546,0.3337,0.3459,0.3518,0.3334,0.3418,0.3589,0.3583,0.3639,0.3757,0.398,0.4313,0.462,0.4812,0.5158,0.5242,0.507,0.5214,0.5298,0.5043,0.5214,0.5409,0.5437,0.5629,0.5954,-3.0827,-2.9922,-2.9922,-2.9538,-2.8957,-2.852,-2.7479,-2.5944,-2.4529,-2.3524,-2.2858,-2.2586,-2.243,-2.2317,-2.1781,-2.1526,-2.1469,-2.1157,-2.0829,-2.0501,-2.023,-1.9915,-1.9599,-1.901,-1.859,-1.8246,-1.7715,-1.7159,-1.6695,-1.6253,-1.5734,-1.5217,-1.4674,-1.4193,-1.3697,-1.3666,-1.3329,-1.2696,-1.2199,-1.1583,-1.0847,-1.045,-1.0197,-1.0139,-0.9631,-0.9321,-0.9222,-0.8493,-0.8135,-0.8167,-0.7231,-0.6695,-0.6669,-0.6075,-0.5592,-0.5362,-0.5381,-0.5253,-0.4882,-0.459,-0.4167,-0.3636,-0.3465,-0.2972,-0.1937,-0.1821,-0.1831,-0.1825,-0.1593,-0.1397,-0.1341,-0.1035,-0.0718,-0.0408,-0.0346,-0.0201,0.023,0.066,0.0999,0.1104,0.1545,0.1853,0.1885,0.1939,0.1995,0.1996,0.2298,0.253,0.2869,0.332,0.3617,0.3551,0.3604,0.3638,0.3487,0.3558,0.3619,0.3589,0.3757,0.3896,0.398,0.4428,0.4791,0.4903,0.5186,0.5354,0.5298,0.5354,0.5354,0.5298,0.5354,0.5409,0.5409,0.5601,0.574,-3.102,-3.0273,-2.9987,-2.9538,-2.8957,-2.8553,-2.7813,-2.6661,-2.5491,-2.447,-2.3607,-2.3462,-2.3318,-2.3086,-2.2679,-2.2359,-2.2213,-2.1729,-2.1293,-2.0959,-2.0513,-2.0126,-1.9793,-1.9345,-1.9098,-1.8939,-1.8519,-1.808,-1.7588,-1.6978,-1.622,-1.5411,-1.4569,-1.3963,-1.3723,-1.3693,-1.3384,-1.2715,-1.2421,-1.19,-1.1203,-1.078,-1.0561,-1.0561,-1.0054,-0.9667,-0.9454,-0.8955,-0.8533,-0.8262,-0.7725,-0.7404,-0.7266,-0.6948,-0.657,-0.6156,-0.6118,-0.5918,-0.5412,-0.4915,-0.4393,-0.3815,-0.3757,-0.3537,-0.3038,-0.2782,-0.2599,-0.2498,-0.2355,-0.209,-0.1768,-0.1551,-0.1198,-0.0559,-0.0497,-0.0322,0.0147,0.0439,0.0787,0.1108,0.1391,0.1643,0.1844,0.1829,0.1792,0.1821,0.2091,0.2402,0.2761,0.3189,0.3388,0.3198,0.3431,0.3535,0.3406,0.3534,0.3621,0.3622,0.3701,0.3841,0.398,0.4428,0.4707,0.4903,0.5186,0.5382,0.5409,0.5409,0.5409,0.5409,0.5409,0.5409,0.5437,0.5521,0.5633,-3.1408,-3.0811,-3.0273,-2.9661,-2.8986,-2.8693,-2.8194,-2.7523,-2.6549,-2.5549,-2.4588,-2.4252,-2.3966,-2.37,-2.3271,-2.2974,-2.2706,-2.2112,-2.1641,-2.1274,-2.0812,-2.0351,-1.9918,-1.9699,-1.9542,-1.9401,-1.9142,-1.8823,-1.8444,-1.7613,-1.6614,-1.5502,-1.4431,-1.3833,-1.3693,-1.3693,-1.3414,-1.2835,-1.2643,-1.2217,-1.1587,-1.1214,-1.1033,-1.0996,-1.0528,-1.0128,-0.9866,-0.9511,-0.9068,-0.8575,-0.8288,-0.802,-0.7838,-0.7698,-0.7375,-0.6823,-0.6754,-0.6405,-0.5617,-0.5009,-0.4451,-0.3876,-0.382,-0.3845,-0.3867,-0.3627,-0.3361,-0.3153,-0.3068,-0.2769,-0.2265,-0.2047,-0.169,-0.0952,-0.0831,-0.0654,-0.012,0.0119,0.0415,0.0958,0.1187,0.1384,0.1617,0.1719,0.1739,0.1832,0.2035,0.2341,0.2666,0.2998,0.3061,0.3065,0.3361,0.3592,0.3313,0.3488,0.3668,0.3619,0.3695,0.383,0.4018,0.4313,0.4648,0.4903,0.5186,0.5382,0.5409,0.5409,0.5409,0.5409,0.5409,0.5409,0.5409,0.5409,0.5549,-3.2227,-3.1523,-3.0811,-2.9953,-2.9053,-2.8968,-2.8545,-2.7919,-2.7194,-2.6544,-2.5778,-2.4638,-2.4129,-2.3966,-2.339,-2.3094,-2.3034,-2.2438,-2.1976,-2.1692,-2.1603,-2.1105,-2.0321,-2.0233,-1.992,-1.947,-1.9356,-1.9209,-1.8846,-1.8148,-1.692,-1.5313,-1.4719,-1.4222,-1.3783,-1.3723,-1.3504,-1.3144,-1.2856,-1.2406,-1.1812,-1.1736,-1.1727,-1.1697,-1.1468,-1.1328,-1.1173,-1.0587,-1.02,-1.0178,-0.9075,-0.8506,-0.8521,-0.8034,-0.7522,-0.7199,-0.7266,-0.6736,-0.547,-0.4923,-0.4476,-0.3965,-0.3883,-0.3875,-0.3901,-0.3873,-0.384,-0.3743,-0.3561,-0.3279,-0.2946,-0.2578,-0.2208,-0.1803,-0.1728,-0.1627,-0.1207,-0.0723,-0.027,0.0089,0.0622,0.0972,0.1034,0.1267,0.1566,0.1791,0.1911,0.2102,0.2433,0.281,0.309,0.3288,0.3588,0.3709,0.3635,0.3719,0.3757,0.3713,0.3899,0.3996,0.4133,0.4473,0.4875,0.4925,0.5158,0.5382,0.5409,0.5409,0.5409,0.5409,0.5409,0.5409,0.5409,0.5409,0.5549,-3.2374,-3.1611,-3.0917,-2.9991,-2.9071,-2.8975,-2.8874,-2.8528,-2.787,-2.7237,-2.6567,-2.5663,-2.5067,-2.4644,-2.4007,-2.3688,-2.3627,-2.2839,-2.2372,-2.2191,-2.1881,-2.1484,-2.1131,-2.0713,-2.0405,-2.0148,-1.9969,-1.9731,-1.9283,-1.8371,-1.7174,-1.5967,-1.5204,-1.457,-1.4002,-1.3803,-1.3534,-1.3204,-1.3054,-1.2694,-1.21,-1.1897,-1.1806,-1.1798,-1.1733,-1.1483,-1.1108,-1.077,-1.0442,-1.0111,-0.9553,-0.9307,-0.9336,-0.9064,-0.8612,-0.7953,-0.7205,-0.6482,-0.5707,-0.5131,-0.4643,-0.4215,-0.4004,-0.3893,-0.3918,-0.392,-0.392,-0.3889,-0.3794,-0.3548,-0.3083,-0.2852,-0.2574,-0.2127,-0.1964,-0.1835,-0.1499,-0.1254,-0.0915,-0.0364,0.0091,0.0454,0.0666,0.0901,0.1229,0.1567,0.1751,0.2005,0.2213,0.2741,0.3108,0.3194,0.3505,0.3798,0.3781,0.3812,0.3817,0.384,0.4021,0.4206,0.4271,0.4654,0.5006,0.5002,0.5221,0.539,0.5409,0.5409,0.5409,0.5409,0.5409,0.5409,0.5409,0.5409,0.5465,-3.2638,-3.2042,-3.1176,-3.0141,-2.917,-2.906,-2.8975,-2.8856,-2.811,-2.7448,-2.6965,-2.6175,-2.5564,-2.5042,-2.4394,-2.4115,-2.3977,-2.3149,-2.2724,-2.2694,-2.2262,-2.1981,-2.1818,-2.1259,-2.0884,-2.0665,-2.0335,-2.0076,-1.9724,-1.887,-1.7843,-1.6869,-1.5932,-1.5136,-1.4509,-1.4058,-1.3658,-1.3437,-1.3271,-1.2934,-1.2393,-1.207,-1.1867,-1.1806,-1.1806,-1.1557,-1.1095,-1.0914,-1.0573,-1.0095,-0.9913,-0.9792,-0.9792,-0.9792,-0.9427,-0.8574,-0.7444,-0.6618,-0.6188,-0.5456,-0.4902,-0.4561,-0.4164,-0.392,-0.392,-0.392,-0.392,-0.392,-0.392,-0.364,-0.3114,-0.2991,-0.2716,-0.2131,-0.2008,-0.1853,-0.1543,-0.1483,-0.1266,-0.071,-0.0431,-0.0093,0.0277,0.0611,0.0942,0.1246,0.1671,0.2009,0.2184,0.2783,0.3249,0.3184,0.358,0.3771,0.3812,0.3875,0.388,0.3907,0.4086,0.4313,0.4418,0.4857,0.518,0.5211,0.5362,0.5406,0.5414,0.5409,0.5409,0.5409,0.5409,0.5409,0.5409,0.5409,0.5409,-3.3347,-3.3066,-3.1753,-3.0515,-2.9556,-2.917,-2.8975,-2.8934,-2.7659,-2.7056,-2.6844,-2.5747,-2.5134,-2.5072,-2.4425,-2.4115,-2.4007,-2.3387,-2.3062,-2.3047,-2.3001,-2.2701,-2.2164,-2.1812,-2.1335,-2.0838,-2.0503,-2.0142,-1.9837,-1.972,-1.9041,-1.773,-1.7022,-1.6207,-1.5247,-1.444,-1.3996,-1.3885,-1.3523,-1.3042,-1.2702,-1.2371,-1.2087,-1.1869,-1.1815,-1.1792,-1.1663,-1.1133,-1.0793,-1.0732,-1.0126,-0.9822,-0.9792,-0.9792,-0.9488,-0.8885,-0.8208,-0.7531,-0.6827,-0.5916,-0.5244,-0.4868,-0.4324,-0.3923,-0.3897,-0.3892,-0.392,-0.392,-0.392,-0.364,-0.3121,-0.3001,-0.2719,-0.2131,-0.2009,-0.1855,-0.1544,-0.1544,-0.1359,-0.1081,-0.0957,-0.0617,-0.0062,0.0308,0.0616,0.1016,0.1571,0.2002,0.2248,0.271,0.32,0.3507,0.3628,0.3618,0.3847,0.3894,0.3902,0.3938,0.412,0.4375,0.4654,0.4932,0.5184,0.5401,0.5447,0.5459,0.5406,0.5409,0.5409,0.5409,0.5409,0.5409,0.5409,0.5409,0.5409,-3.301,-3.2306,-3.1268,-3.0347,-2.9574,-2.917,-2.8975,-2.8916,-2.805,-2.7388,-2.6904,-2.6114,-2.5502,-2.5072,-2.4641,-2.4301,-2.4084,-2.3604,-2.3324,-2.3137,-2.3106,-2.2985,-2.2773,-2.2448,-2.2049,-2.161,-2.1255,-2.0833,-2.0333,-2.0315,-1.9637,-1.8522,-1.7937,-1.7015,-1.5784,-1.5102,-1.4628,-1.4225,-1.3995,-1.3649,-1.3137,-1.296,-1.2659,-1.214,-1.1996,-1.1903,-1.1798,-1.1441,-1.1072,-1.0703,-1.0334,-1.0035,-0.9822,-0.9609,-0.9305,-0.8885,-0.8269,-0.7719,-0.7179,-0.6306,-0.5652,-0.5282,-0.4724,-0.4224,-0.3997,-0.3911,-0.392,-0.392,-0.392,-0.3715,-0.3405,-0.313,-0.2744,-0.2137,-0.1992,-0.1963,-0.1857,-0.1822,-0.1791,-0.1637,-0.1483,-0.105,-0.0525,-0.0216,0.0062,0.0617,0.108,0.1389,0.1666,0.2344,0.2991,0.3083,0.3425,0.3789,0.3865,0.3901,0.3909,0.3991,0.4127,0.4304,0.4576,0.4913,0.5197,0.5328,0.5428,0.5476,0.5415,0.5394,0.539,0.5409,0.5409,0.5409,0.5409,0.5409,0.5409,-3.2928,-3.2092,-3.1157,-3.0482,-2.9922,-2.9255,-2.8975,-2.8916,-2.8289,-2.7629,-2.6965,-2.6358,-2.5747,-2.5134,-2.4857,-2.4518,-2.4115,-2.3759,-2.3417,-2.3137,-2.3106,-2.3106,-2.3043,-2.2762,-2.2418,-2.2073,-2.1646,-2.1204,-2.0792,-2.0761,-2.0195,-1.921,-1.8743,-1.7702,-1.6349,-1.571,-1.5104,-1.4537,-1.4314,-1.3963,-1.3389,-1.3295,-1.3024,-1.2488,-1.2264,-1.2105,-1.1988,-1.1619,-1.1246,-1.0791,-1.0405,-1.0083,-0.9798,-0.9579,-0.9305,-0.8915,-0.8529,-0.8055,-0.7609,-0.6853,-0.6341,-0.606,-0.527,-0.4636,-0.4408,-0.4105,-0.395,-0.3947,-0.3916,-0.381,-0.3532,-0.3213,-0.2826,-0.2281,-0.2092,-0.2028,-0.201,-0.2008,-0.2008,-0.1915,-0.1668,-0.1297,-0.0895,-0.0617,-0.0278,0.0154,0.0617,0.0988,0.1173,0.1789,0.2621,0.2652,0.3053,0.3486,0.3756,0.3915,0.392,0.3971,0.3999,0.4189,0.4432,0.4814,0.5075,0.5219,0.5351,0.5388,0.5423,0.5394,0.5398,0.5418,0.5409,0.5409,0.5409,0.5409,0.5409,-3.3197,-3.2714,-3.1667,-3.0987,-3.0506,-2.9511,-2.9012,-2.8977,-2.8343,-2.7747,-2.7223,-2.6485,-2.5892,-2.5321,-2.5199,-2.4765,-2.4161,-2.382,-2.3448,-2.3106,-2.3106,-2.3106,-2.3074,-2.2793,-2.2463,-2.2073,-2.1425,-2.1109,-2.1046,-2.1014,-2.0684,-2.0062,-1.9399,-1.8425,-1.7012,-1.6222,-1.5395,-1.4824,-1.449,-1.4009,-1.3407,-1.3348,-1.3118,-1.2644,-1.258,-1.2483,-1.2313,-1.1719,-1.1327,-1.106,-1.0449,-0.9971,-0.9849,-0.9819,-0.9538,-0.9075,-0.8952,-0.8707,-0.8162,-0.7563,-0.7207,-0.6951,-0.5957,-0.5187,-0.4984,-0.4414,-0.3993,-0.3993,-0.3965,-0.3878,-0.3585,-0.3293,-0.2984,-0.26,-0.2228,-0.2028,-0.2015,-0.2009,-0.2008,-0.1977,-0.1761,-0.1514,-0.1359,-0.0926,-0.0494,-0.0278,0.0309,0.0864,0.0864,0.1326,0.1911,0.256,0.2837,0.3053,0.3517,0.392,0.392,0.3918,0.3918,0.401,0.4225,0.4532,0.4787,0.4965,0.523,0.5305,0.5352,0.5358,0.5439,0.5426,0.5438,0.5422,0.5409,0.5409,0.5409,-3.3197,-3.2822,-3.1972,-3.1433,-3.0978,-2.9879,-2.9574,-2.9703,-2.8826,-2.8447,-2.8288,-2.7359,-2.6716,-2.6368,-2.5799,-2.5094,-2.4436,-2.4113,-2.3635,-2.3183,-2.3106,-2.3106,-2.3074,-2.2981,-2.2637,-2.2073,-2.1425,-2.1109,-2.1109,-2.1109,-2.0856,-2.0425,-2.0011,-1.92,-1.8066,-1.7119,-1.626,-1.5604,-1.4996,-1.4419,-1.3796,-1.3723,-1.3401,-1.2808,-1.2751,-1.2686,-1.2637,-1.2355,-1.1946,-1.1462,-1.1009,-1.0471,-0.9982,-1.0019,-0.9893,-0.9454,-0.9274,-0.9032,-0.8606,-0.806,-0.7577,-0.7187,-0.6272,-0.5555,-0.5216,-0.4511,-0.4044,-0.4007,-0.4004,-0.3954,-0.3872,-0.3643,-0.3204,-0.2662,-0.2285,-0.2074,-0.2005,-0.2019,-0.2009,-0.2008,-0.1915,-0.1761,-0.1483,-0.1081,-0.0772,-0.0525,0.0,0.0309,0.0401,0.0802,0.1265,0.1849,0.2159,0.2652,0.3207,0.3609,0.3733,0.3825,0.392,0.392,0.4071,0.4223,0.4481,0.472,0.502,0.5219,0.5274,0.5336,0.5422,0.5484,0.548,0.5447,0.5426,0.5418,0.5402,-3.3292,-3.3,-3.2168,-3.1684,-3.1358,-3.0291,-2.9947,-3.0087,-2.9498,-2.9225,-2.8967,-2.8043,-2.7442,-2.7044,-2.6231,-2.5423,-2.4793,-2.4421,-2.3986,-2.3486,-2.3181,-2.3106,-2.3074,-2.295,-2.2637,-2.2104,-2.1551,-2.1235,-2.1109,-2.1077,-2.0951,-2.057,-2.0265,-1.9584,-1.8644,-1.7808,-1.6936,-1.6071,-1.5551,-1.4866,-1.4104,-1.3875,-1.3547,-1.2931,-1.2799,-1.2799,-1.2791,-1.2718,-1.2337,-1.1662,-1.1111,-1.053,-1.005,-1.0175,-1.0109,-0.9747,-0.9436,-0.9202,-0.886,-0.841,-0.8081,-0.7652,-0.6922,-0.6295,-0.5847,-0.5059,-0.4491,-0.4328,-0.417,-0.4085,-0.4088,-0.3856,-0.3406,-0.2882,-0.2532,-0.2216,-0.2072,-0.2019,-0.2016,-0.2019,-0.2016,-0.1889,-0.1678,-0.1392,-0.105,-0.071,-0.0401,-0.0093,0.0031,0.037,0.0771,0.1172,0.1542,0.2159,0.2929,0.3271,0.3486,0.3702,0.392,0.392,0.3979,0.4071,0.4214,0.4474,0.4754,0.5067,0.5163,0.5298,0.5366,0.5433,0.5524,0.5516,0.548,0.5447,0.5443,-3.3386,-3.3265,-3.2269,-3.1834,-3.1703,-3.0667,-3.0277,-3.0296,-3.0209,-2.9904,-2.9346,-2.861,-2.7957,-2.7303,-2.6632,-2.5849,-2.5202,-2.4792,-2.4413,-2.4004,-2.3541,-2.3223,-2.3089,-2.2851,-2.252,-2.2087,-2.1768,-2.1452,-2.1109,-2.1077,-2.0951,-2.0583,-2.0234,-1.9647,-1.8804,-1.8226,-1.7346,-1.634,-1.6027,-1.5257,-1.4065,-1.3908,-1.3588,-1.2898,-1.2807,-1.2799,-1.2799,-1.2717,-1.2375,-1.1603,-1.0891,-1.0463,-1.0308,-1.029,-1.0196,-0.9882,-0.958,-0.929,-0.8999,-0.8673,-0.8501,-0.8402,-0.7764,-0.7383,-0.6818,-0.5814,-0.504,-0.4785,-0.4428,-0.4169,-0.4144,-0.3988,-0.3646,-0.3199,-0.2726,-0.2342,-0.2084,-0.2013,-0.2016,-0.2001,-0.2026,-0.1988,-0.1885,-0.1621,-0.1303,-0.0929,-0.0588,-0.034,0.0,0.0,0.0,0.0679,0.108,0.1666,0.2406,0.2714,0.2929,0.324,0.3579,0.3794,0.3887,0.401,0.4007,0.427,0.4506,0.482,0.5067,0.5186,0.5312,0.5428,0.5485,0.554,0.5442,0.532,0.5252,-3.3386,-3.3304,-3.2575,-3.2251,-3.2099,-3.1093,-3.0791,-3.1011,-3.0736,-3.0678,-3.0483,-2.9543,-2.8844,-2.8584,-2.7182,-2.6307,-2.581,-2.5253,-2.4793,-2.4424,-2.4042,-2.3562,-2.3189,-2.3007,-2.2631,-2.2128,-2.1969,-2.1674,-2.1122,-2.1109,-2.0919,-2.057,-2.0265,-1.9871,-1.9316,-1.8451,-1.7694,-1.6954,-1.6273,-1.5541,-1.459,-1.4077,-1.3687,-1.3301,-1.2939,-1.2799,-1.2774,-1.2576,-1.2194,-1.165,-1.1228,-1.0753,-1.0369,-1.0473,-1.0469,-1.0279,-0.9881,-0.9606,-0.9413,-0.8933,-0.8617,-0.8551,-0.7984,-0.745,-0.7345,-0.6101,-0.5372,-0.5073,-0.461,-0.4202,-0.415,-0.4146,-0.3829,-0.3173,-0.2617,-0.2239,-0.2095,-0.2034,-0.2012,-0.2019,-0.2001,-0.1918,-0.1734,-0.1543,-0.1287,-0.0846,-0.0561,0.0,0.0,0.0,0.0218,0.0402,0.0772,0.1296,0.1757,0.2065,0.2373,0.2714,0.3114,0.3576,0.3794,0.4071,0.4007,0.4024,0.4285,0.4552,0.4811,0.5007,0.5177,0.5417,0.5286,0.5234,0.5009,0.4846,0.484,-3.3323,-3.3133,-3.2613,-3.2326,-3.2115,-3.1362,-3.1208,-3.1336,-3.1157,-3.0966,-3.0696,-2.9789,-2.9135,-2.8757,-2.7506,-2.6639,-2.6121,-2.5591,-2.5123,-2.4782,-2.4473,-2.3957,-2.3469,-2.3307,-2.2889,-2.2146,-2.211,-2.1733,-2.1186,-2.1109,-2.0887,-2.0602,-2.0265,-1.9947,-1.9552,-1.888,-1.8041,-1.7368,-1.6735,-1.6028,-1.4901,-1.4303,-1.3892,-1.3493,-1.3087,-1.2799,-1.2774,-1.2609,-1.2258,-1.177,-1.1388,-1.0965,-1.054,-1.0616,-1.0677,-1.0562,-1.0016,-0.9694,-0.9561,-0.9023,-0.8623,-0.8551,-0.8151,-0.7751,-0.724,-0.6299,-0.5712,-0.5082,-0.4552,-0.427,-0.4191,-0.4134,-0.3768,-0.3202,-0.2646,-0.2235,-0.2082,-0.2014,-0.2011,-0.2023,-0.2035,-0.198,-0.1763,-0.1598,-0.1339,-0.1019,-0.0697,-0.0474,0.0,-0.0094,0.0063,0.025,0.0373,0.0777,0.1145,0.1451,0.1851,0.219,0.2498,0.3022,0.3545,0.3887,0.4041,0.4007,0.413,0.4318,0.4656,0.4964,0.5215,0.5297,0.5111,0.5015,0.4882,0.4562,0.4555,-3.3197,-3.2867,-3.2549,-3.2198,-3.1878,-3.1538,-3.1391,-3.141,-3.1373,-3.0972,-3.0328,-2.9611,-2.8988,-2.8263,-2.7551,-2.6827,-2.6182,-2.5819,-2.5423,-2.5077,-2.4735,-2.4324,-2.3823,-2.3761,-2.3217,-2.2451,-2.2244,-2.1846,-2.1388,-2.1189,-2.0914,-2.0552,-2.0202,-1.9883,-1.9544,-1.9205,-1.852,-1.762,-1.7332,-1.655,-1.5406,-1.4677,-1.4191,-1.3745,-1.3104,-1.2807,-1.2799,-1.2733,-1.2462,-1.181,-1.1446,-1.1101,-1.0803,-1.0717,-1.0717,-1.0611,-1.0147,-0.9794,-0.9661,-0.9156,-0.8684,-0.8651,-0.8617,-0.8256,-0.7417,-0.674,-0.5967,-0.5295,-0.4607,-0.4294,-0.4155,-0.3959,-0.3572,-0.3123,-0.2744,-0.2436,-0.2139,-0.2026,-0.2045,-0.2094,-0.211,-0.2086,-0.1961,-0.1794,-0.1519,-0.1195,-0.0932,-0.0767,-0.0511,-0.0287,-0.0127,0.0063,0.0126,0.0188,0.053,0.0835,0.1296,0.1696,0.1912,0.2375,0.3053,0.3453,0.3853,0.4038,0.3976,0.4256,0.4749,0.5025,0.5145,0.5107,0.4841,0.4997,0.5083,0.4584,0.4397,-3.3197,-3.2899,-3.2549,-3.2198,-3.1878,-3.1538,-3.141,-3.141,-3.141,-3.0958,-3.0263,-2.9561,-2.8922,-2.8229,-2.7533,-2.6937,-2.6493,-2.6093,-2.5704,-2.5118,-2.505,-2.4778,-2.4441,-2.4368,-2.3767,-2.3065,-2.307,-2.2557,-2.177,-2.1411,-2.1048,-2.0349,-2.0227,-1.9832,-1.9357,-1.939,-1.8961,-1.8139,-1.7748,-1.7089,-1.6059,-1.5165,-1.4542,-1.4031,-1.3228,-1.2815,-1.2799,-1.2799,-1.247,-1.1942,-1.1677,-1.1347,-1.085,-1.0717,-1.0717,-1.0618,-1.0326,-1.0093,-0.9954,-0.9422,-0.8984,-0.8917,-0.8717,-0.8518,-0.8256,-0.7087,-0.6418,-0.5848,-0.501,-0.4305,-0.3998,-0.379,-0.3426,-0.2975,-0.2693,-0.2477,-0.2181,-0.2068,-0.2098,-0.2109,-0.2093,-0.2004,-0.178,-0.191,-0.1705,-0.1375,-0.1173,-0.1067,-0.0809,-0.0519,-0.0291,-0.0129,0.0032,0.0095,0.0282,0.0528,0.0772,0.108,0.1296,0.1573,0.2251,0.2743,0.3022,0.3391,0.373,0.4164,0.4718,0.4595,0.4595,0.4564,0.4656,0.4698,0.4703,0.437,0.4292,-3.3102,-3.2645,-3.2485,-3.2134,-3.1685,-3.1474,-3.141,-3.141,-3.141,-3.0797,-2.992,-2.9447,-2.8757,-2.7799,-2.7367,-2.6934,-2.6365,-2.5861,-2.5457,-2.5119,-2.5086,-2.4998,-2.488,-2.4711,-2.4237,-2.3238,-2.3168,-2.2649,-2.2013,-2.175,-2.1456,-2.0773,-2.0585,-2.0266,-1.974,-1.969,-1.9097,-1.8282,-1.7918,-1.7341,-1.6326,-1.5465,-1.4576,-1.3895,-1.3186,-1.2799,-1.2799,-1.2799,-1.2437,-1.2015,-1.1784,-1.1446,-1.085,-1.0717,-1.0717,-1.0651,-1.0392,-1.0226,-1.0027,-0.9549,-0.9084,-0.9084,-0.8784,-0.8418,-0.8117,-0.7283,-0.6619,-0.5982,-0.5245,-0.4641,-0.4101,-0.3799,-0.3408,-0.3015,-0.2745,-0.2512,-0.2221,-0.2136,-0.2125,-0.2136,-0.2156,-0.2095,-0.2031,-0.1994,-0.1962,-0.1694,-0.1262,-0.1122,-0.1157,-0.086,-0.0493,-0.0294,-0.0097,0.0064,0.0158,0.0281,0.0309,0.0463,0.0556,0.0803,0.1234,0.1666,0.2036,0.2714,0.3545,0.4099,0.4533,0.4318,0.441,0.4902,0.5025,0.4656,0.4401,0.4407,0.4398,-3.3007,-3.2422,-3.2422,-3.2019,-3.1442,-3.141,-3.141,-3.141,-3.141,-3.0635,-2.9513,-2.9299,-2.856,-2.7434,-2.7134,-2.67,-2.6029,-2.5457,-2.5119,-2.5086,-2.51,-2.5071,-2.5042,-2.4916,-2.4453,-2.3229,-2.3266,-2.2814,-2.2283,-2.2044,-2.1793,-2.145,-2.104,-2.0613,-2.0331,-2.0063,-1.9453,-1.8492,-1.8157,-1.7562,-1.6516,-1.5596,-1.4676,-1.378,-1.3137,-1.2872,-1.2856,-1.2765,-1.2477,-1.1883,-1.1817,-1.1413,-1.0916,-1.0717,-1.0651,-1.0618,-1.0326,-1.0226,-1.006,-0.9555,-0.9117,-0.9117,-0.8817,-0.8384,-0.7884,-0.755,-0.6949,-0.6213,-0.5547,-0.4977,-0.4339,-0.3957,-0.3591,-0.3159,-0.2825,-0.2559,-0.2284,-0.2131,-0.2163,-0.2175,-0.2178,-0.2144,-0.208,-0.2047,-0.205,-0.1987,-0.1548,-0.1245,-0.1279,-0.1176,-0.0833,-0.0463,-0.0261,-0.0064,0.0063,0.0,0.0,0.0,0.0,0.0,0.0,0.0771,0.1388,0.2681,0.3512,0.3946,0.4284,0.4349,0.4656,0.5333,0.5118,0.4441,0.4349,0.4499,0.4432,-3.3026,-3.2422,-3.2422,-3.2019,-3.1442,-3.141,-3.141,-3.141,-3.141,-3.0602,-2.9447,-2.9266,-2.8527,-2.7434,-2.69,-2.6365,-2.576,-2.5303,-2.51,-2.51,-2.51,-2.51,-2.51,-2.5052,-2.4593,-2.4057,-2.3742,-2.3246,-2.2526,-2.2305,-2.2091,-2.1574,-2.115,-2.0784,-2.0571,-2.0242,-1.9823,-1.8878,-1.8482,-1.7798,-1.6932,-1.5896,-1.4936,-1.3985,-1.3335,-1.3027,-1.2994,-1.2839,-1.2477,-1.1883,-1.1817,-1.1387,-1.0883,-1.0717,-1.0585,-1.0392,-1.0259,-1.0193,-1.0093,-0.9522,-0.9356,-0.9356,-0.8989,-0.8656,-0.8284,-0.7884,-0.7383,-0.6849,-0.5915,-0.501,-0.4003,-0.3869,-0.3465,-0.3028,-0.2727,-0.2559,-0.2289,-0.2182,-0.2178,-0.2188,-0.2189,-0.2189,-0.2122,-0.2088,-0.2122,-0.2122,-0.1953,-0.1649,-0.1582,-0.1447,-0.1175,-0.0801,-0.0464,-0.0227,-0.0032,0.0,0.0,0.0,0.0,0.0,0.0,0.0,0.0802,0.2097,0.2927,0.3358,0.3699,0.4133,0.4444,0.481,0.4502,0.4102,0.4287,0.4407,0.4349,-3.2848,-3.239,-3.2198,-3.1878,-3.1442,-3.141,-3.141,-3.141,-3.1377,-3.07,-2.9789,-2.9332,-2.8609,-2.7584,-2.6885,-2.6298,-2.5659,-2.5269,-2.5086,-2.51,-2.51,-2.51,-2.51,-2.51,-2.4645,-2.419,-2.3938,-2.3556,-2.2727,-2.2679,-2.245,-2.2195,-2.167,-2.1264,-2.1052,-2.0686,-2.0013,-1.9254,-1.8626,-1.7921,-1.6961,-1.5838,-1.4797,-1.3993,-1.3417,-1.3059,-1.2921,-1.2872,-1.2477,-1.1942,-1.1817,-1.1387,-1.0949,-1.0684,-1.0625,-1.0452,-1.0293,-1.0193,-1.0093,-0.9555,-0.9217,-0.9289,-0.8889,-0.8623,-0.8556,-0.8251,-0.7817,-0.7116,-0.6213,-0.5111,-0.4437,-0.4003,-0.3533,-0.3096,-0.2795,-0.2559,-0.2324,-0.2223,-0.2189,-0.2189,-0.2189,-0.2189,-0.2189,-0.2189,-0.2189,-0.2189,-0.2189,-0.2021,-0.1851,-0.1582,-0.1279,-0.0905,0.0,0.0,0.0,0.0,0.0,0.0,0.0,0.0,0.0,0.0,0.0525,0.145,0.2128,0.2714,0.3451,0.3976,0.4133,0.4225,0.4102,0.401,0.4223,0.4315,0.4256,-3.2708,-3.2358,-3.2038,-3.1717,-3.1442,-3.141,-3.141,-3.141,-3.141,-3.0732,-2.9757,-2.9364,-2.8675,-2.765,-2.6851,-2.6164,-2.5539,-2.5187,-2.5086,-2.51,-2.51,-2.51,-2.51,-2.495,-2.4611,-2.4102,-2.3816,-2.3557,-2.2969,-2.2853,-2.2846,-2.2485,-2.2044,-2.1738,-2.1459,-2.0916,-2.0063,-1.9332,-1.8587,-1.7816,-1.6509,-1.5438,-1.4475,-1.3773,-1.3334,-1.3084,-1.2913,-1.2732,-1.2379,-1.1942,-1.1644,-1.138,-1.085,-1.0717,-1.0717,-1.0651,-1.0392,-1.0226,-0.9927,-0.9522,-0.9117,-0.915,-0.8817,-0.8651,-0.8556,-0.839,-0.8017,-0.7087,-0.615,-0.5312,-0.4739,-0.4168,-0.3734,-0.3365,-0.2961,-0.2593,-0.2391,-0.229,-0.2189,-0.2189,-0.2189,-0.2189,-0.2189,-0.2189,-0.2189,-0.2088,-0.2088,-0.1953,-0.175,-0.1515,-0.1245,-0.0839,0.0,0.0,0.0,0.0,0.0,0.0,0.0,0.0,0.0,0.0,0.0617,0.1019,0.1511,0.2159,0.2989,0.3574,0.3545,0.3579,0.3733,0.3918,0.4071,0.4164,0.4133,-3.2708,-3.239,-3.2038,-3.1717,-3.141,-3.141,-3.141,-3.141,-3.141,-3.0602,-2.9513,-2.9233,-2.8543,-2.7318,-2.6499,-2.5794,-2.5337,-2.5168,-2.51,-2.51,-2.51,-2.51,-2.5018,-2.4713,-2.4442,-2.3986,-2.3645,-2.3304,-2.2962,-2.2893,-2.2688,-2.2379,-2.2035,-2.1669,-2.1311,-2.0908,-2.0284,-1.9541,-1.8762,-1.7534,-1.6018,-1.5221,-1.4648,-1.4085,-1.3633,-1.3222,-1.2968,-1.2656,-1.218,-1.185,-1.1446,-1.1115,-1.079,-1.0717,-1.0717,-1.0625,-1.0392,-1.006,-0.9794,-0.9373,-0.9073,-0.9046,-0.8806,-0.8656,-0.8556,-0.8356,-0.7922,-0.7087,-0.6284,-0.558,-0.494,-0.4235,-0.3902,-0.3533,-0.3163,-0.2862,-0.2593,-0.2391,-0.2324,-0.2189,-0.2189,-0.2189,-0.2189,-0.2189,-0.2189,-0.2054,-0.1953,-0.1851,-0.1683,-0.1481,-0.1144,-0.0739,0.0,0.0,0.0,0.0,0.0,0.0,0.0,0.0,0.0093,0.0093,0.0185,0.0617,0.105,0.1388,0.1943,0.2373,0.2652,0.3022,0.3332,0.3609,0.3856,0.3948,0.4041,-3.2758,-3.2358,-3.1827,-3.1538,-3.141,-3.141,-3.141,-3.141,-3.1377,-3.0861,-2.997,-2.9447,-2.8329,-2.6833,-2.6197,-2.5742,-2.5202,-2.5086,-2.51,-2.51,-2.51,-2.51,-2.4984,-2.4679,-2.4326,-2.3986,-2.3611,-2.327,-2.2996,-2.2859,-2.2688,-2.231,-2.1966,-2.16,-2.1173,-2.0873,-2.0318,-1.9471,-1.8387,-1.7087,-1.5886,-1.5168,-1.4638,-1.3889,-1.3569,-1.3329,-1.3049,-1.2598,-1.2147,-1.181,-1.1413,-1.1049,-1.0811,-1.0752,-1.0786,-1.0691,-1.0471,-1.0136,-0.9752,-0.9393,-0.9148,-0.8957,-0.8822,-0.8699,-0.8578,-0.8428,-0.8066,-0.7359,-0.6819,-0.6116,-0.5312,-0.4672,-0.4205,-0.3835,-0.347,-0.3102,-0.2832,-0.2627,-0.2492,-0.2324,-0.2189,-0.219,-0.219,-0.2189,-0.2189,-0.2122,-0.2054,-0.1953,-0.175,-0.1481,-0.1077,-0.0606,0.0,0.0,0.0,0.0,0.0,0.0,0.0,0.0,0.0,0.0125,0.0186,0.0154,0.0401,0.071,0.0,0.1696,0.2436,0.2775,0.3022,0.3301,0.3579,0.3856,0.3918,-3.2863,-3.223,-3.1635,-3.141,-3.141,-3.141,-3.141,-3.141,-3.1281,-3.0847,-3.0035,-2.9119,-2.7766,-2.6532,-2.613,-2.5809,-2.5269,-2.5153,-2.5086,-2.51,-2.51,-2.51,-2.4916,-2.4645,-2.4238,-2.3966,-2.3441,-2.3133,-2.2962,-2.2825,-2.2654,-2.2207,-2.1932,-2.1531,-2.1104,-2.077,-2.0249,-1.9157,-1.8002,-1.6815,-1.5753,-1.5186,-1.4585,-1.3976,-1.3567,-1.3386,-1.3139,-1.2732,-1.2286,-1.1952,-1.1564,-1.121,-1.0947,-1.0948,-1.0962,-1.084,-1.0616,-1.0276,-0.9854,-0.9493,-0.9189,-0.8944,-0.8812,-0.8785,-0.8686,-0.8609,-0.8386,-0.7718,-0.7109,-0.6471,-0.583,-0.5191,-0.4625,-0.422,-0.3883,-0.3413,-0.3016,-0.2823,-0.2553,-0.231,-0.2207,-0.2196,-0.2195,-0.219,-0.2189,-0.2189,-0.2122,-0.2054,-0.175,-0.138,-0.101,-0.0505,0.0,0.0,0.0,0.0,0.0,0.0,0.0,0.0,0.0,0.0125,0.0124,0.0062,0.0031,0.0,0.0,0.0,0.2251,0.2344,0.2529,0.2962,0.3301,0.3609,0.3859,-3.2978,-3.191,-3.1538,-3.141,-3.141,-3.141,-3.141,-3.1281,-3.1055,-3.0343,-2.9332,-2.8048,-2.7267,-2.6633,-2.6231,-2.591,-2.5539,-2.5235,-2.5134,-2.51,-2.51,-2.5052,-2.4849,-2.4442,-2.4034,-2.385,-2.3338,-2.2996,-2.2907,-2.2893,-2.2482,-2.1932,-2.1863,-2.1346,-2.0943,-2.0596,-1.9889,-1.8843,-1.7766,-1.6744,-1.5824,-1.5212,-1.4708,-1.4184,-1.3794,-1.3504,-1.336,-1.2919,-1.2547,-1.2198,-1.1815,-1.1447,-1.1166,-1.1152,-1.1152,-1.1015,-1.0698,-1.0367,-1.0003,-0.9611,-0.9223,-0.9003,-0.8897,-0.8887,-0.8832,-0.8549,-0.8316,-0.8054,-0.7424,-0.6825,-0.6236,-0.5664,-0.5011,-0.4629,-0.4229,-0.3759,-0.3332,-0.3011,-0.27,-0.2339,-0.2191,-0.2214,-0.22,-0.2196,-0.2189,-0.2189,-0.2054,-0.1953,-0.1515,-0.1144,-0.0842,-0.0471,-0.0202,0.0,0.0,0.0,0.0,0.0,0.0,0.0,0.0,0.0,0.0,0.0124,0.0,0.0,0.0,0.0,0.0,0.0,0.2097,0.2777,0.3301,0.3671,0.3856,-3.2464,-3.1589,-3.1442,-3.141,-3.141,-3.141,-3.1152,-3.0797,-3.0847,-3.018,-2.8938,-2.7981,-2.7185,-2.67,-2.6264,-2.591,-2.5558,-2.5255,-2.5119,-2.51,-2.5086,-2.495,-2.4645,-2.4306,-2.3884,-2.3577,-2.3133,-2.2893,-2.2893,-2.2893,-2.2585,-2.2207,-2.1932,-2.1484,-2.1047,-2.0341,-1.9506,-1.8808,-1.7766,-1.6744,-1.5753,-1.5186,-1.4689,-1.4063,-1.3774,-1.3593,-1.3461,-1.3046,-1.2662,-1.231,-1.1938,-1.16,-1.1317,-1.1302,-1.1295,-1.1178,-1.0772,-1.0426,-1.018,-0.9783,-0.9404,-0.9105,-0.9022,-0.9006,-0.8957,-0.8751,-0.8551,-0.8233,-0.776,-0.7255,-0.6647,-0.6047,-0.5457,-0.5037,-0.4581,-0.407,-0.3614,-0.3223,-0.2771,-0.2335,-0.2246,-0.2193,-0.2214,-0.2201,-0.2195,-0.2189,-0.2021,-0.1818,-0.1481,-0.1111,-0.0875,-0.0572,-0.0303,-0.0067,0.0,0.0,0.0,0.0,0.0,0.0,0.0,0.0,0.0,0.0,0.0,0.0,0.0,0.0,0.0,0.0,0.1882,0.2901,0.3332,0.3671,0.3794,-3.212,-3.1428,-3.141,-3.141,-3.141,-3.141,-3.0958,-3.0458,-3.0717,-3.0115,-2.8741,-2.7948,-2.7251,-2.67,-2.6264,-2.5944,-2.5592,-2.5303,-2.5134,-2.51,-2.5052,-2.4849,-2.451,-2.4122,-2.3782,-2.3406,-2.3065,-2.2893,-2.2893,-2.2893,-2.2722,-2.2413,-2.2001,-2.16,-2.1034,-2.0133,-1.9332,-1.8808,-1.7872,-1.6744,-1.5718,-1.5186,-1.4652,-1.4022,-1.3782,-1.3706,-1.3631,-1.3383,-1.2951,-1.2587,-1.2195,-1.1797,-1.1552,-1.1375,-1.1389,-1.1164,-1.0854,-1.0499,-1.0321,-0.9859,-0.9467,-0.9218,-0.9182,-0.9103,-0.9044,-0.9017,-0.8892,-0.8658,-0.8224,-0.7752,-0.7196,-0.6661,-0.6183,-0.5791,-0.4815,-0.4237,-0.3746,-0.3323,-0.2828,-0.2363,-0.2311,-0.2229,-0.2206,-0.2191,-0.2206,-0.2197,-0.2122,-0.2021,-0.1851,-0.1481,-0.1144,-0.0808,-0.0438,-0.0236,0.0,0.0,0.0,0.0,0.0,0.0,0.0,0.0,0.0,0.0,0.0,0.0,0.0,0.0,0.0,0.0,0.1513,0.2685,0.3024,0.3332,0.3579,-3.2102,-3.1428,-3.1377,-3.1345,-3.1313,-3.1377,-3.0926,-3.023,-3.0426,-2.9887,-2.8609,-2.765,-2.7067,-2.6666,-2.6264,-2.5944,-2.5607,-2.5269,-2.51,-2.51,-2.4984,-2.4815,-2.4461,-2.4088,-2.3645,-2.3372,-2.3065,-2.2859,-2.2825,-2.2893,-2.2825,-2.2585,-2.2104,-2.1565,-2.1151,-2.0051,-1.9367,-1.8889,-1.7836,-1.6673,-1.5718,-1.515,-1.4617,-1.4074,-1.3872,-1.3847,-1.3787,-1.3637,-1.3244,-1.2747,-1.2549,-1.2158,-1.1652,-1.1558,-1.1565,-1.1494,-1.1142,-1.0953,-1.0851,-0.9873,-0.943,-0.9311,-0.9258,-0.9253,-0.9275,-0.9228,-0.9113,-0.8779,-0.8586,-0.8409,-0.7987,-0.7474,-0.6952,-0.6197,-0.5216,-0.4452,-0.3999,-0.3321,-0.2788,-0.2392,-0.2319,-0.2275,-0.221,-0.2183,-0.2191,-0.2207,-0.2193,-0.2155,-0.2054,-0.175,-0.1346,-0.0976,-0.0606,-0.0303,0.0,0.0,0.0,0.0,0.0,0.0,0.0,0.0,0.0,0.0,0.0,0.0,0.0,0.0,0.0,0.0564,0.1392,0.2282,0.2621,0.2899,0.3147,-3.1635,-3.1377,-3.0861,-3.0667,-3.0667,-3.0685,-3.0278,-2.9578,-2.8839,-2.8312,-2.8015,-2.74,-2.7,-2.6666,-2.628,-2.5925,-2.5573,-2.5269,-2.51,-2.5052,-2.4883,-2.451,-2.4156,-2.3816,-2.3441,-2.3133,-2.2893,-2.2722,-2.2482,-2.2722,-2.2688,-2.2413,-2.2001,-2.1462,-2.0735,-1.9785,-1.8982,-1.8493,-1.7474,-1.6346,-1.5363,-1.5044,-1.4652,-1.394,-1.3904,-1.3904,-1.3868,-1.3718,-1.3325,-1.286,-1.2646,-1.2187,-1.1727,-1.1584,-1.1584,-1.1512,-1.1224,-1.075,-1.0426,-0.9807,-0.959,-0.941,-0.9302,-0.9302,-0.9302,-0.9013,-0.8914,-0.8775,-0.854,-0.826,-0.7714,-0.7718,-0.7318,-0.6507,-0.5613,-0.489,-0.4248,-0.3397,-0.2752,-0.2455,-0.2307,-0.2248,-0.2221,-0.2212,-0.2223,-0.2202,-0.2224,-0.22,-0.2127,-0.182,-0.1414,-0.1077,-0.0741,-0.0404,0.0,0.0,0.0,0.0,0.0,0.0,0.0,0.0,0.0,0.0,0.0,0.0,0.0,0.0,0.0,0.0859,0.1287,0.1861,0.2352,0.2503,0.256,-3.141,-3.1313,-3.0602,-3.0296,-3.0263,-3.0068,-2.9676,-2.9086,-2.7865,-2.7467,-2.7749,-2.7412,-2.691,-2.6509,-2.6218,-2.5787,-2.5453,-2.5221,-2.51,-2.5018,-2.4679,-2.436,-2.3986,-2.3591,-2.327,-2.2996,-2.2859,-2.2688,-2.2379,-2.2551,-2.2345,-2.1966,-2.1829,-2.1393,-2.0631,-1.9785,-1.8982,-1.8387,-1.7439,-1.6567,-1.5718,-1.5159,-1.4724,-1.4261,-1.4011,-1.3904,-1.3833,-1.3611,-1.3289,-1.286,-1.251,-1.2122,-1.1799,-1.1584,-1.1584,-1.1476,-1.1368,-1.0822,-1.0347,-1.0167,-0.9879,-0.9338,-0.9302,-0.9302,-0.9266,-0.9127,-0.891,-0.8698,-0.8361,-0.8088,-0.7841,-0.795,-0.7473,-0.6689,-0.5976,-0.5245,-0.478,-0.3959,-0.3087,-0.279,-0.2319,-0.2293,-0.224,-0.2233,-0.2259,-0.2238,-0.2221,-0.2231,-0.2207,-0.1931,-0.1586,-0.1279,-0.0943,-0.064,-0.0337,0.0,0.0,0.0,0.0,0.0,0.0,0.0,0.0,0.0,0.0,0.0,0.0,0.0,0.0,0.0,0.0477,0.1165,0.1993,0.2113,0.202,-3.1377,-3.1249,-3.057,-3.023,-3.01,-2.9449,-2.9203,-2.907,-2.7799,-2.7599,-2.8212,-2.7429,-2.6855,-2.6313,-2.6136,-2.5769,-2.5294,-2.5149,-2.5086,-2.495,-2.4611,-2.4306,-2.3932,-2.3543,-2.3167,-2.2962,-2.2825,-2.2654,-2.231,-2.2173,-2.1829,-2.1518,-2.1587,-2.1185,-2.0561,-1.9866,-1.9122,-1.8387,-1.7474,-1.6603,-1.5753,-1.5266,-1.4795,-1.4332,-1.4047,-1.3904,-1.3833,-1.3753,-1.3396,-1.3039,-1.2717,-1.2295,-1.1907,-1.1619,-1.1584,-1.1584,-1.1584,-1.1109,-1.0635,-1.0491,-1.0095,-0.9518,-0.9338,-0.9302,-0.9266,-0.9163,-0.891,-0.8765,-0.8554,-0.8312,-0.8121,-0.7863,-0.7612,-0.6924,-0.6279,-0.5805,-0.5469,-0.4718,-0.3805,-0.319,-0.2583,-0.2391,-0.2276,-0.2269,-0.2252,-0.2282,-0.2263,-0.2244,-0.2219,-0.2191,-0.1873,-0.1515,-0.1212,-0.0875,-0.0572,-0.0202,0.0,0.0,0.0,0.0,0.0,0.0,0.0,0.0,0.0,0.0,0.0,0.0,0.0,0.0,0.0,0.0513,0.1365,0.1453,0.1483,-3.1087,-3.0538,-2.9872,-2.9299,-2.8824,-2.8376,-2.8189,-2.8055,-2.7428,-2.7607,-2.8189,-2.7432,-2.6969,-2.6798,-2.6332,-2.5834,-2.5467,-2.5217,-2.5115,-2.4897,-2.4519,-2.4184,-2.383,-2.342,-2.3078,-2.2928,-2.2825,-2.2585,-2.2001,-2.176,-2.1553,-2.1276,-2.1346,-2.0943,-2.0422,-1.9831,-1.9192,-1.8422,-1.751,-1.6523,-1.5753,-1.5195,-1.4697,-1.4261,-1.4011,-1.3904,-1.386,-1.3682,-1.3361,-1.3218,-1.2617,-1.2158,-1.2122,-1.1763,-1.1584,-1.1584,-1.1548,-1.1368,-1.093,-1.0642,-1.0239,-0.9735,-0.9482,-0.9338,-0.923,-0.909,-0.8874,-0.8765,-0.8693,-0.844,-0.8186,-0.7905,-0.763,-0.7136,-0.657,-0.6202,-0.5855,-0.5235,-0.432,-0.3379,-0.2808,-0.2369,-0.2293,-0.2291,-0.2276,-0.2279,-0.2271,-0.2285,-0.2258,-0.2228,-0.2095,-0.1763,-0.1414,-0.1077,-0.064,0.0,0.0,0.0,0.0,0.0,0.0,0.0,0.0,0.0,0.0,0.0,0.0,0.0,0.0,0.0,0.0,0.0,0.0583,0.0773,0.1058,-3.0958,-3.0245,-2.9578,-2.8825,-2.8126,-2.7942,-2.7961,-2.8058,-2.7757,-2.7799,-2.7909,-2.7512,-2.7104,-2.6601,-2.621,-2.58,-2.5335,-2.5315,-2.5271,-2.5101,-2.4511,-2.4299,-2.3894,-2.3372,-2.2975,-2.2893,-2.2825,-2.2619,-2.2001,-2.16,-2.1393,-2.1012,-2.1116,-2.0839,-2.0422,-2.0005,-1.9541,-1.8668,-1.765,-1.6487,-1.5753,-1.5159,-1.4617,-1.4225,-1.4011,-1.3904,-1.3868,-1.3611,-1.3503,-1.3289,-1.2689,-1.2338,-1.2194,-1.1835,-1.1619,-1.1584,-1.1584,-1.1368,-1.1008,-1.0678,-1.0311,-0.9915,-0.9554,-0.9374,-0.9266,-0.9127,-0.8946,-0.8765,-0.8693,-0.8548,-0.8259,-0.7964,-0.7675,-0.7344,-0.6946,-0.6583,-0.6079,-0.5571,-0.4662,-0.3609,-0.299,-0.2478,-0.2296,-0.2296,-0.2296,-0.2292,-0.2285,-0.2271,-0.2242,-0.2212,-0.2181,-0.1982,-0.1625,-0.1245,-0.0842,-0.0471,0.0,0.0,0.0,0.0,0.0,0.0,0.0,0.0,0.0,0.0,0.0,0.0,0.0,0.0,0.0,0.0,0.0,0.0327,0.0685,-3.0847,-3.012,-2.9483,-2.866,-2.7904,-2.8154,-2.8471,-2.8757,-2.837,-2.8085,-2.7866,-2.763,-2.713,-2.6619,-2.6175,-2.58,-2.5491,-2.5432,-2.5388,-2.5486,-2.4942,-2.4567,-2.4115,-2.3495,-2.3178,-2.2995,-2.2838,-2.2619,-2.2242,-2.176,-2.122,-2.0735,-2.0977,-2.0873,-2.0596,-2.0214,-1.9796,-1.9332,-1.8177,-1.6991,-1.6143,-1.547,-1.483,-1.4403,-1.4118,-1.3904,-1.3904,-1.3833,-1.3726,-1.3361,-1.2968,-1.2581,-1.2122,-1.1835,-1.1655,-1.1584,-1.1584,-1.144,-1.1152,-1.0822,-1.0419,-1.0023,-0.9596,-0.941,-0.9302,-0.923,-0.9054,-0.8946,-0.8874,-0.8584,-0.8259,-0.8005,-0.7715,-0.7389,-0.7027,-0.6809,-0.6555,-0.5934,-0.5065,-0.4083,-0.3281,-0.277,-0.2296,-0.2296,-0.2296,-0.2296,-0.2293,-0.2283,-0.2265,-0.2234,-0.2166,-0.2101,-0.1776,-0.1456,-0.1279,-0.0943,-0.0606,0.0,-0.0236,0.0,0.0,0.0,0.0,0.0,0.0,0.0,0.0,0.0,0.0,0.0,0.0,0.0,0.0,0.0,0.0463,-3.016,-2.9495,-2.8753,-2.8461,-2.8538,-2.8599,-2.8872,-2.9119,-2.8754,-2.8482,-2.8355,-2.786,-2.7438,-2.7021,-2.6281,-2.5842,-2.5769,-2.5564,-2.5388,-2.5387,-2.5117,-2.4805,-2.4407,-2.3852,-2.3444,-2.3196,-2.2964,-2.2585,-2.2035,-2.1565,-2.1185,-2.0735,-2.0839,-2.077,-2.07,-2.0318,-2.004,-1.9866,-1.8819,-1.7545,-1.6478,-1.5744,-1.5106,-1.4403,-1.3904,-1.3904,-1.3904,-1.3868,-1.3833,-1.3682,-1.3111,-1.2474,-1.1799,-1.1655,-1.1619,-1.1584,-1.159,-1.1525,-1.1296,-1.0966,-1.0642,-1.0311,-0.9951,-0.9627,-0.941,-0.9338,-0.9266,-0.9193,-0.9013,-0.8657,-0.8295,-0.8078,-0.7788,-0.7425,-0.7063,-0.7027,-0.699,-0.6228,-0.5392,-0.4556,-0.3682,-0.3025,-0.2515,-0.2296,-0.2296,-0.2296,-0.2296,-0.2291,-0.2283,-0.2259,-0.2187,-0.2087,-0.1894,-0.164,-0.1525,-0.1349,-0.1013,-0.0674,-0.0471,-0.0269,-0.0067,0.0,0.0,0.0,0.0,0.0,0.0,0.0,0.0,0.0,0.0,0.0,0.0,0.0,0.0,-2.9732,-2.8827,-2.8243,-2.8297,-2.8745,-2.8809,-2.9,-2.9147,-2.873,-2.8459,-2.8352,-2.7839,-2.7419,-2.7131,-2.6293,-2.5915,-2.5857,-2.5763,-2.5593,-2.546,-2.5421,-2.503,-2.461,-2.4143,-2.3534,-2.3203,-2.2979,-2.2564,-2.1889,-2.1634,-2.1323,-2.0816,-2.0712,-2.0712,-2.0678,-2.0469,-2.0377,-2.0318,-1.9366,-1.8304,-1.7026,-1.6169,-1.507,-1.4252,-1.3904,-1.3904,-1.3904,-1.3904,-1.3904,-1.3682,-1.3182,-1.2438,-1.1856,-1.1687,-1.1674,-1.1624,-1.1631,-1.1579,-1.1358,-1.1129,-1.0768,-1.0366,-1.0101,-0.9704,-0.9374,-0.9302,-0.9302,-0.923,-0.923,-0.8941,-0.8512,-0.8222,-0.7897,-0.7534,-0.7208,-0.699,-0.6773,-0.6264,-0.5501,-0.4701,-0.3864,-0.3099,-0.2625,-0.2296,-0.2296,-0.2296,-0.2296,-0.2296,-0.2289,-0.2248,-0.2175,-0.2044,-0.1852,-0.1726,-0.1572,-0.1497,-0.1357,-0.1049,-0.0708,-0.037,0.0,0.0,0.0,0.0,0.0,0.0,0.0,0.0,0.0,0.0,0.0,0.0,0.0,0.0,0.0,-2.9416,-2.8245,-2.801,-2.8249,-2.8761,-2.8872,-2.9047,-2.9131,-2.8491,-2.8115,-2.7956,-2.7566,-2.7015,-2.6637,-2.6129,-2.5836,-2.5676,-2.5719,-2.5666,-2.567,-2.5896,-2.5449,-2.4876,-2.4302,-2.3767,-2.3313,-2.2993,-2.2518,-2.1909,-2.1719,-2.1405,-2.0875,-2.0761,-2.0761,-2.0761,-2.0774,-2.0812,-2.0555,-1.9887,-1.9197,-1.8005,-1.6673,-1.5319,-1.4466,-1.394,-1.3904,-1.3904,-1.3904,-1.3904,-1.3642,-1.3228,-1.2532,-1.2039,-1.1816,-1.1712,-1.1705,-1.1803,-1.1557,-1.1243,-1.1134,-1.0638,-1.0215,-1.0016,-0.9757,-0.9468,-0.9313,-0.9313,-0.9313,-0.9313,-0.9127,-0.8734,-0.8331,-0.7969,-0.7602,-0.728,-0.699,-0.6664,-0.6373,-0.572,-0.4956,-0.4192,-0.3391,-0.2846,-0.2516,-0.2296,-0.2296,-0.2296,-0.2296,-0.2258,-0.2183,-0.2093,-0.1969,-0.1815,-0.1686,-0.1557,-0.1544,-0.147,-0.1257,-0.088,-0.0472,0.0,0.0,0.0,0.0,0.0,0.0,0.0,0.0,0.0,0.0,0.0,0.0,0.0,0.0,0.0,-2.8826,-2.7878,-2.8634,-2.89,-2.8856,-2.9043,-2.9234,-2.9127,-2.8242,-2.7794,-2.7499,-2.6816,-2.6419,-2.6852,-2.6266,-2.5944,-2.5822,-2.5778,-2.5617,-2.5582,-2.5987,-2.5677,-2.5157,-2.4565,-2.4186,-2.3639,-2.311,-2.2754,-2.2077,-2.1823,-2.154,-2.1013,-2.1002,-2.1015,-2.1063,-2.1112,-2.1126,-2.0817,-2.0352,-1.9672,-1.8463,-1.7122,-1.5834,-1.4928,-1.4217,-1.4011,-1.3904,-1.3904,-1.3904,-1.3694,-1.3321,-1.2641,-1.2213,-1.1965,-1.1925,-1.187,-1.1932,-1.169,-1.1423,-1.1252,-1.0829,-1.0187,-1.0023,-0.9849,-0.9576,-0.9351,-0.9351,-0.9351,-0.9309,-0.9112,-0.8744,-0.8336,-0.7969,-0.7566,-0.7204,-0.7063,-0.6845,-0.67,-0.6337,-0.5577,-0.4813,-0.4014,-0.3289,-0.2847,-0.2296,-0.2296,-0.2296,-0.2296,-0.2296,-0.2186,-0.2076,-0.1886,-0.1769,-0.1499,-0.1299,-0.1457,-0.1448,-0.1266,-0.0985,-0.0541,0.0,0.0,0.0,0.0,0.0,0.0,0.0,0.0,0.0,0.0,0.0,0.0,0.0,0.0,0.0]},{"header":{"parameterUnit":"m.s-1","parameterCategory":1,"la1":31.0,"la2":29.5877,"lo1":-88.7671,"lo2":-86.6584,"dy":0.0162,"dx":0.0185,"nx":115,"ny":88,"refTime":"2023-04-17T12:00:00:Z","depth":0,"parameterNumber":3,"parameterNumberName":"V-component_of_WINDS"},"data":[0.0,0.0,0.0,0.0,0.0,0.0,0.0,0.0,0.0,0.0,0.0,0.0,0.0,0.0,0.0,0.0,0.0,0.0,0.0,0.0,0.0,0.0,0.0,0.0,0.0,0.0,0.0,0.0,0.0,0.0,0.0,0.0,0.0,0.0,0.0,0.0,0.0,0.0,0.0,0.0,0.0,0.0,0.0,0.0,0.0,0.0,0.0,0.0,0.0,0.0,0.0,0.0,0.0,0.0,0.0,0.0,0.0,0.0,0.0,0.0,0.0,0.0,0.0,0.0,0.0,0.0,0.0,0.0,0.0,0.0,0.0,0.0,0.0,0.0,0.0,0.0,0.0,0.0,0.0,0.0,0.0,0.0,0.0,0.0,0.0,0.0,0.0,0.0,0.0,0.0,0.0,0.0,0.0,0.0,0.0,0.0,0.0,0.0,0.0,0.0,0.0,0.0,0.0,0.0,0.0,0.0,0.0,0.0,0.0,0.0,0.0,0.0,0.0,0.0,0.0,0.0,0.0,0.0,0.0,0.0,0.0,0.0,0.0,0.0,0.0,0.0,0.0,0.0,0.0,0.0,0.0,0.0,0.0,0.0,0.0,0.0,0.0,0.0,0.0,0.0,0.0,0.0,0.0,0.0,0.0,0.0,0.0,0.0,0.0,0.0,0.0,0.0,0.0,0.0,0.0,0.0,0.0,0.0,0.0,0.0,0.0,0.0,0.0,0.0,0.0,0.0,0.0,0.0,0.0,0.0,0.0,0.0,0.0,0.0,0.0,0.0,0.0,0.0,0.0,0.0,0.0,0.0,0.0,0.0,0.0,0.0,0.0,0.0,0.0,0.0,0.0,0.0,0.0,0.0,0.0,0.0,0.0,0.0,0.0,0.0,0.0,0.0,0.0,0.0,0.0,0.0,0.0,0.0,0.0,0.0,0.0,0.0,0.0,0.0,0.0,0.0,0.0,0.0,0.0,0.0,0.0,0.0,0.0,0.0,0.0,0.0,0.0,0.0,0.0,0.0,0.0,0.0,0.0,0.0,0.0,0.0,0.0,0.0,0.0,0.0,0.0,0.0,0.0,0.0,0.0,0.0,0.0,0.0,0.0,0.0,0.0,0.0,0.0,0.0,0.0,0.0,0.0,0.0,0.0,0.0,0.0,0.0,0.0,0.0,0.0,0.0,0.0,0.0,0.0,0.0,0.0,0.0,0.0,0.0,0.0,0.0,0.0,0.0,0.0,0.0,0.0,0.0,0.0,0.0,0.0,0.0,0.0,0.0,0.0,0.0,0.0,0.0,0.0,0.0,0.0,0.0,0.0,0.0,0.0,0.0,0.0,0.0,0.0,0.0,0.0,0.0,0.0,0.0,0.0,0.0,0.0,0.0,0.0,0.0,0.0,0.0,0.0,0.0,0.0,0.0,0.0,0.0,0.0,0.0,0.0,0.0,0.0,0.0,0.0,0.0,0.0,0.0,0.0,0.0,0.0,0.0,0.0,0.0,0.0,0.0,0.0,0.0,0.0,0.0,0.0,0.0,0.0,0.0,0.0,0.0,0.0,0.0,0.0,0.0,0.0,0.0,0.0,0.0,0.0,0.0,0.0,0.0,0.0,0.0,0.0,0.0,0.0,0.0,0.0,0.0,0.0,0.0,0.0,0.0,0.0,0.0,0.0,0.0,0.0,0.0,0.0,0.0,0.0,0.0,0.0,0.0,0.0,0.0,0.0,0.0,0.0,0.0,0.0,0.0,0.0,0.0,0.0,0.0,0.0,0.0,0.0,0.0,0.0,0.0,0.0,0.0,0.0,0.0,0.0,0.0,0.0,0.0,0.0,0.0,0.0,0.0,0.0,0.0,0.0,0.0,0.0,0.0,0.0,0.0,0.0,0.0,0.0,0.0,0.0,0.0,0.0,0.0,0.0,0.0,0.0,0.0,0.0,0.0,0.0,0.0,0.0,0.0,0.0,0.0,0.0,0.0,0.0,0.0,0.0,0.0,0.0,0.0,0.0,0.0,0.0,0.0,0.0,0.0,0.0,0.0,0.0,0.0,0.0,0.0,0.0,0.0,0.0,0.0,0.0,0.0,0.0,0.0,0.0,0.0,0.0,0.0,0.0,0.0,0.0,0.0,0.0,0.0,0.0,0.0,0.0,0.0,0.0,0.0,0.0,0.0,0.0,0.0,0.0,0.0,0.0,0.0,0.0,0.0,0.0,0.0,0.0,0.0,0.0,0.0,0.0,0.0,0.0,0.0,0.0,0.0,0.0,0.0,0.0,0.0,0.0,0.0,0.0,0.0,0.0,0.0,0.0,0.0,0.0,0.0,0.0,0.0,0.0,0.0,0.0,0.0,0.0,0.0,0.0,0.0,0.0,0.0,0.0,0.0,0.0,0.0,0.0,0.0,0.0,0.0,0.0,0.0,0.0,0.0,0.0,0.0,0.0,0.0,0.0,0.0,0.0,0.0,0.0,0.0,0.0,0.0,0.0,0.0,0.0,0.0,0.0,0.0,0.0,0.0,0.0,0.0,0.0,0.0,0.0,0.0,0.0,0.0,0.0,0.0,0.0,0.0,0.0,0.0,0.0,0.0,0.0,0.0,0.0,0.0,0.0,0.0,0.0,0.0,0.0,0.0,0.0,0.0,0.0,0.0,0.0,0.0,0.0,0.0,0.0,0.0,0.0,0.0,0.0,0.0,0.0,0.0,0.0,0.0,0.0,0.0,0.0,0.0,0.0,0.0,0.0,0.0,0.0,0.0,0.0,0.0,0.0,0.0,0.0,0.0,0.0,0.0,0.0,0.0,0.0,0.0,0.0,0.0,0.0,0.0,0.0,0.0,0.0,0.0,0.0,0.0,0.0,0.0,0.0,0.0,0.0,0.0,0.0,0.0,0.0,0.0,0.0,0.0,0.0,0.0,0.0,0.0,0.0,0.0,0.0,0.0,0.0,0.0,0.0,0.0,0.0,0.0,0.0,0.0,0.0,0.0,0.0,0.0,0.0,0.0,0.0,0.0,0.0,0.0,0.0,0.0,0.0,0.0,0.0,0.0,0.0,0.0,0.0,0.0,0.0,0.0,0.0,0.0,0.0,0.0,0.0,0.0,0.0,0.0,0.0,0.0,0.0,0.0,0.0,0.0,0.0,0.0,0.0,0.0,0.0,0.0,0.0,0.0,0.0,0.0,0.0,0.0,0.0,0.0,0.0,0.0,0.0,0.0,0.0,0.0,0.0,0.0,0.0,0.0,0.0,0.0,0.0,0.0,0.0,0.0,0.0,0.0,0.0,0.0,0.0,0.0,0.0,0.0,0.0,0.0,0.0,0.0,0.0,0.0,0.0,0.0,0.0,0.0,0.0,0.0,0.0,0.0,0.0,0.0,0.0,0.0,0.0,0.0,0.0,0.0,0.0,0.0,0.0,0.0,0.0,0.0,0.0,0.0,0.0,0.0,0.0,0.0,0.0,0.0,0.0,0.0,0.0,0.0,0.0,0.0,0.0,0.0,0.0,0.0,0.0,0.0,0.0,0.0,0.0,0.0,0.0,0.0,0.0,0.0,0.0,0.0,0.0,0.0,0.0,0.0,0.0,0.0,0.0,0.0,0.0,0.0,0.0,0.0,0.0,0.0,0.0,0.0,0.0,0.0,0.0,0.0,0.0,0.0,0.0,0.0,0.0,0.0,0.0,0.0,0.0,0.0,0.0,0.0,0.0,0.0,0.0,0.0,0.0,0.0,0.0,0.0,0.0,0.0,0.0,0.0,0.0,0.0,0.0,0.0,0.0,0.0,0.0,0.0,0.0,0.0,0.0,0.0,0.0,0.0,0.0,0.0,0.0,0.0,0.0,0.0,0.0,0.0,0.0,0.0,0.0,0.0,0.0,0.0,0.0,0.0,0.0,0.0,0.0,0.0,0.0,0.0,0.0,0.0,0.0,0.0,0.0,0.0,0.0,0.0,0.0,0.0,0.0,0.0,0.0,0.0,0.0,0.0,0.0,0.0,0.0,0.0,0.0,0.0,0.0,0.0,0.0,0.0,0.0,0.0,0.0,0.0,0.0,0.0,0.0,0.0,0.0,0.0,0.0,0.0,0.0,0.0,0.0,0.0,0.0,0.0,0.0,0.0,0.0,0.0,0.0,0.0,0.0,0.0,0.0,0.0,0.0,0.0,0.0,0.0,0.0,0.0,0.0,0.0,0.0,0.0,0.0,0.0,0.0,0.0,0.0,0.0,0.0,0.0,0.0,0.0,0.0,0.0,0.0,0.0,0.0,0.0,0.0,0.0,2.4519,0.0,0.0,0.0,0.0,0.0,0.0,0.0,0.0,0.0,0.0,0.0,0.0,0.0,0.0,0.0,0.0,0.0,0.0,0.0,0.0,0.0,0.0,0.0,0.0,0.0,0.0,0.0,0.0,0.0,0.0,0.0,0.0,0.0,0.0,0.0,0.0,0.0,0.0,0.0,0.0,0.0,0.0,0.0,0.0,0.0,0.0,0.0,0.0,0.0,0.0,0.0,0.0,0.0,0.0,0.0,0.0,0.0,0.0,0.0,0.0,0.0,0.0,0.0,0.0,0.0,0.0,0.0,0.0,0.0,0.0,0.0,0.0,0.0,0.0,0.0,0.0,0.0,0.0,0.0,0.0,0.0,0.0,0.0,0.0,0.0,0.0,0.0,0.0,0.0,0.0,0.0,0.0,0.0,0.0,0.0,0.0,0.0,0.0,0.0,0.0,0.0,0.0,0.0,0.0,0.0,0.0,0.0,0.0,0.0,0.0,2.229,2.3965,2.3457,2.3703,2.4897,0.0,0.0,0.0,0.0,0.0,0.0,0.0,0.0,0.0,0.0,0.0,0.0,0.0,0.0,0.0,0.0,0.0,0.0,0.0,0.0,0.0,0.0,0.0,0.0,0.0,0.0,0.0,0.0,0.0,0.0,0.0,0.0,0.0,0.0,0.0,0.0,0.0,0.0,0.0,0.0,0.0,0.0,0.0,0.0,0.0,0.0,0.0,0.0,0.0,0.0,0.0,0.0,0.0,0.0,0.0,0.0,0.0,0.0,0.0,0.0,0.0,0.0,0.0,0.0,0.0,0.0,0.0,0.0,0.0,0.0,0.0,0.0,0.0,0.0,0.0,0.0,0.0,0.0,0.0,0.0,0.0,0.0,0.0,0.0,0.0,0.0,0.0,0.0,0.0,0.0,0.0,0.0,0.0,0.0,0.0,0.0,0.0,0.0,0.0,0.0,0.0,0.0,0.0,0.0,0.0,0.0,0.0,0.0,0.0,0.0,0.0,0.0,2.3947,2.3998,2.516,0.0,0.0,0.0,0.0,0.0,0.0,0.0,0.0,0.0,0.0,0.0,0.0,0.0,0.0,0.0,0.0,0.0,0.0,0.0,0.0,0.0,0.0,0.0,0.0,0.0,0.0,0.0,0.0,0.0,0.0,0.0,0.0,0.0,0.0,0.0,0.0,0.0,0.0,0.0,0.0,0.0,0.0,0.0,0.0,0.0,0.0,0.0,0.0,0.0,0.0,0.0,0.0,0.0,0.0,0.0,0.0,0.0,0.0,0.0,0.0,0.0,0.0,0.0,0.0,0.0,0.0,0.0,0.0,0.0,0.0,0.0,0.0,0.0,0.0,0.0,0.0,0.0,0.0,0.0,0.0,0.0,0.0,0.0,0.0,0.0,0.0,0.0,0.0,0.0,0.0,0.0,0.0,0.0,0.0,0.0,0.0,0.0,0.0,0.0,0.0,0.0,0.0,0.0,0.0,0.0,0.0,0.0,0.0,0.0,0.0,2.3853,2.4031,2.5215,0.0,2.5996,0.0,0.0,0.0,0.0,0.0,0.0,0.0,0.0,0.0,0.0,0.0,0.0,0.0,0.0,0.0,0.0,0.0,0.0,0.0,0.0,0.0,0.0,0.0,0.0,0.0,0.0,0.0,0.0,0.0,0.0,0.0,0.0,0.0,0.0,0.0,0.0,0.0,0.0,0.0,0.0,0.0,0.0,0.0,0.0,0.0,0.0,0.0,0.0,0.0,0.0,0.0,0.0,0.0,0.0,0.0,0.0,0.0,0.0,0.0,0.0,0.0,0.0,0.0,0.0,0.0,0.0,0.0,0.0,0.0,0.0,0.0,0.0,0.0,0.0,0.0,0.0,0.0,0.0,0.0,0.0,0.0,0.0,0.0,0.0,0.0,0.0,0.0,0.0,0.0,0.0,0.0,0.0,0.0,0.0,0.0,0.0,0.0,0.0,0.0,0.0,0.0,0.0,0.0,0.0,0.0,0.0,0.0,0.0,0.0,0.0,2.4226,2.4651,2.5274,2.5583,0.0,0.0,0.0,0.0,0.0,0.0,0.0,0.0,0.0,0.0,0.0,0.0,0.0,0.0,0.0,0.0,0.0,0.0,0.0,0.0,0.0,0.0,0.0,0.0,0.0,0.0,0.0,0.0,0.0,0.0,0.0,0.0,0.0,0.0,0.0,0.0,0.0,0.0,0.0,0.0,0.0,0.0,0.0,0.0,0.0,0.0,0.0,0.0,0.0,0.0,0.0,0.0,0.0,0.0,0.0,0.0,0.0,0.0,0.0,0.0,0.0,0.0,0.0,0.0,0.0,0.0,0.0,0.0,0.0,0.0,0.0,0.0,0.0,0.0,0.0,0.0,0.0,0.0,0.0,0.0,0.0,0.0,0.0,0.0,0.0,0.0,0.0,0.0,0.0,0.0,0.0,0.0,0.0,0.0,0.0,0.0,0.0,0.0,0.0,0.0,0.0,0.0,0.0,0.0,0.0,0.0,0.0,0.0,0.0,0.0,2.4252,2.4716,2.5485,2.5324,2.534,2.5568,0.0,0.0,0.0,0.0,0.0,0.0,0.0,0.0,0.0,0.0,0.0,0.0,0.0,0.0,0.0,0.0,0.0,0.0,0.0,0.0,0.0,0.0,0.0,0.0,0.0,0.0,0.0,0.0,0.0,0.0,0.0,0.0,0.0,0.0,0.0,0.0,0.0,0.0,0.0,0.0,0.0,0.0,0.0,0.0,0.0,0.0,0.0,0.0,0.0,0.0,0.0,0.0,0.0,0.0,0.0,0.0,0.0,0.0,0.0,0.0,0.0,0.0,0.0,0.0,0.0,0.0,0.0,0.0,0.0,0.0,0.0,0.0,0.0,0.0,0.0,0.0,0.0,0.0,0.0,0.0,0.0,0.0,0.0,0.0,0.0,0.0,0.0,0.0,0.0,0.0,0.0,0.0,0.0,0.0,0.0,0.0,0.0,0.0,0.0,0.0,0.0,0.0,0.0,0.0,0.0,0.0,0.0,0.0,2.4127,2.4824,2.5606,2.6282,2.5663,2.5657,0.0,0.0,0.0,0.0,0.0,0.0,0.0,0.0,0.0,0.0,0.0,0.0,0.0,0.0,0.0,0.0,0.0,0.0,0.0,0.0,0.0,0.0,0.0,0.0,0.0,0.0,0.0,0.0,0.0,0.0,0.0,0.0,0.0,0.0,0.0,0.0,0.0,0.0,0.0,0.0,0.0,0.0,0.0,0.0,0.0,0.0,0.0,0.0,0.0,0.0,0.0,0.0,0.0,0.0,0.0,0.0,0.0,0.0,0.0,0.0,0.0,0.0,0.0,0.0,0.0,0.0,0.0,0.0,0.0,0.0,0.0,0.0,0.0,0.0,0.0,0.0,0.0,0.0,0.0,0.0,0.0,0.0,0.0,0.0,0.0,0.0,0.0,0.0,0.0,0.0,0.0,0.0,0.0,0.0,0.0,0.0,0.0,0.0,0.0,0.0,0.0,0.0,0.0,0.0,0.0,0.0,0.0,0.0,0.0,2.4961,2.5182,2.5416,2.5666,2.5437,2.5408,0.0,0.0,0.0,0.0,0.0,0.0,0.0,0.0,0.0,0.0,0.0,0.0,0.0,0.0,0.0,0.0,0.0,0.0,0.0,0.0,0.0,0.0,0.0,0.0,0.0,0.0,0.0,0.0,0.0,0.0,0.0,0.0,0.0,0.0,0.0,0.0,0.0,0.0,0.0,0.0,0.0,0.0,0.0,0.0,0.0,0.0,0.0,0.0,0.0,0.0,0.0,0.0,0.0,0.0,0.0,0.0,0.0,0.0,0.0,0.0,0.0,0.0,0.0,0.0,0.0,0.0,0.0,0.0,0.0,0.0,0.0,0.0,0.0,0.0,0.0,0.0,0.0,0.0,0.0,0.0,0.0,0.0,0.0,0.0,0.0,0.0,0.0,0.0,0.0,0.0,0.0,0.0,0.0,0.0,0.0,0.0,0.0,0.0,0.0,0.0,0.0,0.0,0.0,0.0,0.0,0.0,0.0,0.0,0.0,2.5356,0.0,2.5406,2.5692,2.5731,2.5695,0.0,0.0,0.0,0.0,0.0,0.0,0.0,0.0,0.0,0.0,0.0,0.0,0.0,0.0,0.0,0.0,0.0,0.0,0.0,0.0,0.0,0.0,0.0,0.0,0.0,0.0,0.0,0.0,0.0,0.0,0.0,0.0,0.0,0.0,0.0,0.0,0.0,0.0,0.0,0.0,0.0,0.0,0.0,0.0,0.0,0.0,0.0,0.0,0.0,0.0,0.0,0.0,0.0,0.0,0.0,0.0,0.0,0.0,0.0,0.0,0.0,0.0,0.0,0.0,0.0,0.0,0.0,0.0,0.0,0.0,0.0,0.0,0.0,0.0,0.0,0.0,0.0,0.0,0.0,0.0,0.0,0.0,0.0,0.0,0.0,0.0,0.0,0.0,0.0,0.0,0.0,0.0,0.0,0.0,0.0,0.0,0.0,0.0,0.0,0.0,0.0,0.0,0.0,0.0,0.0,0.0,0.0,0.0,2.5285,2.5239,2.5321,2.5767,2.6579,2.6582,2.6592,0.0,0.0,0.0,0.0,0.0,0.0,0.0,0.0,0.0,0.0,0.0,0.0,0.0,0.0,0.0,0.0,0.0,0.0,0.0,0.0,0.0,0.0,0.0,0.0,0.0,0.0,0.0,0.0,0.0,0.0,0.0,0.0,0.0,0.0,0.0,0.0,0.0,0.0,0.0,0.0,0.0,0.0,0.0,0.0,0.0,0.0,0.0,0.0,0.0,0.0,0.0,0.0,0.0,0.0,0.0,0.0,0.0,0.0,0.0,0.0,0.0,0.0,0.0,0.0,0.0,0.0,0.0,0.0,0.0,0.0,0.0,0.0,0.0,0.0,0.0,0.0,0.0,0.0,0.0,0.0,0.0,0.0,0.0,0.0,0.0,0.0,0.0,0.0,0.0,0.0,0.0,0.0,0.0,0.0,0.0,0.0,0.0,0.0,0.0,0.0,0.0,0.0,0.0,0.0,0.0,0.0,0.0,0.0,0.0,2.6136,2.6187,2.6618,2.7431,2.689,2.6867,0.0,0.0,0.0,0.0,0.0,0.0,0.0,0.0,0.0,0.0,0.0,0.0,0.0,0.0,0.0,0.0,0.0,0.0,0.0,0.0,0.0,0.0,0.0,0.0,0.0,0.0,0.0,0.0,0.0,0.0,0.0,0.0,0.0,0.0,0.0,0.0,0.0,0.0,0.0,0.0,0.0,0.0,0.0,0.0,0.0,0.0,0.0,0.0,0.0,0.0,0.0,0.0,0.0,0.0,0.0,0.0,0.0,0.0,0.0,0.0,0.0,0.0,0.0,0.0,0.0,0.0,0.0,0.0,0.0,0.0,0.0,0.0,0.0,0.0,0.0,0.0,0.0,0.0,0.0,0.0,0.0,0.0,0.0,0.0,0.0,0.0,0.0,0.0,0.0,0.0,0.0,0.0,0.0,0.0,0.0,0.0,0.0,0.0,0.0,0.0,0.0,0.0,0.0,0.0,0.0,0.0,0.0,0.0,0.0,2.7526,2.6936,2.701,2.7867,2.7664,2.7639,2.7877,0.0,0.0,0.0,0.0,0.0,0.0,0.0,0.0,0.0,0.0,0.0,0.0,0.0,0.0,0.0,0.0,0.0,0.0,0.0,0.0,0.0,0.0,0.0,0.0,0.0,0.0,0.0,0.0,0.0,0.0,0.0,0.0,0.0,0.0,0.0,0.0,0.0,0.0,0.0,0.0,0.0,0.0,0.0,0.0,0.0,0.0,0.0,0.0,0.0,0.0,0.0,0.0,0.0,0.0,0.0,0.0,0.0,0.0,0.0,0.0,0.0,0.0,0.0,0.0,0.0,0.0,0.0,0.0,0.0,0.0,0.0,0.0,0.0,0.0,0.0,0.0,0.0,0.0,0.0,0.0,0.0,0.0,0.0,0.0,0.0,0.0,0.0,0.0,0.0,0.0,0.0,0.0,0.0,0.0,0.0,0.0,0.0,0.0,0.0,0.0,0.0,0.0,0.0,0.0,0.0,0.0,0.0,0.0,2.9252,2.7719,2.7329,2.816,2.8797,2.881,0.0,0.0,0.0,0.0,0.0,0.0,0.0,0.0,0.0,0.0,0.0,0.0,0.0,0.0,0.0,0.0,0.0,0.0,0.0,0.0,0.0,0.0,0.0,0.0,0.0,0.0,0.0,0.0,0.0,0.0,0.0,0.0,0.0,0.0,0.0,0.0,0.0,0.0,0.0,0.0,0.0,0.0,0.0,0.0,0.0,0.0,0.0,0.0,0.0,0.0,0.0,0.0,0.0,0.0,0.0,0.0,0.0,0.0,0.0,0.0,0.0,0.0,0.0,0.0,0.0,0.0,0.0,0.0,0.0,0.0,0.0,0.0,0.0,0.0,0.0,0.0,0.0,0.0,0.0,0.0,0.0,0.0,0.0,0.0,0.0,0.0,0.0,0.0,0.0,0.0,0.0,0.0,0.0,0.0,0.0,0.0,0.0,0.0,0.0,0.0,0.0,0.0,0.0,0.0,0.0,0.0,0.0,0.0,0.0,3.0064,3.0268,3.048,3.0739,3.035,3.0052,0.0,0.0,0.0,0.0,0.0,0.0,0.0,0.0,0.0,0.0,0.0,0.0,0.0,0.0,0.0,0.0,0.0,0.0,0.0,0.0,0.0,0.0,0.0,0.0,0.0,0.0,0.0,0.0,0.0,0.0,0.0,0.0,0.0,0.0,0.0,0.0,0.0,0.0,0.0,0.0,0.0,0.0,0.0,0.0,0.0,0.0,0.0,0.0,0.0,0.0,0.0,0.0,0.0,0.0,0.0,0.0,0.0,0.0,0.0,0.0,0.0,0.0,0.0,0.0,0.0,0.0,0.0,0.0,0.0,0.0,0.0,0.0,0.0,0.0,0.0,0.0,0.0,0.0,0.0,0.0,0.0,0.0,0.0,0.0,0.0,0.0,0.0,0.0,0.0,0.0,0.0,0.0,0.0,0.0,0.0,0.0,0.0,0.0,0.0,0.0,0.0,0.0,0.0,0.0,0.0,0.0,0.0,0.0,3.039,3.0979,3.2522,3.3174,3.2858,3.2034,3.1231,0.0,0.0,0.0,0.0,0.0,0.0,0.0,0.0,0.0,0.0,0.0,0.0,0.0,0.0,0.0,0.0,0.0,0.0,0.0,0.0,0.0,0.0,0.0,0.0,0.0,0.0,0.0,0.0,0.0,0.0,0.0,0.0,0.0,0.0,0.0,0.0,0.0,0.0,0.0,0.0,0.0,0.0,0.0,0.0,0.0,0.0,0.0,0.0,0.0,0.0,0.0,0.0,0.0,0.0,0.0,0.0,0.0,0.0,0.0,0.0,0.0,0.0,0.0,0.0,0.0,0.0,0.0,0.0,0.0,0.0,0.0,0.0,0.0,0.0,0.0,0.0,0.0,0.0,0.0,0.0,0.0,0.0,0.0,0.0,0.0,0.0,0.0,0.0,0.0,0.0,0.0,0.0,0.0,0.0,0.0,0.0,0.0,0.0,0.0,0.0,0.0,0.0,0.0,0.0,0.0,0.0,0.0,0.0,3.1757,3.1864,3.4278,3.5246,3.4582,3.3553,3.229,0.0,0.0,0.0,0.0,0.0,0.0,0.0,0.0,0.0,0.0,0.0,0.0,0.0,0.0,0.0,0.0,0.0,0.0,0.0,0.0,0.0,0.0,0.0,0.0,0.0,0.0,0.0,0.0,0.0,0.0,0.0,0.0,0.0,0.0,0.0,0.0,0.0,0.0,0.0,0.0,0.0,0.0,0.0,0.0,0.0,0.0,0.0,0.0,0.0,0.0,0.0,0.0,0.0,0.0,0.0,0.0,0.0,0.0,0.0,0.0,0.0,0.0,0.0,0.0,0.0,0.0,0.0,0.0,0.0,0.0,0.0,0.0,0.0,0.0,0.0,0.0,0.0,0.0,0.0,0.0,0.0,0.0,0.0,0.0,0.0,0.0,0.0,0.0,0.0,0.0,0.0,0.0,0.0,0.0,0.0,0.0,0.0,0.0,0.0,0.0,0.0,0.0,0.0,0.0,0.0,0.0,0.0,0.0,3.2567,3.2676,3.4586,3.5834,3.6311,3.4215,3.2594,0.0,0.0,0.0,0.0,0.0,0.0,0.0,0.0,0.0,0.0,0.0,0.0,0.0,0.0,0.0,0.0,0.0,0.0,0.0,0.0,0.0,0.0,0.0,0.0,0.0,0.0,0.0,0.0,0.0,0.0,0.0,0.0,0.0,0.0,0.0,0.0,0.0,0.0,0.0,0.0,0.0,0.0,0.0,0.0,0.0,0.0,0.0,0.0,3.058,0.0,0.0,0.0,0.0,0.0,0.0,0.0,0.0,0.0,0.0,0.0,0.0,0.0,0.0,0.0,0.0,0.0,0.0,0.0,0.0,0.0,0.0,0.0,0.0,0.0,0.0,0.0,0.0,0.0,0.0,0.0,0.0,0.0,0.0,0.0,0.0,0.0,0.0,0.0,0.0,0.0,0.0,0.0,0.0,0.0,0.0,0.0,0.0,0.0,0.0,0.0,0.0,0.0,0.0,0.0,0.0,0.0,0.0,0.0,3.2952,3.3506,3.4822,3.578,3.6223,3.4613,3.3496,0.0,0.0,0.0,0.0,0.0,0.0,0.0,0.0,0.0,0.0,0.0,0.0,0.0,0.0,0.0,0.0,0.0,0.0,0.0,0.0,0.0,0.0,0.0,0.0,0.0,0.0,0.0,0.0,0.0,0.0,0.0,0.0,0.0,0.0,0.0,0.0,0.0,0.0,0.0,0.0,0.0,0.0,0.0,0.0,0.0,0.0,0.0,0.0,0.0,0.0,0.0,0.0,0.0,0.0,0.0,0.0,0.0,0.0,0.0,0.0,0.0,0.0,0.0,0.0,0.0,0.0,0.0,0.0,0.0,0.0,0.0,0.0,0.0,0.0,0.0,0.0,0.0,0.0,0.0,0.0,0.0,0.0,0.0,0.0,0.0,0.0,0.0,0.0,0.0,0.0,0.0,0.0,0.0,0.0,0.0,0.0,0.0,0.0,0.0,0.0,0.0,0.0,0.0,0.0,0.0,0.0,0.0,3.2224,3.3131,3.428,3.5052,3.5598,3.5774,3.4881,3.4394,3.4396,0.0,0.0,0.0,0.0,0.0,0.0,0.0,0.0,0.0,0.0,0.0,0.0,0.0,0.0,0.0,0.0,0.0,0.0,0.0,0.0,0.0,0.0,0.0,0.0,0.0,0.0,0.0,0.0,0.0,0.0,0.0,0.0,0.0,0.0,0.0,0.0,0.0,0.0,2.5808,2.7308,0.0,0.0,0.0,0.0,0.0,0.0,0.0,0.0,3.0746,0.0,0.0,0.0,0.0,0.0,0.0,0.0,0.0,0.0,0.0,0.0,0.0,0.0,0.0,0.0,0.0,0.0,0.0,0.0,0.0,0.0,0.0,0.0,0.0,0.0,0.0,0.0,0.0,0.0,0.0,0.0,0.0,0.0,0.0,0.0,0.0,0.0,0.0,0.0,0.0,0.0,0.0,0.0,0.0,0.0,0.0,0.0,0.0,0.0,0.0,0.0,0.0,0.0,0.0,0.0,0.0,3.2286,3.2495,3.3437,3.5043,3.5353,3.5871,3.6586,3.519,3.4399,3.4339,0.0,0.0,0.0,0.0,0.0,0.0,0.0,0.0,0.0,0.0,0.0,0.0,0.0,0.0,0.0,0.0,0.0,0.0,0.0,0.0,0.0,0.0,0.0,0.0,0.0,0.0,0.0,0.0,0.0,0.0,0.0,0.0,0.0,0.0,0.0,0.0,0.0,0.0,0.0,2.8092,2.9249,0.0,0.0,0.0,0.0,0.0,0.0,0.0,0.0,3.0964,0.0,0.0,0.0,0.0,0.0,0.0,0.0,0.0,0.0,0.0,0.0,0.0,0.0,0.0,0.0,0.0,0.0,0.0,0.0,0.0,0.0,0.0,0.0,0.0,0.0,0.0,0.0,0.0,0.0,0.0,0.0,0.0,0.0,0.0,0.0,0.0,0.0,0.0,0.0,0.0,0.0,0.0,0.0,0.0,0.0,0.0,0.0,0.0,0.0,0.0,0.0,0.0,0.0,0.0,0.0,3.3092,3.3676,3.4816,3.6531,3.629,3.6386,3.6856,3.5731,3.4863,0.0,0.0,0.0,0.0,0.0,0.0,0.0,0.0,0.0,0.0,0.0,0.0,0.0,0.0,0.0,0.0,0.0,0.0,0.0,0.0,0.0,0.0,0.0,0.0,0.0,0.0,0.0,0.0,0.0,0.0,0.0,0.0,0.0,0.0,0.0,0.0,0.0,0.0,0.0,0.0,2.9225,3.019,3.0616,0.0,0.0,0.0,0.0,0.0,0.0,3.1262,3.1321,0.0,0.0,0.0,0.0,0.0,0.0,0.0,0.0,0.0,0.0,0.0,0.0,0.0,0.0,0.0,0.0,0.0,0.0,0.0,0.0,0.0,0.0,0.0,0.0,0.0,0.0,0.0,0.0,0.0,0.0,0.0,0.0,0.0,0.0,0.0,0.0,0.0,0.0,0.0,0.0,0.0,0.0,0.0,0.0,0.0,0.0,0.0,0.0,0.0,0.0,0.0,0.0,0.0,0.0,0.0,3.3776,3.4751,3.5963,3.7443,3.6995,3.6671,3.6615,3.5842,3.5098,0.0,0.0,0.0,0.0,0.0,0.0,0.0,0.0,0.0,0.0,0.0,0.0,0.0,0.0,0.0,0.0,0.0,0.0,0.0,0.0,0.0,0.0,0.0,0.0,0.0,0.0,0.0,0.0,0.0,0.0,0.0,0.0,0.0,0.0,0.0,0.0,0.0,0.0,0.0,0.0,0.0,3.1097,3.177,3.1841,0.0,0.0,0.0,0.0,3.119,3.1844,0.0,0.0,0.0,0.0,0.0,0.0,0.0,0.0,0.0,0.0,0.0,0.0,0.0,0.0,0.0,0.0,0.0,0.0,0.0,0.0,0.0,0.0,0.0,0.0,0.0,0.0,0.0,0.0,0.0,0.0,0.0,0.0,0.0,0.0,0.0,0.0,0.0,0.0,0.0,0.0,0.0,0.0,0.0,0.0,0.0,0.0,0.0,0.0,0.0,0.0,0.0,0.0,0.0,0.0,0.0,0.0,3.3809,3.4713,3.5683,3.6606,3.668,3.6426,3.5774,3.4983,3.4479,0.0,0.0,0.0,0.0,0.0,0.0,0.0,0.0,0.0,0.0,0.0,0.0,0.0,0.0,0.0,0.0,0.0,0.0,0.0,0.0,0.0,0.0,0.0,0.0,0.0,0.0,0.0,0.0,0.0,0.0,0.0,0.0,0.0,0.0,0.0,0.0,0.0,0.0,0.0,0.0,0.0,3.1797,3.1874,3.1887,3.1907,0.0,0.0,3.214,3.2805,3.3635,0.0,0.0,0.0,0.0,0.0,0.0,0.0,0.0,0.0,0.0,0.0,0.0,0.0,0.0,0.0,0.0,0.0,0.0,0.0,0.0,0.0,0.0,0.0,0.0,0.0,0.0,0.0,0.0,0.0,0.0,0.0,0.0,0.0,0.0,0.0,0.0,0.0,0.0,0.0,0.0,0.0,0.0,0.0,0.0,0.0,0.0,0.0,0.0,0.0,0.0,0.0,0.0,0.0,0.0,0.0,3.4386,3.5231,3.6615,3.7772,3.8657,3.8331,3.7767,3.7032,3.625,3.5593,0.0,0.0,0.0,0.0,0.0,0.0,0.0,0.0,0.0,0.0,0.0,0.0,0.0,0.0,0.0,0.0,0.0,0.0,0.0,0.0,0.0,0.0,0.0,0.0,0.0,0.0,0.0,0.0,0.0,0.0,0.0,0.0,0.0,0.0,0.0,0.0,0.0,0.0,0.0,0.0,0.0,0.0,3.2643,3.2612,0.0,0.0,0.0,3.2701,3.3091,0.0,0.0,0.0,0.0,0.0,0.0,0.0,0.0,0.0,0.0,0.0,0.0,0.0,0.0,0.0,0.0,0.0,0.0,0.0,0.0,0.0,0.0,0.0,0.0,0.0,0.0,0.0,0.0,0.0,0.0,0.0,0.0,0.0,0.0,0.0,0.0,0.0,0.0,0.0,0.0,0.0,0.0,0.0,0.0,0.0,0.0,0.0,0.0,0.0,0.0,0.0,0.0,0.0,0.0,0.0,0.0,0.0,3.6367,3.8092,3.9357,4.0023,3.9488,3.8841,3.8109,3.7516,0.0,0.0,0.0,0.0,0.0,0.0,0.0,0.0,0.0,0.0,0.0,0.0,0.0,0.0,0.0,0.0,0.0,0.0,0.0,0.0,0.0,0.0,0.0,0.0,0.0,0.0,0.0,2.852,0.0,0.0,0.0,0.0,0.0,0.0,0.0,0.0,0.0,0.0,0.0,0.0,0.0,0.0,3.3459,3.3482,3.3643,3.3996,0.0,0.0,3.3762,3.3713,3.4651,3.4698,0.0,0.0,0.0,0.0,0.0,0.0,0.0,0.0,0.0,0.0,0.0,0.0,0.0,0.0,0.0,0.0,0.0,0.0,0.0,0.0,0.0,0.0,0.0,0.0,0.0,0.0,0.0,0.0,0.0,0.0,0.0,0.0,0.0,0.0,0.0,0.0,0.0,0.0,0.0,0.0,0.0,0.0,0.0,0.0,0.0,0.0,0.0,0.0,0.0,0.0,0.0,0.0,0.0,0.0,0.0,3.6447,3.813,3.9056,3.9188,3.9188,3.8845,3.8119,3.8119,3.7686,0.0,0.0,0.0,0.0,0.0,0.0,0.0,0.0,0.0,0.0,0.0,0.0,0.0,0.0,0.0,0.0,0.0,0.0,0.0,0.0,0.0,0.0,0.0,0.0,0.0,0.0,0.0,0.0,0.0,0.0,0.0,0.0,0.0,0.0,0.0,0.0,0.0,0.0,0.0,0.0,0.0,3.4324,3.4306,3.5023,3.5499,0.0,0.0,3.5502,3.5424,3.6838,3.7093,3.4623,0.0,0.0,0.0,0.0,0.0,0.0,0.0,0.0,0.0,0.0,0.0,0.0,0.0,0.0,0.0,0.0,0.0,0.0,0.0,0.0,0.0,0.0,0.0,0.0,0.0,0.0,0.0,0.0,0.0,0.0,0.0,0.0,0.0,0.0,0.0,0.0,0.0,0.0,0.0,0.0,0.0,0.0,0.0,0.0,0.0,0.0,0.0,0.0,0.0,0.0,0.0,0.0,0.0,3.7067,3.7166,3.8828,3.9757,3.9904,3.9946,3.9608,3.8922,3.8923,3.8301,0.0,0.0,0.0,0.0,0.0,0.0,0.0,0.0,0.0,0.0,0.0,0.0,0.0,0.0,0.0,0.0,0.0,0.0,0.0,0.0,0.0,0.0,0.0,0.0,0.0,0.0,0.0,0.0,3.2916,3.3644,3.361,0.0,0.0,0.0,0.0,0.0,0.0,0.0,0.0,0.0,0.0,3.5191,3.5199,3.5913,0.0,0.0,3.6778,3.6626,3.7112,3.7317,3.6903,3.5436,3.5474,0.0,0.0,0.0,0.0,0.0,0.0,0.0,0.0,0.0,0.0,0.0,0.0,0.0,0.0,0.0,0.0,0.0,0.0,0.0,0.0,0.0,0.0,0.0,0.0,0.0,0.0,0.0,0.0,0.0,0.0,0.0,0.0,0.0,0.0,0.0,0.0,0.0,0.0,0.0,0.0,0.0,0.0,0.0,0.0,0.0,0.0,0.0,0.0,0.0,0.0,0.0,0.0,3.7884,3.7961,3.9637,4.0573,4.079,4.1042,4.0861,4.0184,4.0145,3.9367,0.0,0.0,0.0,0.0,0.0,0.0,0.0,0.0,0.0,0.0,0.0,0.0,0.0,0.0,0.0,0.0,0.0,0.0,0.0,0.0,0.0,0.0,0.0,0.0,0.0,0.0,0.0,0.0,3.4118,3.4688,3.4972,0.0,0.0,0.0,0.0,0.0,0.0,0.0,0.0,0.0,0.0,3.6355,3.6131,3.6765,3.7483,3.8096,3.7674,3.759,3.8432,3.7822,3.7096,3.6555,0.0,0.0,0.0,0.0,0.0,0.0,0.0,0.0,0.0,0.0,0.0,0.0,0.0,0.0,0.0,0.0,0.0,0.0,0.0,0.0,0.0,0.0,0.0,0.0,0.0,0.0,0.0,3.1378,0.0,0.0,3.1554,0.0,0.0,0.0,0.0,0.0,0.0,0.0,0.0,0.0,0.0,0.0,0.0,0.0,0.0,0.0,0.0,0.0,0.0,0.0,0.0,0.0,0.0,3.869,3.8799,4.0471,4.1452,4.1676,4.2492,4.253,4.1843,4.1811,4.1082,3.9462,0.0,0.0,0.0,0.0,0.0,0.0,0.0,0.0,0.0,0.0,0.0,0.0,0.0,0.0,0.0,0.0,0.0,0.0,0.0,0.0,0.0,0.0,0.0,0.0,0.0,0.0,3.3436,3.4123,3.4967,0.0,0.0,0.0,0.0,0.0,0.0,0.0,0.0,0.0,0.0,3.7091,3.7837,3.7094,3.7652,3.8212,3.8251,3.8215,3.8474,3.9261,3.8697,3.8176,0.0,0.0,0.0,0.0,0.0,0.0,0.0,0.0,0.0,0.0,0.0,0.0,0.0,0.0,0.0,0.0,0.0,0.0,0.0,0.0,0.0,0.0,0.0,0.0,0.0,0.0,0.0,3.3135,3.3071,0.0,0.0,0.0,0.0,0.0,0.0,0.0,0.0,0.0,0.0,0.0,3.7864,3.8114,0.0,0.0,0.0,0.0,0.0,0.0,0.0,0.0,0.0,0.0,0.0,0.0,3.9031,3.967,4.0786,4.1673,4.2393,4.2181,4.1989,4.1848,4.133,4.0548,3.9539,0.0,0.0,0.0,0.0,0.0,0.0,0.0,0.0,0.0,0.0,0.0,0.0,0.0,0.0,0.0,0.0,0.0,0.0,0.0,0.0,0.0,0.0,0.0,0.0,0.0,3.4415,0.0,0.0,0.0,0.0,0.0,0.0,0.0,0.0,0.0,0.0,0.0,3.5589,3.6389,3.6989,3.7447,3.7763,3.8536,3.9265,0.0,0.0,0.0,0.0,0.0,0.0,0.0,0.0,0.0,0.0,0.0,0.0,0.0,0.0,3.7948,3.6185,3.607,3.6234,3.6226,0.0,0.0,0.0,0.0,0.0,0.0,0.0,0.0,0.0,0.0,0.0,0.0,0.0,0.0,3.4979,0.0,3.4837,0.0,0.0,0.0,0.0,0.0,0.0,0.0,0.0,3.8461,3.9081,3.9454,3.9702,3.9719,0.0,3.9494,3.8969,0.0,0.0,0.0,0.0,0.0,0.0,0.0,0.0,3.9899,4.0578,4.1629,4.2519,4.323,4.3034,4.2716,4.2255,4.1183,4.0407,3.9962,3.9167,3.8709,0.0,0.0,0.0,0.0,0.0,0.0,0.0,0.0,0.0,0.0,0.0,0.0,0.0,0.0,0.0,0.0,0.0,0.0,0.0,0.0,0.0,0.0,0.0,3.5716,0.0,0.0,0.0,0.0,0.0,0.0,0.0,0.0,0.0,3.7541,3.7254,3.7244,3.7765,3.8324,3.8697,3.867,0.0,0.0,0.0,0.0,0.0,0.0,0.0,4.0394,4.0379,3.9944,3.9742,4.0274,4.0852,4.1113,4.0781,0.0,0.0,3.8054,3.8284,3.8754,3.8424,3.8604,3.8819,3.8767,3.8758,3.8716,0.0,0.0,0.0,0.0,0.0,0.0,0.0,0.0,3.7329,3.7032,0.0,3.6578,0.0,0.0,0.0,0.0,0.0,3.8377,0.0,0.0,4.0984,4.1801,4.1332,4.1902,4.187,4.1262,4.1183,4.1151,4.1053,3.8865,0.0,0.0,0.0,0.0,0.0,0.0,4.1298,4.1525,4.2998,4.3939,4.4231,4.4925,4.458,4.3069,4.1563,4.0771,4.0777,4.0018,3.9629,3.9691,3.8989,0.0,0.0,0.0,0.0,0.0,0.0,0.0,0.0,0.0,0.0,0.0,0.0,0.0,0.0,0.0,0.0,0.0,0.0,0.0,0.0,3.7347,0.0,0.0,0.0,0.0,0.0,0.0,0.0,0.0,0.0,0.0,3.8665,3.9141,3.9629,3.9629,0.0,0.0,0.0,0.0,4.0522,3.9777,4.0379,4.0903,4.0941,4.1585,4.2098,4.2022,0.0,0.0,4.2093,4.2125,4.1932,4.1119,4.1696,4.1551,3.9858,4.0127,4.0315,3.9584,4.008,4.0563,4.0563,4.0563,4.0571,4.1054,0.0,0.0,0.0,0.0,4.1004,4.1024,4.1034,4.0591,4.0335,4.0173,3.9114,0.0,0.0,0.0,0.0,0.0,0.0,4.1638,4.1751,4.3621,4.4449,4.4383,4.4582,4.4544,4.4353,4.3822,4.361,4.3599,4.2432,4.1399,4.0501,0.0,0.0,0.0,0.0,4.1845,4.3057,4.3578,4.4168,4.498,4.4661,4.3745,4.2294,4.1819,4.1324,4.0813,4.1141,4.1366,4.1377,4.1801,0.0,0.0,0.0,0.0,0.0,0.0,0.0,0.0,0.0,0.0,0.0,0.0,0.0,0.0,0.0,0.0,0.0,0.0,0.0,3.8171,3.9247,3.9489,0.0,0.0,0.0,0.0,0.0,0.0,0.0,0.0,0.0,4.1217,4.0786,4.0514,0.0,0.0,4.0621,4.1349,4.1129,4.1223,4.2201,4.2563,0.0,4.2739,4.2936,4.3083,4.3014,4.3481,4.3866,4.3869,4.4333,4.4636,4.438,4.4527,4.4344,4.3216,4.2641,4.2379,4.2133,4.2218,4.2375,4.2346,4.2376,4.2342,4.5052,4.4467,4.2956,4.2527,4.2951,4.3022,4.3057,4.3054,4.2681,4.2408,4.2223,4.1331,4.1009,4.1097,4.1086,0.0,0.0,0.0,4.3565,4.3802,4.5172,4.5862,4.5978,4.6053,4.609,4.606,4.5778,4.5636,4.5646,4.4915,4.4115,4.3091,0.0,0.0,4.1681,4.2331,4.32,4.425,4.4916,4.5396,4.5806,4.4753,4.376,4.2938,4.2579,4.2195,4.1793,4.2273,4.2574,4.2589,4.3125,4.302,0.0,0.0,0.0,0.0,0.0,0.0,0.0,0.0,0.0,0.0,0.0,3.9096,3.91,0.0,0.0,0.0,3.983,3.966,3.9995,4.0673,0.0,0.0,0.0,0.0,0.0,0.0,0.0,4.2032,4.283,4.332,4.332,4.345,4.3147,4.2114,4.2103,4.2416,4.3132,0.0,4.3561,4.3948,4.4271,4.4275,4.3598,4.4069,4.4616,4.495,4.5645,4.6189,4.6206,4.6578,4.6871,4.689,4.6858,4.6587,4.5634,4.5055,4.443,4.3817,4.3917,4.4129,4.4123,4.4102,4.409,4.8132,4.7941,4.4187,4.3163,4.3943,4.3954,4.406,4.4109,4.4001,4.3742,4.3328,4.325,4.3278,4.3369,4.3314,0.0,4.3442,4.4355,4.4919,4.5137,4.608,4.6544,4.6599,4.6712,4.6836,4.6926,4.7117,4.7226,4.7278,4.6632,4.6283,4.622,4.3968,4.2786,4.2786,4.4156,4.4988,4.5232,4.6581,4.7122,4.6684,4.5236,4.453,4.4486,4.3725,4.3268,4.322,4.3336,4.3411,4.3408,4.3543,4.3604,4.3578,0.0,0.0,0.0,0.0,0.0,0.0,0.0,0.0,0.0,0.0,0.0,0.0,0.0,0.0,0.0,4.152,0.0,4.2454,4.1828,0.0,0.0,0.0,4.2555,4.2699,4.3396,4.3895,4.3915,0.0,0.0,4.5102,4.6578,4.6718,4.4341,4.5287,4.5937,4.5202,4.6314,4.6761,4.5405,4.5753,4.5672,4.4548,4.5374,4.647,4.7048,4.8007,4.83,4.8291,4.8272,4.8368,4.8245,4.8429,4.8213,4.7326,4.7074,4.6618,4.5082,4.531,4.5738,4.5624,4.5582,4.559,4.8706,4.8071,4.7188,4.7199,4.7773,4.7903,4.7937,4.7876,4.6744,4.62,4.6151,4.5029,4.464,4.4788,4.4893,4.497,4.5074,4.6057,4.6618,4.687,4.778,4.8238,4.8287,4.783,4.7957,4.8541,4.816,4.8318,4.8942,4.8237,4.7892,4.7947,4.6809,4.5906,4.5337,4.5076,4.562,4.6841,4.6644,4.688,4.7466,4.6714,4.6026,4.5372,4.4575,4.3809,4.3262,4.3849,4.4221,4.4301,4.495,4.5043,4.4458,4.447,0.0,0.0,0.0,0.0,0.0,0.0,0.0,0.0,0.0,4.2527,4.187,0.0,4.3163,0.0,4.4687,4.4606,4.353,4.3775,0.0,0.0,4.3404,4.3912,4.5243,4.5502,4.5886,4.66,4.7367,4.7631,4.6973,4.7812,4.8267,4.765,4.7349,4.7332,4.7737,4.7566,4.7554,4.7786,4.794,4.7977,4.7492,4.7791,4.7894,4.7483,4.7595,4.766,4.7642,4.7592,4.7587,4.7623,4.8096,4.8328,4.8218,4.816,4.802,4.7516,4.7008,4.6399,4.5847,4.6164,4.6402,5.0133,4.9829,5.0056,5.0367,5.0704,4.9678,4.9245,4.9222,4.8389,4.7912,4.7644,4.66,4.623,4.6359,4.6456,4.6517,4.6587,4.7185,4.7569,4.7683,4.8311,4.8587,4.8642,4.8424,4.8588,4.9052,4.8893,4.922,5.0025,4.9303,4.9135,4.9549,4.883,4.8241,4.7787,4.7024,4.6923,4.7384,4.7086,4.7357,4.8285,4.7721,4.7029,4.627,4.5808,4.5159,4.436,4.478,4.5118,4.5142,4.5599,4.5691,4.5293,4.5349,4.522,0.0,0.0,0.0,0.0,0.0,0.0,0.0,0.0,0.0,0.0,0.0,4.4336,4.4414,4.5234,4.5468,4.4912,4.5306,4.5696,4.6,4.6035,4.6384,4.7322,4.739,4.7581,4.8094,4.8862,4.9204,4.874,4.9381,4.9912,4.9923,4.9471,4.9223,4.9315,4.9227,4.9255,4.9333,4.9333,4.9175,4.8813,4.9073,4.9102,4.8699,4.8894,4.9121,4.9068,4.9046,4.9031,4.9067,4.9374,4.9523,4.9155,4.9049,4.8903,4.8488,4.8242,4.7811,4.7031,4.7232,4.7398,5.1765,5.1974,5.2233,5.2562,5.2682,5.0413,4.9525,4.9673,4.9638,4.9162,4.8444,4.7975,4.785,4.7957,4.8015,4.8015,4.8036,4.8208,4.83,4.8283,4.8519,4.8607,4.8627,4.902,4.9207,4.9233,4.9503,5.0008,5.067,5.0071,5.0109,5.0786,5.0333,5.0102,5.0071,4.9504,4.8642,4.7637,4.7969,4.8506,4.9169,4.8506,4.7886,4.7278,4.7165,4.6749,4.5916,4.5954,4.5955,4.5962,4.5906,4.6034,4.6299,4.6274,4.5992,0.0,4.537,0.0,0.0,0.0,0.0,0.0,0.0,0.0,0.0,4.5429,4.5156,4.4414,4.5078,4.582,4.6562,4.664,4.7224,4.8708,4.8901,4.8935,4.8967,4.9004,4.908,4.9112,4.9805,5.0266,5.0267,5.0908,5.132,5.1206,5.1149,5.0865,5.0488,5.0749,5.085,5.0268,5.0151,4.9915,4.9292,4.9683,5.011,5.011,5.0416,5.1121,5.092,5.0925,5.0936,5.0928,5.0914,5.0787,5.0085,4.9957,4.9642,4.9026,4.9347,4.9381,4.8485,4.8392,4.8495,5.2001,5.1772,5.1989,5.2324,5.2634,5.1689,5.1479,5.1789,5.1429,5.0484,4.9316,4.9287,4.9352,4.9475,4.9586,4.963,4.963,4.976,4.9777,4.9787,5.0055,5.0167,5.0177,5.0581,5.0805,5.0831,5.0476,5.0432,5.0699,5.059,5.0666,5.0824,5.1465,5.1818,5.1818,0.0,0.0,0.0,5.0041,5.055,5.0122,4.9488,4.9077,4.8894,4.8299,0.0,4.6795,4.6812,4.6854,4.6848,4.6231,0.0,0.0,0.0,0.0,0.0,0.0,0.0,0.0,0.0,0.0,0.0,4.8196,4.7788,4.7185,4.7734,4.8086,4.793,4.8047,4.8242,4.8397,4.8397,4.8512,4.8777,4.8853,4.9122,4.9738,4.9893,5.0127,5.0828,5.1061,5.1138,5.1136,5.1282,5.1355,5.1358,5.1334,5.1276,5.1133,5.1225,5.1203,5.1045,5.0969,5.0696,4.9917,5.0463,5.0735,5.0266,5.0098,5.0285,5.0361,5.0298,5.0277,5.0311,5.0752,5.1153,5.0961,5.093,5.0781,5.067,5.0781,5.0403,4.8769,4.8928,4.9191,5.287,5.2869,5.2948,5.3232,0.0,5.344,5.3081,5.2502,5.182,5.098,5.0056,4.9733,4.9693,4.99,4.9978,5.0045,5.0112,5.0174,5.0249,5.0314,5.0483,5.0633,5.0694,5.0966,5.1129,5.1157,5.1067,5.1223,5.1656,5.1456,5.1544,5.1928,5.2168,5.231,5.231,5.2792,5.2278,5.0684,5.078,5.0879,5.0973,5.0319,4.9754,4.9356,4.9031,0.0,0.0,0.0,0.0,0.0,0.0,0.0,0.0,4.8171,0.0,4.8672,4.8715,4.89,4.9342,4.9393,4.9561,5.0008,5.0067,4.9542,4.8312,4.8588,4.8864,4.8904,4.8904,4.9061,4.9492,4.9531,4.9687,5.0033,5.011,5.0458,5.1189,5.0991,5.1107,5.1805,5.1683,5.1406,5.1406,5.1395,5.139,5.1394,5.1334,5.1315,5.132,5.13,5.1283,5.1294,5.1285,5.1129,5.0786,5.0973,5.1201,5.0733,5.065,5.0639,5.0629,5.0604,5.0583,5.061,5.0933,5.1192,5.1206,5.1225,5.1205,5.122,5.1211,5.0957,4.9934,5.0096,5.0217,5.3803,5.398,5.398,5.4175,5.451,5.4653,5.4002,5.2692,0.0,0.0,0.0,5.0187,5.0031,5.0264,5.031,5.0401,5.0513,5.0576,5.0686,5.0794,5.0921,5.1072,5.1185,5.1349,5.142,5.1449,5.1593,5.2028,5.266,5.2281,5.2423,5.3007,5.2816,5.2719,5.2824,5.3526,5.3599,5.2931,5.1515,5.1116,5.1779,5.125,5.0631,4.9944,4.9927,4.9534,4.8733,4.8623,4.8682,4.8867,4.8646,4.8732,4.9194,4.9117,4.9121,4.936,4.9481,4.9853,5.0402,5.0463,5.0757,5.1481,5.1584,5.1018,4.9588,4.9511,4.9552,4.9753,4.9794,5.0109,5.0777,5.07,5.0976,5.1757,5.1718,5.1912,5.2528,5.2095,5.1858,5.2279,5.1801,5.1401,5.1402,5.1392,5.1382,5.1421,5.1531,5.1632,5.1705,5.1688,5.1519,5.1337,5.1485,5.1521,5.1298,5.1292,5.132,5.1242,5.1238,5.1308,5.1291,5.1225,5.1198,5.1141,5.1225,5.1217,5.1195,5.122,5.1211,5.1197,5.122,5.1199,5.1196,5.1136,5.1021,5.4279,5.398,5.398,5.4191,5.446,5.3851,5.3425,5.2972,5.1789,5.1396,5.1567,5.1559,5.1585,5.1633,5.1862,5.1968,5.1992,5.2119,5.2209,5.2297,5.2444,5.2565,5.2683,5.2857,5.3048,5.3084,5.2564,5.2419,5.2651,5.2748,5.2905,5.3178,5.3938,5.439,5.4557,5.4685,5.4728,5.4718,5.391,5.3207,5.2724,5.2684,5.2615,5.2467,5.1808,5.107,5.0215,4.959,4.9611,5.0318,4.9119,4.9392,5.1523,5.1085,5.1062,5.1833,5.2577,5.2747,5.2194,5.2142,5.2217,5.2413,5.2425,5.2337,5.2191,5.2156,5.2429,5.3094,5.3101,5.3341,5.3421,5.2724,5.2651,5.3397,5.2928,5.2578,5.2773,5.2613,5.2334,5.1902,5.15,5.1451,5.1567,5.1487,5.1485,5.1524,5.198,5.2674,5.3086,5.2864,5.214,5.1597,5.1945,5.2021,5.1483,5.1283,5.1357,5.132,5.1308,5.1297,5.1291,5.1254,5.1222,5.1211,5.1222,5.1205,5.1211,5.1205,5.1205,5.1211,5.1205,5.1199,5.1199,5.1139,5.1124,5.4618,5.4545,5.4167,5.4191,5.446,5.3701,5.3428,5.3402,5.2628,5.2551,5.2944,5.3008,5.3072,5.3173,5.3348,5.3483,5.3544,5.3278,5.3202,5.3208,5.2921,5.2861,5.3028,5.3151,5.3282,5.3297,5.3031,5.2976,5.3142,5.334,5.3575,5.3854,5.4492,5.4852,5.4913,5.492,5.4956,5.5075,5.4341,5.3817,5.3567,5.3136,5.2941,5.2941,5.2642,5.2317,5.1959,5.1611,5.1683,5.2162,5.1494,5.1659,5.2744,5.255,5.256,5.3003,5.344,5.3502,5.3163,5.3172,5.3217,5.3301,5.3305,5.3516,5.4016,5.3639,5.3491,5.3848,5.3933,5.3944,5.3994,5.3649,5.358,5.3942,5.363,5.3593,5.3945,5.367,5.3432,5.3465,5.3107,5.2826,5.2819,5.239,5.2118,5.2156,5.2497,5.3031,5.3796,5.3577,5.3017,5.2285,5.2348,5.2185,5.1528,5.1754,5.1787,5.1396,5.1312,5.1302,5.1291,5.1254,5.1229,5.1211,5.1222,5.1202,5.1199,5.1199,5.1199,5.1199,5.1199,5.1199,5.1196,5.1187,5.1175,5.5162,5.5229,5.4545,5.4346,5.4444,5.3892,5.3802,5.4017,5.3763,5.3943,5.4345,5.4153,5.4067,5.4184,5.4327,5.4453,5.4481,5.4134,5.3988,5.4008,5.3518,5.3277,5.3273,5.3396,5.3329,5.3214,5.3225,5.3339,5.3471,5.3709,5.4026,5.4397,5.4691,5.4845,5.492,5.492,5.4949,5.5047,5.449,5.4267,5.4365,5.3765,5.3483,5.3451,5.3386,5.3344,5.3393,5.3259,5.3296,5.3576,5.3463,5.3464,5.3649,5.3709,5.3754,5.3866,5.4033,5.4114,5.4005,5.3869,5.3918,5.4158,5.4201,5.4552,5.5295,5.488,5.4467,5.4479,5.4562,5.4539,5.4601,5.4375,5.4349,5.4523,5.4408,5.4527,5.5117,5.4687,5.4412,5.4874,5.4401,5.3967,5.3882,5.341,5.3135,5.3289,5.3281,5.3621,5.427,5.437,5.3897,5.3467,5.3058,5.2612,5.1847,5.2345,5.245,5.1749,5.1626,5.1537,5.1406,5.1225,5.1196,5.1211,5.1222,5.1202,5.1199,5.1199,5.1199,5.1199,5.1199,5.1199,5.1199,5.1199,5.1184,5.6313,5.5859,5.5229,5.481,5.4497,5.441,5.4544,5.4868,5.5144,5.5416,5.5518,5.4536,5.4037,5.4067,5.4361,5.4488,5.4513,5.4676,5.4822,5.4893,5.4844,5.4535,5.4081,5.4115,5.3814,5.3314,5.3272,5.3408,5.3496,5.3654,5.3972,5.441,5.4573,5.4745,5.4898,5.4913,5.4927,5.5014,5.5002,5.5105,5.5275,5.5212,5.5174,5.518,5.439,5.402,5.4013,5.3374,5.341,5.409,5.3691,5.3705,5.4375,5.4568,5.4601,5.4684,5.5424,5.5609,5.4923,5.423,5.4229,5.4974,5.5098,5.5411,5.6232,5.6273,5.6236,5.6164,5.6215,5.6115,5.6212,5.5565,5.5425,5.6026,5.5559,5.521,5.5299,5.523,5.4921,5.4179,5.4293,5.4015,5.417,5.4008,5.4157,5.4697,5.4732,5.5038,5.5728,5.5358,5.4952,5.4745,5.4295,5.3465,5.2805,5.319,5.3305,5.2682,5.2472,5.223,5.1788,5.1446,5.1214,5.1444,5.1225,5.1202,5.1199,5.1199,5.1199,5.1199,5.1199,5.1199,5.1199,5.1199,5.1184,5.6499,5.5944,5.5349,5.4879,5.4532,5.4494,5.4592,5.473,5.5068,5.5383,5.5621,5.527,5.5243,5.5433,5.5711,5.5805,5.5831,5.5652,5.5547,5.5535,5.5196,5.4891,5.4692,5.4852,5.4759,5.4521,5.4587,5.4674,5.4833,5.5104,5.5203,5.5116,5.5291,5.5219,5.4882,5.4852,5.4919,5.5,5.5035,5.512,5.5293,5.5377,5.5396,5.5358,5.5052,5.4906,5.4903,5.4612,5.4676,5.5056,5.4878,5.488,5.5232,5.5277,5.535,5.5488,5.5905,5.6072,5.5763,5.5505,5.5509,5.5896,5.595,5.6115,5.6466,5.6505,5.6505,5.6507,5.6474,5.649,5.6478,5.6178,5.6152,5.6483,5.6255,5.6064,5.6074,5.608,5.5891,5.5585,5.5547,5.5506,5.5465,5.5071,5.4947,5.5251,5.5324,5.5667,5.6324,5.5792,5.5264,5.5181,5.4849,5.432,5.3656,5.4084,5.4162,5.3652,5.3325,5.3076,5.2796,5.2215,5.1986,5.1947,5.1572,5.128,5.1199,5.1199,5.1199,5.1199,5.1199,5.1199,5.1199,5.1199,5.1193,5.6888,5.6419,5.5741,5.5153,5.4789,5.4582,5.4494,5.4557,5.4946,5.5279,5.5517,5.5893,5.6175,5.641,5.6693,5.6812,5.6744,5.6496,5.6331,5.6259,5.5801,5.5535,5.5389,5.5564,5.5581,5.5454,5.5493,5.5629,5.5796,5.6091,5.6057,5.5827,5.6021,5.5877,5.5478,5.5352,5.5291,5.5305,5.5144,5.5064,5.5188,5.53,5.5383,5.5396,5.5396,5.5409,5.5463,5.5499,5.5526,5.5654,5.5687,5.5708,5.5708,5.5708,5.5771,5.5909,5.607,5.6174,5.6223,5.6338,5.6389,5.6378,5.6448,5.6505,5.6505,5.6505,5.6505,5.6505,5.6505,5.6484,5.6477,5.6483,5.6536,5.66,5.6605,5.661,5.658,5.6621,5.6587,5.6597,5.6444,5.6601,5.6523,5.6051,5.5695,5.5728,5.5678,5.5784,5.6364,5.6025,5.5608,5.5534,5.5549,5.5223,5.4515,5.4981,5.5059,5.4587,5.4182,5.4047,5.3882,5.3177,5.2597,5.2319,5.1833,5.1435,5.1238,5.1199,5.1199,5.1199,5.1199,5.1199,5.1199,5.1199,5.1199,5.7832,5.7634,5.6627,5.5838,5.5513,5.4789,5.4494,5.456,5.5174,5.5472,5.5575,5.6092,5.6369,5.6396,5.668,5.6812,5.6816,5.6989,5.708,5.7043,5.702,5.672,5.6176,5.6272,5.6037,5.564,5.5764,5.5813,5.5922,5.588,5.5992,5.6338,5.6556,5.6755,5.6777,5.6343,5.6133,5.608,5.5525,5.5118,5.5158,5.5233,5.5376,5.5543,5.5435,5.5479,5.5467,5.5496,5.5523,5.5535,5.5649,5.5703,5.5708,5.5708,5.5761,5.59,5.5964,5.6019,5.6109,5.6291,5.6397,5.6352,5.6514,5.6544,5.6624,5.6546,5.6505,5.6505,5.6505,5.6484,5.6594,5.6678,5.6614,5.66,5.6644,5.6649,5.6619,5.6619,5.6624,5.663,5.6593,5.6598,5.6601,5.6562,5.6442,5.6436,5.6462,5.6449,5.6439,5.6419,5.6354,5.6336,5.6289,5.6133,5.5453,5.5684,5.5801,5.5446,5.5041,5.4826,5.4215,5.368,5.3225,5.2771,5.2374,5.194,5.1435,5.1199,5.1199,5.1199,5.1199,5.1199,5.1199,5.1199,5.1199,5.7755,5.7392,5.6048,5.553,5.5547,5.4789,5.4494,5.4526,5.4976,5.5309,5.5546,5.5922,5.6203,5.6396,5.6586,5.6733,5.6825,5.6984,5.71,5.7176,5.7188,5.7069,5.6901,5.6988,5.6976,5.6852,5.6944,5.7141,5.7321,5.7368,5.7233,5.7111,5.7215,5.7211,5.7036,5.6857,5.6819,5.6921,5.6656,5.658,5.6621,5.6702,5.681,5.6963,5.6434,5.6454,5.7035,5.6549,5.6304,5.6376,5.5928,5.5665,5.5703,5.574,5.5792,5.59,5.5955,5.6033,5.6184,5.6721,5.7064,5.7139,5.7227,5.7266,5.7165,5.6819,5.6505,5.6505,5.6505,5.6675,5.7203,5.7336,5.7122,5.6757,5.7035,5.7115,5.6727,5.6611,5.6612,5.6617,5.6621,5.6631,5.6599,5.6601,5.6601,5.6598,5.6591,5.6584,5.6538,5.6514,5.6483,5.6478,5.6498,5.6396,5.6156,5.6232,5.6349,5.6186,5.5942,5.585,5.5436,5.478,5.4283,5.3799,5.3318,5.2371,5.1788,5.1319,5.128,5.1199,5.1199,5.1199,5.1199,5.1199,5.1199,5.7757,5.7377,5.6065,5.5634,5.576,5.4876,5.4494,5.4526,5.4853,5.5189,5.5517,5.5807,5.6092,5.6369,5.6492,5.664,5.6812,5.692,5.7061,5.7176,5.7188,5.7188,5.7213,5.7326,5.7461,5.7595,5.7798,5.7962,5.8111,5.8122,5.8032,5.783,5.7901,5.7901,5.7729,5.7623,5.7624,5.7769,5.7543,5.7469,5.7565,5.7587,5.7849,5.8127,5.7695,5.7569,5.7953,5.743,5.7026,5.6836,5.6312,5.5934,5.5747,5.5745,5.5792,5.5895,5.6232,5.642,5.66,5.7365,5.7896,5.7965,5.8042,5.8096,5.8036,5.7353,5.6933,5.6894,5.6896,5.7178,5.7744,5.8271,5.8173,5.7259,5.7227,5.719,5.6683,5.6605,5.6605,5.6608,5.6616,5.6626,5.6594,5.6598,5.6601,5.6601,5.6598,5.6593,5.6589,5.6534,5.6502,5.65,5.648,5.6494,5.6359,5.6427,5.6505,5.6344,5.6303,5.6368,5.631,5.573,5.5236,5.483,5.4032,5.2929,5.2141,5.1594,5.1358,5.1277,5.1199,5.1199,5.1199,5.1199,5.1199,5.8009,5.7969,5.6764,5.6337,5.6332,5.5138,5.4563,5.4714,5.4958,5.5348,5.5738,5.592,5.6326,5.6457,5.6597,5.6617,5.692,5.6979,5.7049,5.7188,5.7188,5.7188,5.7201,5.7313,5.7486,5.7595,5.7881,5.7997,5.802,5.8031,5.8108,5.8367,5.8508,5.8659,5.9206,5.8617,5.8476,5.8503,5.7982,5.7658,5.7641,5.7815,5.8268,5.9012,5.9026,5.8727,5.8084,5.8087,5.7767,5.7063,5.69,5.6549,5.5857,5.5862,5.5871,5.6107,5.672,5.7192,5.7391,5.8182,5.87,5.8731,5.884,5.8913,5.8813,5.8114,5.7557,5.7557,5.7598,5.7721,5.8092,5.9127,5.9417,5.8106,5.7496,5.719,5.68,5.6644,5.6605,5.6606,5.6613,5.662,5.6624,5.6594,5.6599,5.6601,5.6601,5.6595,5.6595,5.6547,5.6491,5.6504,5.6491,5.648,5.6492,5.6505,5.6505,5.6466,5.6466,5.6459,5.6443,5.6028,5.5771,5.5364,5.4633,5.3566,5.258,5.2069,5.1746,5.163,5.1471,5.1316,5.1199,5.1199,5.1199,5.8009,5.8087,5.731,5.7073,5.7054,5.5827,5.5547,5.601,5.5895,5.6133,5.6737,5.7278,5.7538,5.7526,5.7355,5.7369,5.7567,5.7153,5.6972,5.7199,5.7188,5.7188,5.7201,5.7239,5.7375,5.7595,5.7881,5.7997,5.7997,5.7997,5.8088,5.8282,5.8426,5.8656,5.8975,5.8972,5.9133,5.9269,5.9184,5.9207,5.9315,5.9292,5.9526,5.9936,5.9988,5.9842,5.9613,5.9073,5.8719,5.8457,5.7471,5.6499,5.6071,5.6819,5.7198,5.6876,5.7538,5.8051,5.8235,5.8983,5.9559,5.9607,5.9671,5.9742,5.9616,5.8537,5.7827,5.7752,5.7713,5.7912,5.8583,5.9028,5.9288,5.8768,5.8979,5.8479,5.7426,5.6917,5.6644,5.6605,5.6608,5.6613,5.6621,5.663,5.6596,5.6599,5.6601,5.6601,5.66,5.6557,5.6548,5.6493,5.6521,5.65,5.6471,5.6486,5.6478,5.6472,5.6505,5.6505,5.6455,5.6405,5.615,5.5699,5.4966,5.4202,5.3255,5.2699,5.2415,5.2173,5.2135,5.1824,5.1355,5.1277,5.1396,5.7954,5.8031,5.7514,5.738,5.7381,5.6448,5.6322,5.6735,5.6515,5.6744,5.7314,5.7816,5.8103,5.8161,5.8061,5.795,5.7882,5.7446,5.7375,5.7497,5.7284,5.7188,5.7201,5.7251,5.7375,5.7583,5.7834,5.795,5.7997,5.8008,5.8054,5.819,5.8338,5.8529,5.8794,5.9053,5.9309,5.9589,5.9727,5.9902,6.0045,6.0099,6.0173,6.0349,6.0377,6.0377,6.0339,5.9835,5.9476,5.9134,5.8008,5.7163,5.6813,5.7703,5.8072,5.7856,5.8343,5.8934,5.9066,5.9841,6.036,6.0416,6.0464,6.0533,6.0381,5.9316,5.8696,5.8669,5.8719,5.8882,5.9391,5.9837,5.9981,6.0009,5.9477,5.8864,5.7541,5.6917,5.6839,5.6917,5.6839,5.6765,5.6967,5.6702,5.6631,5.6597,5.66,5.6601,5.6601,5.66,5.6557,5.655,5.6541,5.6521,5.6486,5.6507,5.6494,5.648,5.6505,5.6505,5.6461,5.6455,5.6288,5.568,5.5029,5.4491,5.3619,5.3488,5.3285,5.3082,5.2837,5.2484,5.2135,5.1824,5.1785,5.79,5.7835,5.7547,5.7431,5.7415,5.7,5.6943,5.6978,5.6891,5.714,5.7516,5.8016,5.8204,5.8384,5.8693,5.8573,5.8046,5.8053,5.8128,5.8129,5.7812,5.7478,5.7237,5.7459,5.7631,5.7631,5.7836,5.7954,5.7997,5.8008,5.8054,5.8227,5.8349,5.8508,5.8743,5.8925,5.9272,5.9678,5.9682,5.9803,6.0175,6.0091,6.0204,6.0356,6.0415,6.0377,6.0377,6.0314,5.9987,5.9345,5.8765,5.8406,5.8275,5.8357,5.8572,5.8467,5.923,5.9711,5.9993,6.0514,6.0973,6.0986,6.1031,6.1236,6.1026,6.0385,5.9866,5.9965,6.0032,6.009,6.0209,6.0846,6.1259,6.1049,5.9469,5.7999,5.6993,5.6761,5.6839,5.7309,5.7112,5.6918,5.7586,5.7125,5.686,5.675,5.6716,5.66,5.6601,5.6601,5.6601,5.6597,5.6591,5.6538,5.6511,5.6497,5.6486,5.6509,5.6488,5.6474,5.6468,5.6459,5.642,5.5813,5.5324,5.4749,5.4491,5.448,5.4233,5.3907,5.3587,5.3267,5.2885,5.2544,5.2158,5.79,5.7902,5.8092,5.8183,5.8133,5.7791,5.7909,5.8323,5.7805,5.7925,5.8556,5.9254,5.9468,5.9593,5.9559,5.9524,5.9358,5.9045,5.8943,5.9055,5.9042,5.8226,5.7576,5.7943,5.8007,5.7741,5.8178,5.8455,5.8033,5.7997,5.8065,5.819,5.8338,5.8432,5.8577,5.8855,5.9495,6.0116,5.9818,6.0093,6.0773,6.0373,6.0182,6.0308,6.0387,6.0377,6.0422,6.0464,6.0103,5.9415,5.9854,5.9465,5.8621,5.9396,5.9754,5.943,6.0052,6.065,6.072,6.0911,6.1075,6.1084,6.1161,6.1228,6.1201,6.0592,6.0269,6.0255,6.0253,6.0088,5.9817,6.0718,6.0973,5.9916,5.92,5.8629,5.8165,5.7347,5.6722,5.6917,5.7309,5.7624,5.7786,5.7714,5.7525,5.7455,5.7146,5.6797,5.6953,5.6914,5.7031,5.6717,5.6635,5.6548,5.6496,5.6486,5.6473,5.6497,5.6477,5.6449,5.6474,5.6455,5.642,5.6223,5.6008,5.5517,5.5691,5.583,5.5344,5.4693,5.4588,5.4358,5.3555,5.306,5.2669,5.7936,5.8045,5.8384,5.8543,5.8614,5.8445,5.8616,5.8857,5.8599,5.87,5.9282,5.983,6.0151,6.029,6.0356,6.0274,6.0074,5.9835,5.9821,5.9921,6.0006,5.9203,5.8179,5.8328,5.82,5.7692,5.8166,5.8224,5.801,5.7997,5.8077,5.8179,5.8338,5.8448,5.854,5.876,5.9472,6.0323,6.0218,6.0612,6.1622,6.1042,6.0776,6.0706,6.0595,6.0377,6.0422,6.0457,6.025,6.0029,6.0341,6.026,5.9583,6.0204,6.055,6.0094,6.0663,6.0992,6.1013,6.1056,6.1113,6.1084,6.1139,6.1191,6.1174,6.0886,6.0708,6.0764,6.0806,6.0592,6.0402,6.1032,6.1056,6.0462,5.9863,5.9372,5.8713,5.766,5.7582,5.7933,5.8285,5.8521,5.8762,5.8572,5.8422,5.835,5.8121,5.7889,5.7851,5.7656,5.75,5.7265,5.703,5.6987,5.6707,5.6583,5.6532,5.652,5.6507,5.6482,5.6451,5.6468,5.6457,5.642,5.6411,5.6437,5.641,5.6383,5.6086,5.5647,5.5625,5.5241,5.443,5.383,5.34,5.8009,5.8241,5.8419,5.8613,5.8788,5.8927,5.8961,5.8995,5.8926,5.9182,5.9602,5.9962,6.0266,6.0609,6.0807,6.0789,6.0304,6.046,6.0627,6.0729,6.0743,6.0109,5.8963,5.8903,5.8658,5.8203,5.7947,5.814,5.8269,5.8217,5.815,5.8238,5.836,5.8469,5.8625,5.8778,5.9529,6.0575,6.0821,6.1362,6.2223,6.1877,6.1469,6.121,6.0671,6.0415,6.0377,6.0391,6.0408,6.0578,6.0648,6.0633,6.0686,6.0781,6.0781,6.076,6.0839,6.0976,6.0997,6.1036,6.1065,6.107,6.1075,6.1164,6.1232,6.1232,6.1272,6.1295,6.1546,6.1412,6.1344,6.1435,6.1146,6.0857,6.0563,5.952,5.8515,5.8011,5.8558,5.9963,5.9494,5.9729,5.989,5.9778,5.9238,5.9207,5.8938,5.8589,5.8552,5.8515,5.832,5.8086,5.7812,5.75,5.7107,5.6673,5.6587,5.6537,5.653,5.6513,5.648,5.6457,5.6431,5.6418,5.6422,5.6441,5.6402,5.6378,5.6328,5.6253,5.6041,5.5714,5.5314,5.4808,5.4354,5.8009,5.8223,5.8419,5.8613,5.8788,5.8927,5.8995,5.8995,5.8995,5.9233,5.9636,5.9943,6.0297,6.0625,6.0944,6.1039,6.102,6.1192,6.1484,6.1683,6.1711,6.1231,6.0398,6.0217,5.9953,5.9599,6.0099,5.9834,5.921,5.8926,5.8725,5.8474,5.8641,5.8528,5.881,5.9457,6.0251,6.1237,6.1514,6.2146,6.2945,6.2563,6.1909,6.1385,6.0764,6.0453,6.0377,6.0377,6.0446,6.0552,6.0604,6.0667,6.0757,6.0781,6.0781,6.0798,6.0888,6.0927,6.0911,6.0995,6.1022,6.1032,6.106,6.1089,6.1164,6.131,6.1384,6.1441,6.1515,6.1568,6.1511,6.035,6.0332,6.0552,6.0174,5.9714,5.9648,5.9222,5.9142,5.9455,5.9924,6.0201,6.0403,6.036,6.0093,6.0023,5.9715,5.9287,5.9291,5.9451,5.9218,5.8984,5.8359,5.8008,5.746,5.6951,5.6635,5.6552,5.6548,5.654,5.6518,5.6457,5.6482,5.6461,5.6439,5.6448,5.6404,5.6415,5.6415,5.6417,5.641,5.6171,5.5857,5.5531,5.5302,5.8063,5.8366,5.8455,5.8648,5.8892,5.8961,5.8995,5.8995,5.8995,5.9318,5.9765,6.0043,6.0376,6.0823,6.1019,6.1211,6.1458,6.1672,6.184,6.1978,6.1992,6.1774,6.1485,6.1258,6.0943,6.0243,6.0354,6.0176,5.987,5.9758,5.9657,5.9485,5.9467,5.9701,5.9753,6.0263,6.115,6.2091,6.2359,6.2928,6.3844,6.3053,6.1901,6.1096,6.0573,6.0377,6.0377,6.0377,6.0453,6.0578,6.0623,6.0648,6.0757,6.0781,6.0781,6.0793,6.0877,6.0905,6.0938,6.0936,6.1007,6.1007,6.1051,6.1102,6.1143,6.1248,6.1363,6.1428,6.1495,6.1544,6.1543,6.1015,6.0607,6.0706,6.0602,6.0573,6.0741,6.0235,5.9923,6.0235,6.0782,6.094,6.1021,6.0905,6.0945,6.0875,6.0885,6.0497,6.0614,6.0658,6.0232,5.9804,5.9023,5.8398,5.7851,5.7265,5.6679,5.66,5.6599,5.6596,5.6549,5.6538,5.6526,5.6497,5.6451,5.6414,5.642,5.6437,5.6429,5.6389,5.6378,5.641,5.6313,5.5999,5.5882,5.8117,5.849,5.849,5.8667,5.8978,5.8995,5.8995,5.8995,5.8995,5.9401,6.001,6.0072,6.047,6.0989,6.1123,6.1314,6.1601,6.184,6.1978,6.1992,6.2028,6.1955,6.1883,6.1765,6.1488,6.0415,6.061,6.0614,6.0604,6.0566,6.0491,6.0572,6.0674,6.0614,6.0874,6.1292,6.1816,6.268,6.3063,6.3596,6.4441,6.3584,6.2479,6.1522,6.0824,6.0721,6.0644,6.0544,6.0484,6.0604,6.0617,6.0654,6.0746,6.0781,6.0793,6.0798,6.0888,6.0905,6.0933,6.0974,6.1002,6.1002,6.1046,6.1107,6.1174,6.1216,6.1287,6.1366,6.1469,6.1518,6.1566,6.1396,6.1458,6.1559,6.1615,6.1705,6.1559,6.1017,6.0977,6.1328,6.1407,6.1408,6.1488,6.1489,6.1606,6.1726,6.1699,6.1706,6.1705,6.159,6.1088,6.0623,5.9882,5.8711,5.8008,5.7656,5.707,5.668,5.664,5.6601,5.6601,5.6557,5.6545,5.646,5.6414,5.6425,5.64,5.6434,5.641,5.635,5.637,5.6427,5.6434,5.6383,5.631,5.8151,5.849,5.849,5.8667,5.8978,5.8995,5.8995,5.8995,5.8995,5.9418,6.0043,6.0088,6.0485,6.0989,6.1226,6.1458,6.1714,6.1945,6.2028,6.2028,6.2028,6.2028,6.2028,6.2005,6.1937,6.2063,6.185,6.1662,6.1471,6.1386,6.1214,6.0818,6.0884,6.101,6.137,6.1726,6.2395,6.2973,6.3538,6.4179,6.4454,6.4355,6.3742,6.2757,6.174,6.1287,6.1134,6.0728,6.0484,6.0604,6.0617,6.0699,6.0752,6.0781,6.0804,6.0877,6.09,6.0911,6.0927,6.098,6.1005,6.1005,6.106,6.1109,6.1121,6.1174,6.1236,6.1298,6.1434,6.1515,6.1589,6.1597,6.1621,6.1644,6.1697,6.1705,6.1676,6.1524,6.1407,6.168,6.1719,6.1719,6.1721,6.1722,6.1721,6.1721,6.1727,6.1697,6.1698,6.1702,6.1551,6.1166,6.074,5.9413,5.8164,5.793,5.75,5.6914,5.6719,5.6601,5.6601,5.6601,5.6557,5.6523,5.6447,5.6423,5.6441,5.645,5.6466,5.6397,5.6422,5.6453,5.6439,5.639,5.6434,5.8207,5.8508,5.8613,5.8788,5.8978,5.8995,5.8995,5.8995,5.9012,5.9368,5.983,6.0056,6.0403,6.0878,6.119,6.1487,6.1756,6.1959,6.1992,6.2028,6.2028,6.2028,6.2028,6.2028,6.2168,6.2305,6.236,6.238,6.223,6.2205,6.1998,6.1924,6.1944,6.2084,6.2239,6.2732,6.3114,6.3472,6.3903,6.4348,6.4567,6.457,6.3935,6.2796,6.2122,6.144,6.095,6.0721,6.0484,6.0552,6.0617,6.0699,6.074,6.0787,6.0837,6.0827,6.0894,6.0911,6.0927,6.0974,6.0987,6.1016,6.1075,6.1113,6.1123,6.1125,6.1182,6.1268,6.1366,6.1507,6.152,6.1589,6.1617,6.1641,6.1694,6.1705,6.1714,6.1718,6.1719,6.1719,6.1719,6.1719,6.1719,6.1719,6.1719,6.1719,6.1719,6.1725,6.1691,6.1698,6.1705,6.1439,6.1015,6.0078,5.8867,5.8437,5.7969,5.7344,5.6875,5.6758,5.6601,5.6601,5.6599,5.6544,5.6522,5.6497,5.6418,5.6422,5.645,5.6443,5.6453,5.6459,5.6405,5.6398,5.6441,5.833,5.8525,5.8701,5.8875,5.8978,5.8995,5.8995,5.8995,5.8995,5.9351,5.9846,6.004,6.0372,6.0848,6.1205,6.1544,6.1848,6.195,6.1992,6.2028,6.2028,6.2028,6.2028,6.2046,6.2181,6.2381,6.2449,6.2589,6.2682,6.2683,6.2768,6.2733,6.3013,6.3243,6.3215,6.3314,6.3753,6.3979,6.4159,6.4377,6.4563,6.4305,6.3488,6.2124,6.19,6.1554,6.0912,6.0551,6.0504,6.0552,6.061,6.066,6.0757,6.0781,6.0781,6.0793,6.0877,6.0905,6.0955,6.098,6.1002,6.0997,6.1046,6.107,6.1123,6.1146,6.1156,6.131,6.1411,6.149,6.1497,6.1539,6.1606,6.1627,6.1648,6.1703,6.1711,6.1715,6.1719,6.1719,6.1719,6.1719,6.1719,6.1719,6.1719,6.1722,6.1722,6.1727,6.1694,6.17,6.1667,6.1557,6.1172,6.0508,5.9687,5.914,5.8515,5.7734,5.7305,5.707,5.6836,5.6601,5.6598,5.6592,5.6542,5.6521,5.6444,5.641,5.6451,5.6488,5.6478,5.6466,5.6455,5.6448,5.645,5.833,5.8508,5.8701,5.8875,5.8995,5.8995,5.8995,5.8995,5.8995,5.9418,6.001,6.0104,6.0434,6.0998,6.1401,6.17,6.1932,6.2,6.2028,6.2028,6.2028,6.2028,6.2019,6.2141,6.2248,6.2384,6.2513,6.2641,6.2768,6.2793,6.2867,6.2978,6.3099,6.3267,6.3347,6.3522,6.3725,6.3915,6.4108,6.4454,6.4848,6.4959,6.441,6.3696,6.2955,6.2204,6.1339,6.0846,6.0545,6.061,6.0648,6.071,6.0808,6.0781,6.0781,6.0837,6.0877,6.0933,6.0976,6.1121,6.1167,6.121,6.1206,6.1109,6.1123,6.115,6.1208,6.131,6.1398,6.1466,6.1481,6.1534,6.1595,6.1617,6.1638,6.1691,6.1703,6.1711,6.1714,6.1719,6.1719,6.1719,6.1719,6.1719,6.1719,6.1723,6.1727,6.1691,6.1696,6.1701,6.1708,6.1597,6.1523,6.0937,6.043,5.9883,5.9258,5.8359,5.7773,5.7383,5.7109,5.6836,5.6601,5.6598,5.6592,5.6545,5.6529,5.6473,5.65,5.6482,5.6503,5.6486,5.647,5.6464,5.6457,5.8795,5.8525,5.8771,5.8927,5.8995,5.8995,5.8995,5.8995,5.9012,5.9284,5.9783,6.0043,6.0578,6.1255,6.153,6.1764,6.1987,6.1992,6.2028,6.2028,6.2028,6.2028,6.2033,6.2154,6.2252,6.2384,6.2526,6.2654,6.2755,6.2805,6.2867,6.3002,6.3123,6.3291,6.3394,6.3534,6.3714,6.3937,6.4257,6.4615,6.492,6.5052,6.4853,6.4138,6.3328,6.2541,6.1721,6.0898,6.0551,6.0578,6.0654,6.0722,6.0923,6.1172,6.1364,6.0825,6.1339,6.1395,6.1141,6.1474,6.1669,6.1776,6.1795,6.1655,6.1277,6.118,6.1268,6.1318,6.1341,6.1415,6.149,6.1502,6.1575,6.1599,6.1699,6.1758,6.1771,6.1702,6.1707,6.1714,6.1719,6.1758,6.1758,6.1719,6.1719,6.1721,6.1723,6.1727,6.1694,6.1701,6.1709,6.1677,6.164,6.1445,6.1055,6.0625,6.0156,5.9297,5.8164,5.7773,5.7422,5.7148,5.6796,5.6601,5.66,5.6597,5.6562,5.6537,5.651,5.6494,5.6482,5.6505,5.6488,5.647,5.6466,5.9362,5.8596,5.8875,5.8995,5.8995,5.8995,5.8995,5.8995,5.9064,5.9336,5.9751,6.0202,6.0838,6.1386,6.1559,6.1736,6.1959,6.1964,6.1992,6.2028,6.2028,6.2028,6.206,6.2168,6.2328,6.2433,6.259,6.2705,6.2768,6.2818,6.288,6.3039,6.3135,6.3314,6.3417,6.3568,6.3736,6.4031,6.4366,6.4726,6.4993,6.5128,6.4785,6.4199,6.3488,6.2808,6.1982,6.1548,6.1241,6.1307,6.146,6.1606,6.1692,6.2089,6.2166,6.187,6.2186,6.2243,6.1995,6.213,6.2413,6.2646,6.2704,6.2511,6.2051,6.1746,6.1619,6.1746,6.2094,6.1889,6.16,6.1657,6.178,6.1809,6.1831,6.1898,6.2075,6.2319,6.237,6.2262,6.2226,6.1914,6.1875,6.1758,6.1719,6.1719,6.1721,6.1723,6.1694,6.1703,6.171,6.1717,6.168,6.164,6.1484,6.1094,6.0742,6.0195,5.9023,5.8164,5.7812,5.7226,5.6718,5.6601,5.668,5.6601,5.6601,5.6562,5.6518,5.6514,5.6506,5.6524,5.6505,5.6486,5.6509,5.9878,5.8771,5.8927,5.8995,5.8995,5.8995,5.8995,5.9064,5.9183,5.9551,6.0056,6.0666,6.1064,6.1343,6.1516,6.1694,6.1848,6.1973,6.2014,6.2028,6.2028,6.2005,6.2087,6.2248,6.2407,6.2436,6.2629,6.2755,6.2829,6.2793,6.2941,6.3135,6.3159,6.3336,6.3511,6.3624,6.3808,6.4125,6.4472,6.4745,6.4976,6.5082,6.4837,6.4314,6.4039,6.3701,6.2853,6.2626,6.2543,6.2572,6.2606,6.2714,6.2725,6.3045,6.3045,6.287,6.3084,6.3218,6.3158,6.2903,6.2882,6.3308,6.356,6.3482,6.3096,6.3332,6.3166,6.2491,6.2726,6.2637,6.2267,6.2007,6.1946,6.2289,6.2435,6.2582,6.292,6.3405,6.3419,6.3042,6.2735,6.2422,6.2031,6.1914,6.1719,6.1719,6.1723,6.1727,6.17,6.1708,6.1713,6.1717,6.1718,6.168,6.168,6.1445,6.1172,6.0664,5.9765,5.8828,5.8125,5.75,5.7226,5.6875,5.6953,5.6797,5.664,5.664,5.6601,5.6562,5.6523,5.6533,5.6505,5.6482,5.647,5.9714,5.8944,5.8978,5.8995,5.8995,5.8995,5.9132,5.9318,5.9336,5.9634,6.0246,6.0696,6.1058,6.1314,6.1501,6.1694,6.1798,6.1923,6.1978,6.2028,6.1992,6.2046,6.2168,6.2301,6.2423,6.2539,6.2705,6.2793,6.2793,6.2793,6.2904,6.3039,6.3135,6.3289,6.3477,6.3665,6.3926,6.4135,6.4472,6.4745,6.4993,6.5128,6.5081,6.494,6.4283,6.4122,6.3671,6.3239,6.3117,6.3147,6.3258,6.3361,6.3571,6.3891,6.3852,6.3595,6.3943,6.4237,6.4277,6.4022,6.4119,6.428,6.445,6.4334,6.3985,6.3777,6.3607,6.3334,6.3197,6.3061,6.3245,6.2442,6.1987,6.2688,6.3037,6.315,6.3647,6.4177,6.4276,6.3863,6.3319,6.2813,6.2422,6.207,6.1875,6.1719,6.1725,6.1692,6.1701,6.1709,6.1712,6.1716,6.1718,6.1719,6.1719,6.164,6.1562,6.1015,6.043,5.9609,5.8789,5.8711,5.8359,5.7851,5.7383,5.7461,5.7305,5.6875,5.668,5.6601,5.6531,5.6527,5.6503,5.6482,5.6474,5.9545,5.903,5.8995,5.8995,5.8995,5.8995,5.9233,5.9536,5.9403,5.9667,6.0341,6.0712,6.1028,6.1314,6.1501,6.168,6.1784,6.1945,6.2014,6.2028,6.2005,6.2087,6.2222,6.2331,6.2462,6.2603,6.273,6.2793,6.2793,6.2793,6.2855,6.2966,6.3111,6.3291,6.344,6.3731,6.3979,6.4135,6.4443,6.4745,6.5001,6.5128,6.525,6.5268,6.484,6.4657,6.4473,6.4166,6.4015,6.4008,6.4044,6.404,6.4283,6.4512,6.4589,6.4549,6.4642,6.5136,6.5164,6.5236,6.5294,6.5329,6.5334,6.503,6.4604,6.4411,6.4546,6.4145,6.3808,6.371,6.4089,6.3047,6.2782,6.3408,6.2941,6.3061,6.4109,6.4758,6.4782,6.4644,6.4177,6.3828,6.3164,6.2735,6.2187,6.1953,6.1721,6.1725,6.1691,6.1701,6.1708,6.1713,6.1717,6.1718,6.1719,6.168,6.1601,6.1367,6.0781,6.0234,5.9687,5.957,5.9219,5.8594,5.8281,5.8281,5.8047,5.7656,5.7148,5.664,5.6581,5.6538,5.6521,5.6503,5.6488,5.9511,5.903,5.9012,5.903,5.9047,5.9012,5.925,5.9652,5.9553,5.9781,6.0403,6.0848,6.1152,6.1328,6.1501,6.168,6.182,6.1959,6.2028,6.2028,6.2033,6.21,6.2199,6.2344,6.2513,6.2616,6.273,6.2805,6.2818,6.2793,6.2818,6.2904,6.3075,6.3302,6.3442,6.3716,6.3968,6.4152,6.4452,6.4763,6.5001,6.5136,6.5258,6.5337,6.5261,6.5146,6.5039,6.5031,6.4913,6.5012,6.513,6.5204,6.5455,6.5551,6.559,6.5602,6.5702,6.5893,6.5949,6.6063,6.6049,6.5987,6.5876,6.5837,6.5992,6.592,6.562,6.5035,6.5218,6.4966,6.4468,6.3743,6.3802,6.3997,6.3614,6.3672,6.4798,6.5423,6.5487,6.5425,6.5388,6.5155,6.4298,6.3517,6.2735,6.2226,6.1836,6.172,6.1723,6.1694,6.1704,6.1711,6.1716,6.1718,6.1719,6.1719,6.164,6.1484,6.1172,6.0664,6.0273,6.0039,5.9687,5.9258,5.914,5.914,5.8828,5.8476,5.7969,5.7419,5.6702,5.6516,5.6502,5.6488,5.6514,5.9185,5.9012,5.9284,5.9385,5.9385,5.9419,5.9584,5.9978,6.0294,6.0543,6.0681,6.1004,6.1182,6.1328,6.1537,6.173,6.1834,6.1959,6.2028,6.2005,6.2073,6.2222,6.2318,6.2449,6.259,6.2705,6.2793,6.2855,6.2941,6.2855,6.2867,6.2966,6.3111,6.3338,6.3579,6.384,6.4083,6.4227,6.4511,6.4806,6.5086,6.5161,6.525,6.5406,6.5413,6.5413,6.5421,6.5413,6.5494,6.5587,6.5629,6.5755,6.5878,6.5904,6.5904,6.5916,6.5966,6.6005,6.6057,6.6112,6.6144,6.617,6.6185,6.6185,6.6185,6.6225,6.6042,6.5824,6.5697,6.5497,6.5485,6.4304,6.4233,6.5341,6.5384,6.5325,6.5918,6.6202,6.6349,6.6165,6.6053,6.5391,6.461,6.4337,6.3672,6.3047,6.2695,6.2031,6.1877,6.177,6.1702,6.1709,6.1714,6.1717,6.1719,6.1719,6.1719,6.1601,6.1445,6.1133,6.082,6.0547,6.039,6.0156,6.0078,5.9961,5.9609,5.9219,5.8828,5.8314,5.7564,5.6844,5.6709,5.6624,5.6504,5.8995,5.9047,5.9418,5.9619,5.9636,5.9734,5.993,6.0218,6.0793,6.0974,6.0889,6.1298,6.152,6.1609,6.1861,6.1873,6.1926,6.1937,6.2028,6.2019,6.2154,6.2238,6.2384,6.2576,6.2654,6.2755,6.2805,6.2867,6.2978,6.2917,6.299,6.3123,6.3171,6.3361,6.3613,6.384,6.4083,6.4257,6.4521,6.479,6.5001,6.5174,6.5234,6.5337,6.5391,6.5413,6.5429,6.5435,6.5501,6.5587,6.5694,6.5807,6.5865,6.5904,6.5904,6.5923,6.5941,6.5993,6.603,6.6058,6.6102,6.618,6.6185,6.6185,6.619,6.6249,6.6279,6.607,6.572,6.5872,6.5942,6.4748,6.4962,6.6068,6.5823,6.5728,6.6273,6.6523,6.653,6.6387,6.6405,6.5663,6.5157,6.4961,6.4687,6.4101,6.3594,6.289,6.2226,6.2079,6.1855,6.1705,6.1711,6.1715,6.1718,6.1719,6.1719,6.1719,6.1562,6.1406,6.1367,6.1133,6.1094,6.1055,6.0898,6.0703,6.0312,5.9961,5.9531,5.9023,5.8357,5.7722,5.7074,5.6953,5.6956,5.9012,5.9081,5.9435,5.9652,5.9718,6.0129,6.0292,6.0269,6.0823,6.1,6.0848,6.206,6.2226,6.199,6.2615,6.2599,6.2118,6.205,6.1992,6.2046,6.2181,6.2301,6.2446,6.2552,6.2692,6.2768,6.2818,6.288,6.3002,6.3051,6.3171,6.3277,6.3254,6.3431,6.3635,6.3856,6.4042,6.4257,6.4511,6.4781,6.4993,6.5149,6.5218,6.5321,6.5383,6.5413,6.5429,6.5405,6.5479,6.5552,6.5615,6.5735,6.5846,6.5897,6.5904,6.5904,6.5904,6.5946,6.5984,6.6007,6.6069,6.6155,6.618,6.6185,6.619,6.6244,6.6279,6.6298,6.6089,6.6199,6.6144,6.5821,6.5536,6.5534,6.5206,6.5524,6.6259,6.6434,6.6375,6.6408,6.6669,6.6402,6.6211,6.6016,6.5508,6.5351,6.4804,6.4258,6.3555,6.2735,6.2433,6.17,6.1707,6.1712,6.1716,6.1718,6.1719,6.1719,6.1719,6.1601,6.164,6.1601,6.1484,6.1406,6.1601,6.1406,6.0937,6.0586,6.0234,5.9726,5.9453,5.8748,5.8187,5.7911,5.7832,5.9166,5.9451,5.9832,6.0072,6.0431,6.1289,6.1676,6.1651,6.1334,6.1553,6.2577,6.2528,6.2772,6.3227,6.3084,6.2952,6.2638,6.2317,6.2064,6.211,6.2344,6.2391,6.2485,6.264,6.2767,6.278,6.2818,6.2904,6.3111,6.3194,6.3265,6.3359,6.3336,6.3511,6.368,6.3867,6.4021,6.4247,6.4501,6.4761,6.4993,6.5166,6.528,6.5337,6.5391,6.5413,6.5383,6.542,6.5487,6.5516,6.5674,6.58,6.5807,6.5872,6.5904,6.5904,6.591,6.5941,6.5976,6.6023,6.6047,6.6123,6.616,6.618,6.6195,6.6254,6.6284,6.6298,6.6307,6.634,6.6372,6.617,6.6006,6.5825,6.5609,6.592,6.65,6.6513,6.6461,6.6555,6.6816,6.6794,6.6718,6.664,6.6211,6.6289,6.6055,6.5429,6.4648,6.3789,6.2934,6.2162,6.1702,6.1709,6.1715,6.1719,6.1719,6.1719,6.1719,6.1719,6.168,6.168,6.168,6.1719,6.1719,6.164,6.1484,6.1133,6.0859,6.1133,6.0859,6.0039,5.9333,5.9018,5.8779,5.9233,5.9601,5.9978,6.0517,6.1361,6.2302,6.2893,6.302,6.2342,6.2622,6.3428,6.3559,6.3564,6.3437,6.3473,6.3261,6.2607,6.2657,6.2549,6.2617,6.2725,6.2891,6.2962,6.2824,6.2804,6.2793,6.2818,6.2892,6.3111,6.3291,6.3361,6.3488,6.3454,6.3545,6.368,6.3812,6.3915,6.4176,6.4463,6.477,6.4993,6.5174,6.5258,6.5344,6.5391,6.5413,6.5421,6.5435,6.5457,6.5501,6.566,6.5767,6.5793,6.5859,6.5897,6.5904,6.5904,6.5941,6.6002,6.6017,6.6036,6.6096,6.6149,6.6175,6.619,6.6249,6.6274,6.6298,6.6307,6.6326,6.6363,6.636,6.6394,6.6392,6.6435,6.6471,6.6559,6.6603,6.6673,6.6777,6.6808,6.679,6.6796,6.6796,6.6796,6.6679,6.6484,6.6055,6.5235,6.4337,6.3439,6.2625,6.2049,6.1706,6.1713,6.1717,6.1719,6.1719,6.1719,6.1719,6.1719,6.1719,6.1719,6.1719,6.1719,6.164,6.1601,6.164,6.1523,6.1719,6.1719,6.1055,6.0351,5.996,5.9762,5.9336,5.9839,6.0199,6.1286,6.249,6.3234,6.3948,6.459,6.3908,6.3735,6.4087,6.4699,6.4402,6.4065,6.4079,6.3557,6.3092,6.2947,6.2838,6.3178,6.3521,6.3583,6.3338,6.3154,6.3146,6.2964,6.2854,6.2892,6.3026,6.3194,6.3419,6.3579,6.35,6.3534,6.3624,6.3747,6.3878,6.3979,6.4317,6.468,6.4897,6.5061,6.521,6.5305,6.5368,6.5413,6.5413,6.5429,6.5451,6.5487,6.5566,6.5681,6.5807,6.5859,6.5891,6.5904,6.5904,6.5929,6.5978,6.5993,6.6019,6.608,6.6183,6.617,6.6185,6.6195,6.6259,6.6274,6.6284,6.6322,6.6363,6.6394,6.6428,6.6465,6.6505,6.6527,6.6553,6.6572,6.6683,6.675,6.6794,6.6778,6.6796,6.6796,6.6796,6.6796,6.6718,6.6406,6.5898,6.5001,6.4026,6.3129,6.2592,6.2053,6.1705,6.1711,6.1716,6.1719,6.1718,6.1719,6.1719,6.1719,6.1719,6.1719,6.1719,6.1719,6.168,6.1719,6.1719,6.1719,6.1719,6.1719,6.1328,6.082,6.0662,6.0081,6.1149,6.2191,6.3182,6.4004,6.4234,6.4753,6.5498,6.5446,6.5309,6.5407,6.5238,6.5331,6.5336,6.4542,6.3961,6.378,6.3273,6.2838,6.3133,6.3662,6.3993,6.3686,6.3479,6.3548,6.3514,6.3307,6.2904,6.3099,6.3302,6.3431,6.3579,6.3545,6.3568,6.359,6.3714,6.3802,6.3856,6.4172,6.4492,6.4732,6.4955,6.5106,6.5305,6.5413,6.5413,6.5413,6.5421,6.5429,6.542,6.5537,6.5701,6.5865,6.5891,6.5897,6.5904,6.5942,6.5993,6.5954,6.597,6.6023,6.6036,6.6091,6.6139,6.617,6.618,6.619,6.62,6.6225,6.6312,6.6358,6.6385,6.642,6.6461,6.6501,6.6505,6.6508,6.6584,6.6657,6.6719,6.6773,6.6767,6.6788,6.6796,6.6796,6.6796,6.6796,6.664,6.6406,6.5703,6.465,6.3755,6.3135,6.2635,6.213,6.1821,6.1906,6.1754,6.1717,6.1718,6.1719,6.1719,6.1719,6.1719,6.1719,6.1719,6.1719,6.1719,6.1719,6.1719,6.1719,6.1719,6.1719,6.1328,6.1367,6.0207,6.1208,6.2424,6.3555,6.4468,6.461,6.5038,6.5657,6.5585,6.5745,6.6089,6.5883,6.589,6.6009,6.4874,6.4142,6.3997,6.3866,6.3345,6.3315,6.392,6.4157,6.4111,6.3829,6.3473,6.3428,6.3135,6.2953,6.3233,6.3279,6.3384,6.3594,6.3628,6.3628,6.3639,6.3706,6.3777,6.3714,6.4091,6.4362,6.4671,6.485,6.5115,6.5298,6.5413,6.5413,6.5413,6.5413,6.5413,6.542,6.5523,6.5708,6.5974,6.6282,6.6205,6.6134,6.6173,6.6301,6.6101,6.6061,6.6121,6.6146,6.6108,6.6167,6.6175,6.6185,6.6185,6.6195,6.6195,6.6235,6.6331,6.6367,6.6407,6.6449,6.6485,6.6508,6.6531,6.6581,6.6648,6.6709,6.6763,6.6803,6.6823,6.6796,6.6796,6.6796,6.6796,6.6796,6.6601,6.6446,6.5354,6.4577,6.4036,6.3258,6.2636,6.2365,6.2212,6.2022,6.1793,6.1717,6.1719,6.1719,6.1719,6.1719,6.1719,6.1719,6.1719,6.1719,6.1719,6.1719,6.1719,6.1719,6.1719,6.1719,6.164,6.0145,6.0919,6.2271,6.3448,6.4503,6.4753,6.5145,6.5621,6.5135,6.5341,6.5961,6.604,6.593,6.562,6.4772,6.4048,6.3649,6.3758,6.3526,6.3736,6.4908,6.4916,6.4594,6.4144,6.3886,6.3513,6.3172,6.326,6.3515,6.3415,6.3398,6.3657,6.3776,6.3776,6.3776,6.3936,6.417,6.4335,6.4545,6.4549,6.4649,6.4763,6.5057,6.5252,6.5406,6.5413,6.5413,6.5413,6.5413,6.5588,6.5753,6.6207,6.6576,6.7013,6.6635,6.6596,6.6936,6.682,6.6517,6.6536,6.6459,6.6367,6.6279,6.6278,6.632,6.6263,6.6263,6.6263,6.6263,6.6249,6.6341,6.6354,6.6398,6.6402,6.6477,6.6508,6.6542,6.657,6.663,6.6691,6.6743,6.6789,6.6853,6.6827,6.6796,6.6796,6.6796,6.6796,6.6759,6.6683,6.6139,6.5634,6.5248,6.4392,6.3418,6.2911,6.2678,6.2292,6.2025,6.1834,6.1719,6.1719,6.1719,6.1719,6.1719,6.1719,6.1719,6.1719,6.1719,6.1719,6.1719,6.1719,6.1719,6.1719,6.1719,6.0776,6.2159,6.4218,6.4912,6.4717,6.5233,6.5661,6.5709,6.5243,6.5181,6.5179,6.504,6.5287,6.646,6.5011,6.4215,6.4011,6.3903,6.3504,6.3518,6.4829,6.5288,6.5323,6.4838,6.4689,6.4184,6.3711,6.3922,6.3664,6.3379,6.3682,6.4433,6.4519,6.4556,6.4705,6.4976,6.5382,6.54,6.5546,6.5753,6.5738,6.5615,6.5014,6.5147,6.5306,6.5391,6.5413,6.5413,6.5413,6.5657,6.6212,6.6981,6.7537,6.7859,6.7628,6.7321,6.7667,6.759,6.7358,6.7466,6.7417,6.7161,6.7067,6.6896,6.6817,6.6533,6.6533,6.6533,6.65,6.6409,6.6419,6.6393,6.6398,6.6406,6.6446,6.6501,6.6524,6.6538,6.6574,6.6681,6.6741,6.6833,6.695,6.6892,6.6796,6.6796,6.6796,6.6796,6.6796,6.6761,6.6764,6.6497,6.6187,6.5412,6.4362,6.3577,6.3186,6.2721,6.2258,6.2029,6.1836,6.1719,6.1719,6.1719,6.1719,6.1719,6.1719,6.1719,6.1719,6.1719,6.1719,6.1719,6.1719,6.1719,6.1719]}]]